GFSSE_prec_radar_000.txt.gz
Reflectivity
-20 -20 -2 9 5 -11 -20 -20 -20 -20 -20 -20 -20 -11 9 6 10 -20 -20 -20 -20 -20 -20 -20 -20 -19 18 18 13 -15 1 -20 -20 -20 -20 -20 -20 -20 -8 -9 -20 -16 -9
-20 -20 -18 12 8 -20 -20 -20 -20 -20 -20 -20 -20 17 -15 -20 -17 10 -20 -10 -20 -20 -20 -20 -20 -20 -19 8 10 -20 5 -20 -20 -20 -20 -20 -20 -20 -20 -20 17 -14 -5
-20 -20 -20 8 -6 -18 -20 -20 -20 -20 -20 -20 -20 -0 -20 -6 -20 -17 -16 -20 -20 -20 -20 -20 -20 -20 -20 -20 -20 -20 -20 -20 -20 -20 -20 -20 -20 -20 -20 -20 16 -20 -9
-20 -20 -4 14 -20 -20 -12 -20 -20 -20 -20 -20 -20 -18 9 -19 16 14 15 -14 -20 -20 -20 -20 -20 -20 -20 -20 -20 -20 -20 -20 -20 -20 -20 -20 -20 -20 -20 -8 14 -10 -13
-20 -20 -20 9 10 4 -19 -20 -20 -20 -20 -20 -20 -20 -4 13 7 -4 -20 -20 -20 -20 -20 -20 -20 -20 -20 -20 -20 -20 -20 -20 -20 -20 -20 -20 -20 -20 -20 5 17 14 13
-20 -20 -20 -20 -20 8 -4 -15 -11 -20 -20 -20 -20 -20 -16 16 12 16 10 -20 -20 -20 -20 -20 -20 -20 -20 -20 -20 -20 -2 -20 -20 -20 -20 -20 -20 -20 -20 -20 -19 11 8
-20 -20 -20 -18 -20 9 6 -20 -20 -20 -20 -20 -20 -20 -14 14 15 18 14 -17 -20 -20 -20 -20 -20 -20 -20 -20 -20 -20 -20 -15 -20 -20 -20 -20 -20 -20 -20 -20 -20 -12 10
-20 -20 -20 -3 -20 -16 9 -12 -20 -20 -20 -20 -20 -20 -18 -15 2 -1 0 14 -20 -20 -20 -20 -20 0 -20 -20 -20 -20 -20 -20 -20 -20 -20 -20 -20 -20 -20 -20 -20 -20 -20
-20 -20 -20 -2 -20 -20 5 -20 -20 -20 -20 -20 -20 -20 -20 -20 -20 -20 -13 -20 -20 -20 -20 -20 1 -20 -20 -20 -20 -20 -20 -20 -20 -20 -20 -20 -20 -20 -20 7 1 -10 -20
-20 -20 -20 -13 -8 4 -20 -20 -20 -20 -19 -20 -20 -20 -20 -20 -20 -20 -20 -20 -20 -20 -20 -20 -20 -19 -9 -20 -20 -2 -20 -20 -20 -20 -20 -20 -20 -20 15 15 15 6 9
-18 -20 -16 -5 -17 -20 -20 -20 -20 -20 -20 -20 -20 -20 -20 -20 -20 -20 -20 -20 -20 -20 -20 -15 15 13 -20 -20 -20 -20 -20 -20 -20 -20 -20 -20 -20 -20 2 -8 -13 7 13
-20 -20 -20 -13 -7 -20 -20 -20 -20 -20 -20 -20 -20 -20 -20 -20 -20 -20 -20 -20 -20 -20 -20 -20 -20 -20 -20 -20 -20 -20 -20 -20 -20 -20 -20 -20 -20 -20 -20 -20 -20 5 -12
-20 -20 -17 -20 -10 -20 -20 -20 -20 -20 -20 -20 -20 -20 -20 -20 -20 -20 -20 -20 -20 -20 -1 -19 -20 -20 -20 -20 -20 -20 -20 -20 -20 -20 -20 -20 -20 -20 -20 -20 -20 -20 6
-20 -20 -20 -20 -20 -20 -20 -20 -20 -20 -20 -20 -20 -20 -20 -20 -20 -20 -20 -20 -20 -20 -20 -20 -20 -20 -20 -20 -20 -20 -20 -20 -20 -20 -20 -20 -20 -20 -20 -20 -20 -7 -20
-20 -20 -20 -20 -20 -20 -20 -20 -20 -20 -20 -20 -20 -20 -20 -20 -20 -20 -17 6 -14 -20 -20 -20 -20 -20 -20 -20 -20 -20 -20 -20 -20 -20 -20 -20 -20 -20 -20 -20 -20 -20 -20
-20 -20 -20 -20 -20 -20 -20 -20 -20 -20 -20 -20 -20 -20 -20 7 -12 -20 6 -20 -20 -20 -20 -20 -20 -20 -20 -20 -20 -20 -20 -20 -20 -20 -20 -20 -20 -20 -20 -20 -20 -20 -20
-20 -20 -20 -20 -20 -20 -20 -20 -20 -20 -20 -20 -5 -20 7 14 12 -19 -20 -20 -20 -20 -20 -20 -20 -20 -20 -20 -20 -20 -20 -20 -20 -20 -20 -20 -20 -20 -20 -20 -20 -20 -20
-20 -20 -20 -20 -20 -20 -20 -5 26 -20 1 6 1 -1 7 -2 -4 5 -20 -20 -20 -20 -20 -20 -20 -20 -20 -20 -20 -20 -20 -20 -20 -20 -20 -20 -20 -20 -20 -20 -20 -20 -20
-20 -20 -20 -20 -20 -20 -20 -12 7 -17 10 13 9 12 -2 -19 -20 -20 -20 -20 -20 -20 -20 -20 -20 -20 -20 -20 -20 -20 -20 -20 -20 -20 -20 -20 -20 -20 -20 -20 -20 -20 -20
-20 -20 -20 -20 -20 -20 -20 -20 13 15 -1 10 9 5 6 -20 -20 -20 -20 -20 -20 -20 -20 -20 -20 -20 -20 -20 -20 -20 -20 -20 -20 -20 -20 -20 -20 -20 -20 -20 -20 -20 -20
-20 -20 -20 -20 -20 -20 -20 -18 1 15 10 1 17 7 -6 -20 -20 -20 -20 -20 -20 -20 -20 -20 -20 -20 -20 -20 -20 -20 -20 -20 -20 -20 -20 -20 -20 -20 -20 -20 -20 -20 -20
-20 -20 -20 -20 -20 -11 -20 -20 -6 4 12 2 -6 -12 -20 -20 -20 -20 -20 -20 -20 -20 -20 -20 -20 -20 -20 -20 -20 -20 -20 -20 -20 -20 -20 -20 -20 -20 -20 -20 -20 -20 -20
-20 -20 -20 -20 -20 23 -20 0 -20 1 -12 -13 -15 -20 -20 -20 -20 -20 -20 -20 -20 -20 -20 -20 -20 -20 -20 -20 -20 -20 -20 -20 -20 -20 -20 -20 -20 -20 -20 -20 -20 -20 -20
-20 -20 -20 -20 -20 27 -16 -14 -20 -20 -20 -20 -20 -20 -20 -20 -20 -20 -20 -20 -20 -20 -20 -20 -20 -20 -20 -20 -20 -20 -20 -20 -20 -20 -20 -20 -20 -20 -20 -20 -20 -20 -20
-20 -20 -20 -20 -20 -19 -17 -3 -10 -20 -20 -20 -20 -20 -20 -20 -20 -20 -20 -20 -20 -20 -20 -20 -20 -20 -20 -20 -20 -20 -20 -20 -20 -20 -20 -20 -20 -20 -20 -20 -20 -20 -20
-20 -20 -20 -20 -20 0 3 -19 -19 -20 -20 -20 -20 -20 -20 -20 -20 -20 -20 -20 -20 -20 -20 -20 -20 -20 -20 -20 -20 -20 -20 -20 -20 -20 -20 -20 -20 -20 -20 -20 -20 -20 -20

GFSSE_prec_radar_003.txt.gz
Reflectivity
-20 -20 -20 17 7 -2 -20 -20 -20 -20 -20 -20 -20 4 -2 19 14 1 -20 -20 -20 -20 -20 -20 -20 -19 21 18 -7 14 4 -17 -20 -20 -20 -20 -20 -20 -20 6 -12 -20 -13
-20 -20 -20 4 -5 -12 -20 -20 -20 -20 -20 -20 15 15 14 10 16 17 -17 -17 -20 -20 -20 -20 -20 -20 -20 7 5 8 -4 1 -20 -20 -20 -20 -20 -20 -19 -17 14 -20 -18
-20 -20 -16 13 9 -12 -20 -20 -20 -20 -20 -20 14 -10 -20 -20 -20 14 -7 -20 -20 -20 -20 -20 -20 -20 -20 -20 -20 -20 -20 -20 -20 -20 -20 -20 -20 -20 -20 -20 12 -20 -20
-20 -20 -16 17 7 -15 -0 -12 -20 -20 -20 -20 -20 -20 -20 -1 18 17 -1 -20 -20 -20 -20 -20 -20 -20 -20 -20 -20 -20 -20 -20 -20 -20 -20 -20 -20 -20 -20 -14 -20 -7 -15
-20 -20 5 -7 13 -13 -1 4 -20 -20 -20 -20 -20 6 10 -1 4 -20 -20 -20 -20 -20 -20 -20 -20 -20 -20 -20 -4 3 6 -20 -20 -20 -20 -20 -20 -20 -20 -20 -20 7 -17
-6 -19 13 19 -1 -20 10 2 2 -17 -20 -20 -20 -20 -14 14 15 14 -20 -20 -20 -20 -20 -20 -20 -20 -20 -20 -20 -4 12 9 -20 -20 -20 -20 -20 -20 -20 -20 -20 -20 -20
-20 -20 2 19 15 -16 17 13 11 4 -2 -20 -20 -20 -6 10 13 22 -15 -20 -20 -20 -20 -20 -1 3 3 -2 -3 -3 -20 -20 -20 -20 -20 -20 -20 -20 -20 -16 -20 -20 -20
-20 -20 0 13 -11 17 17 17 9 -19 -12 -20 -20 -20 -20 8 -12 14 22 -20 -20 -20 -4 -20 -8 1 -16 -8 6 -18 -20 -20 -20 -20 -20 -20 -20 -20 -9 16 13 -6 -20
-20 -20 -18 2 1 -6 17 17 -14 -20 -8 -20 -20 -20 -20 -20 -20 -19 -11 -20 15 3 -20 -20 8 -20 -8 7 12 -6 -20 -20 -20 -20 -20 -20 -20 -20 -2 14 -5 4 -20
-20 -20 -20 6 8 11 -18 12 10 -20 12 -20 -5 -20 -20 -20 -20 -20 -20 -20 -20 -20 -13 -7 7 -15 -20 -20 -20 -20 -20 -20 -20 -20 -20 -20 -20 -20 -20 6 9 -0 6
-17 -20 -16 -19 11 12 15 7 1 -20 7 -20 -20 -20 -20 -20 -20 -20 -20 -20 -20 -20 10 -12 -20 -20 -20 -20 -20 -20 -20 -20 -20 -20 -20 -20 -20 -20 -20 -20 -20 -17 9
-20 -20 -6 -1 -13 12 12 11 10 -20 -20 -20 -20 -20 -20 -20 -20 -20 -20 -20 -20 -20 -20 -20 -20 -20 -20 -20 -20 -20 -20 -20 -20 -20 -20 -20 -20 -20 -20 -20 -20 -20 -20
-20 -20 -20 4 7 8 -19 9 9 -20 -20 -20 -20 -20 -20 -20 -20 -20 -20 -20 -20 -20 -20 -20 -20 -20 -20 -20 -20 -20 -20 -20 -20 -20 -20 -20 -20 -20 -20 -20 -20 5 -20
-20 -20 -20 6 -13 -10 -20 -20 -20 -20 -20 -20 -20 -20 -20 -20 -20 -20 -20 -20 -20 -20 -20 -20 -20 -20 -20 -20 -20 -20 -20 -20 -20 -20 -20 -20 -20 -20 -20 -20 -20 -20 -20
-20 -20 -20 -20 -20 -16 -20 -20 -20 -20 -20 -20 -20 -20 -20 -20 -20 -20 -20 -20 -20 -20 -20 -20 -20 -20 -20 -20 -20 -20 -20 -20 -20 -20 -20 -20 -20 -20 -20 -20 -20 -20 -20
-20 -20 -20 -20 -20 -20 -20 -20 -20 -20 -20 -20 -20 -20 -20 -20 -11 1 11 -8 -20 -20 -20 -20 -20 -20 -20 -20 -20 -20 -20 -20 -20 -20 -20 -20 -20 -20 -20 -20 -20 -20 -20
-20 -20 -20 -20 -20 -20 -20 -20 10 -20 -20 -20 -20 -20 -20 -9 9 2 -20 -20 -20 -20 -20 -20 -20 -20 -20 -20 -20 -20 -20 -20 -20 -20 -20 -20 -20 -20 -20 -20 -20 -20 -20
-20 -20 -20 -20 -20 -20 -20 -13 -4 -20 -20 -7 0 -5 1 5 -3 -5 -20 -20 -20 -20 -20 -20 -20 -20 -20 -20 -20 -20 -20 -20 -20 -20 -20 -20 -20 -20 -20 -20 -20 -20 -20
-20 -20 -20 -20 -20 -20 -20 -20 -5 -20 -15 -0 -15 6 -13 3 -19 -20 -20 -20 -20 -20 -20 -20 -20 -20 -20 -20 -20 -20 -20 -20 -20 -20 -20 -20 -20 -20 -20 -20 -20 -20 -20
-20 -20 -20 -20 -20 -20 -20 -20 -9 -12 -14 -19 -6 13 -17 -0 -20 -20 -20 -20 -20 -20 -20 -20 -20 -20 -20 -20 -20 -20 -20 -20 -20 -20 -20 -20 -20 -20 -20 -20 -20 -20 -20
-20 -20 -20 -20 -20 -20 -20 -20 -20 -19 14 9 13 11 -7 -4 -20 -20 -20 -20 -20 -20 -20 -20 -20 -20 -20 -20 -20 -20 -20 -20 -20 -20 -20 -20 -20 -20 -20 -20 -20 -20 -20
-20 -20 -20 -20 -20 -20 -8 2 -20 -20 7 4 14 13 2 -18 -20 -20 -20 -20 -20 -20 -20 -20 -20 -20 -20 -20 -20 -20 -20 -20 -20 -20 -20 -20 -20 -20 -20 -20 -20 -20 -20
-20 -20 -20 -18 -20 -20 3 -4 13 -16 5 3 10 7 -14 -20 -20 -20 -20 -20 -20 -20 -20 -20 -20 -20 -20 -20 -20 -20 -20 -20 -20 -20 -20 -20 -20 -20 -20 -20 -20 -20 -20
-20 -20 -2 -20 -20 -20 -19 5 -20 -20 -20 -20 4 -6 -20 -20 -20 -20 -20 -20 -20 -20 -20 -20 -20 -20 -20 -20 -20 -20 -20 -20 -20 -20 -20 -20 -20 -20 -20 -20 -20 -20 -20
-20 -20 -20 -20 -20 16 -17 -20 -20 1 -20 -20 -5 -20 -20 -20 -20 -20 -20 -20 -20 -20 -20 -20 -20 -20 -20 -20 -20 -20 -20 -20 -20 -20 -20 -20 -20 -20 -20 -20 -20 -20 -20
-20 -20 -20 -20 -20 -20 -20 -20 -19 -13 -20 -20 -20 -20 -20 -20 -20 -20 -20 -20 -20 -20 -20 -20 -20 -20 -20 -20 -20 -20 -20 -20 -20 -20 -20 -20 -20 -20 -20 -20 -20 -20 -20

GFSSE_prec_radar_006.txt.gz
Reflectivity
-20 -20 10 6 -16 -20 -20 -20 -20 -20 -20 -20 -20 -20 -20 -20 -20 -20 -20 -20 -20 -20 -20 -20 -20 -14 -11 20 19 -20 -20 -15 -20 -20 -20 -20 -20 -20 -20 -20 5 -20 -20
-20 -20 7 15 4 -20 -20 -20 -20 -20 -20 -20 11 11 -19 6 7 16 13 -20 -20 -20 -20 -20 -20 -20 2 -5 -11 12 14 -3 -20 -20 -20 -20 -20 -20 -20 -3 -20 -3 -20
-20 -20 -20 14 7 -15 -20 -20 -20 -20 -20 -20 -2 -20 -20 -20 -20 -20 -20 -20 -20 -20 -20 -20 -20 -20 -20 -20 -20 -20 -20 -20 -20 -20 -20 -20 -20 -20 -20 -20 -19 -20 -20
-20 -20 -10 -18 13 4 -19 -20 -20 -12 -20 -20 -20 -20 -20 -20 -2 14 -20 -20 -20 -20 -20 -20 -20 -20 -13 -20 -20 -20 -20 -20 -20 -20 -20 -20 -20 -20 -20 -20 -20 -12 -20
-20 -20 -20 6 12 1 -15 -4 -20 -20 -20 -20 -20 -20 -20 -20 -20 -20 -20 -20 -20 -20 -20 -20 -20 -20 -20 -20 -20 6 11 -10 -20 -20 -20 -20 -20 -20 -20 -20 -20 2 7
-20 -20 -19 -15 2 5 12 10 -2 -20 -20 -20 -20 -20 -20 9 1 -20 -20 -20 -20 -20 -20 -20 -20 -20 -2 -14 -4 -20 -20 1 -20 -20 -20 -20 -20 -20 -20 -20 -20 -20 -20
-20 -20 -1 5 -6 11 16 13 15 -11 -20 -20 -20 -20 -20 -20 -20 23 2 -20 -20 -20 -20 -20 2 10 -0 -20 -15 1 -20 -20 -20 -20 -20 -20 -20 -20 -20 4 -8 -20 -20
-20 2 1 3 10 -7 16 15 13 -19 -20 -20 -20 -20 -20 -20 -13 -20 -20 -20 -20 -20 -16 -20 -7 -20 -20 7 -3 -20 -20 -20 -20 -20 -20 -20 -20 -20 -10 10 9 -1 -20
-20 -20 -20 -20 -18 17 15 13 6 -20 -20 -20 -20 -20 -3 -20 -20 -20 -12 4 4 -20 -20 -20 -2 18 1 -20 -20 -20 -20 -20 -20 -20 -20 -20 -20 -20 -13 6 15 14 25
-20 -20 -20 -20 -20 5 -17 14 -8 -20 -20 -20 -20 -20 -20 -20 -20 -20 -20 -7 -20 -20 -11 -1 -18 -20 -20 -20 -20 -20 -20 -20 -20 -20 -20 -20 -20 -20 -20 -8 -20 -20 -17
-20 -20 -20 -20 -20 10 13 -6 2 -20 -11 -20 -20 -20 -20 -20 -20 -20 -20 -20 -20 -20 -20 -20 -20 -20 -20 -20 -20 -20 -20 -20 -20 -20 -20 -20 -20 -20 -20 -20 -20 -20 -20
-20 -20 -20 -20 -6 6 12 -10 6 -20 3 -6 -20 -20 -20 -20 -20 -20 -20 -20 -20 -20 -20 -20 -20 -20 -20 -20 -20 -20 -20 -20 -20 -20 -20 -20 -20 -20 -20 -20 -20 -20 -20
-20 -20 -20 -4 1 2 9 7 -7 -18 -20 1 -20 -20 -20 -20 -20 -20 -20 -20 2 -20 -20 -20 -20 -20 -20 -20 -20 -20 -20 -20 -20 -20 -20 -20 -20 -20 -20 -20 -20 -20 -20
-20 -20 -20 -20 -20 -20 4 3 -1 -18 -20 -5 -15 -20 -20 -20 -20 -18 0 -20 -20 -20 -20 -20 -20 -20 -20 -20 -20 -20 -20 -20 -20 -20 -20 -20 -20 -20 -20 -20 -20 -20 -20
-20 -20 -20 -20 -7 -20 -1 0 -7 -18 -20 -12 -20 -20 -20 -20 -13 -20 -20 -20 -20 -20 -20 -20 -20 -20 -20 -20 -20 -20 -20 -20 -20 -20 -20 -20 -20 -20 -20 -20 -20 -20 -20
-20 -20 -20 -20 -20 -3 -19 -7 -14 -20 -11 2 -20 -20 -18 -1 -18 -20 -20 -20 -20 -20 -20 -20 -20 -20 -20 -20 -20 -20 -20 -20 -20 -20 -20 -20 -20 -20 -20 -20 -20 -20 -20
-20 -20 -20 -20 -20 -20 -10 -11 -20 -20 -19 -1 -20 -19 5 -20 -20 -20 -20 -20 -20 -20 -20 -20 -20 -20 -20 -20 -20 -20 -20 -20 -20 -20 -20 -20 -20 -20 -20 -20 -20 -20 -20
-20 -20 -20 -20 -20 -13 -4 -3 -13 -20 -3 -20 -1 -19 -20 -20 -20 -20 -20 -20 -20 -20 -20 -20 -20 -20 -20 -20 -20 -20 -20 -20 -20 -20 -20 -20 -20 -20 -20 -20 -20 -20 -20
-20 -20 -20 -20 -20 -20 -1 -5 -16 -12 -20 -20 -20 -20 -20 -20 -3 -20 -20 -20 -20 -20 -20 -20 -20 -20 -20 -20 -20 -20 -20 -20 -20 -20 -20 -20 -20 -20 -20 -20 -20 -20 -20
-20 -20 -20 -20 -20 -20 -19 12 -18 -20 -20 -20 -20 -20 -20 -20 -14 -20 -20 -20 -20 -20 -20 -20 -20 -20 -20 -20 -20 -20 -20 -20 -20 -20 -20 -20 -20 -20 -20 -20 -20 -20 -20
-20 -20 -20 -20 -20 -20 -19 -20 -20 -20 -20 -20 -20 -20 -20 -5 -20 -20 -20 -20 -20 -20 -20 -20 -20 -20 -20 -20 -20 -20 -20 -20 -20 -20 -20 -20 -20 -20 -20 -20 -20 -20 -20
-20 -20 -20 -20 -20 -20 -20 10 -20 21 -20 -20 -20 -8 -19 -7 -11 -20 -20 -20 -20 -20 -20 -20 -20 -20 -20 -20 -20 -20 -20 -20 -20 -20 -20 -20 -20 -20 -20 -20 -20 -20 -20
-20 -20 -20 -20 -20 -20 -20 -20 -12 -20 -20 -20 -20 -11 3 8 -20 -20 -20 -20 -20 -20 -20 -20 -20 -20 -20 -20 -20 -20 -20 -20 -20 -20 -20 -20 -20 -20 -20 -20 -20 -20 -20
-20 -20 -20 -20 -20 -20 -20 -20 -20 -20 -20 3 -17 4 5 -1 -20 -20 -20 -20 -20 -20 -20 -20 -20 -20 -20 -20 -20 -20 -20 -20 -20 -20 -20 -20 -20 -20 -20 -20 -20 -20 -20
-20 -20 -20 -20 -20 -20 -20 -20 -20 20 -20 -20 -5 12 -5 -9 -20 -20 -20 -20 -20 -20 -20 -20 -20 -20 -20 -20 -20 -20 -20 -20 -20 -20 -20 -20 -20 -20 -20 -20 -20 -20 -20
-20 -20 -20 -20 -20 -20 -20 -20 -20 -20 -20 -20 -15 -18 -9 -20 -20 -20 -20 -20 -20 -20 -20 -20 -20 -20 -20 -20 -20 -20 -20 -20 -20 -20 -20 -20 -20 -20 -20 -20 -20 -20 -20

GFSSE_prec_radar_009.txt.gz
Reflectivity
-20 -20 -20 1 -7 -20 -20 -20 -20 -20 -20 -20 -9 -19 -20 -20 -20 -20 -20 -20 -20 -20 -20 -20 -20 -20 16 19 20 12 -1 -20 -20 -20 -20 -20 -20 -20 -20 -20 3 -8 -5
-20 -20 -20 -15 -20 -20 -20 -20 -20 -20 -20 -20 3 -17 13 12 9 -1 -20 -20 -20 -20 -20 -20 -20 -20 6 8 -18 -20 9 -15 -20 -20 -20 -20 -20 -20 -20 -20 -20 7 5
-20 -20 -20 -20 11 -20 -20 -20 -20 -20 -20 -8 -20 -20 -20 -20 -20 -20 -20 -20 -20 -20 -20 -20 -20 -20 -20 -20 -20 -20 -20 -20 -20 -20 -20 -20 -20 -20 -20 -20 -20 -20 -20
-20 -20 -20 -0 9 -18 -20 -20 -20 -20 -20 -20 -20 -20 -20 -20 -20 -20 -20 -20 -20 -20 -20 -20 -20 -20 -20 -20 -20 -20 -20 -20 -20 -20 -20 -20 -20 -20 -20 -20 -20 -14 -20
-20 -20 -20 -20 -5 -20 -20 -20 -20 -20 -20 -20 -20 -20 -20 -20 -8 -20 -20 -20 -20 -20 -20 -20 -20 -20 -20 -20 -20 -20 -7 -4 -20 -20 -20 -20 -20 -20 -20 -20 -20 -20 -18
-20 -20 -20 6 8 6 14 -20 -20 -20 -20 -20 -20 -20 -20 -20 -20 -20 -20 -20 -20 -20 -20 -20 -20 -20 -13 -20 -20 -20 -20 -20 -20 -20 -20 -20 -20 -20 -20 -20 -20 -20 -20
-20 -20 -20 -8 10 11 15 9 -14 -20 -20 -20 -20 -20 -20 -20 11 -11 -20 -20 -20 -20 -20 -20 -14 13 -20 -15 7 -20 -20 -20 -20 -20 -20 -20 -20 -20 -20 -20 14 -17 -20
-20 -20 -20 -5 -3 0 8 14 12 -20 -20 -20 -20 -20 -9 -20 -20 -20 10 -20 -20 -20 -20 -20 -20 -18 11 -12 -18 -20 -20 -20 -20 -20 -20 -20 -20 -20 -20 9 -6 -15 -20
-20 -20 -14 -5 5 0 -12 11 15 -20 -20 -20 -20 -20 -16 -20 -20 -20 -15 4 4 -20 -20 -4 -5 -20 -20 -20 -20 -20 -20 -20 -20 -20 -20 -20 -20 -20 -14 1 2 -8 -11
-20 -20 -20 -20 6 -20 -20 5 5 -20 -20 -20 -20 -20 -20 -20 -20 -20 -20 10 -20 -20 -20 -20 -20 -20 -20 -20 -20 -20 -20 -20 -20 -20 -20 -20 -20 -20 -20 -20 -20 -20 -20
-20 -20 -20 -20 -20 5 -20 -16 4 -20 -20 -20 -20 -20 -20 -20 -20 -20 -20 -20 -20 -20 -20 -20 -20 -20 -20 -20 -20 -20 -20 -20 -20 -20 -20 -20 -20 -20 -20 -20 -20 -20 -20
-20 -20 -20 -20 -20 -20 6 -20 -20 -20 1 -20 -20 -20 -20 -20 -20 -20 -20 -20 -20 -20 -20 -20 -20 -20 -20 -20 -20 -20 -20 -20 -20 -20 -20 -20 -20 -20 -20 -20 -20 -20 -20
-20 -20 -20 -20 -20 -20 -18 -20 -20 -20 -16 -20 -20 -20 -20 -20 -20 -20 -20 -20 -20 -20 -20 -20 -20 -20 -20 -20 -20 -20 -20 -20 -20 -20 -20 -20 -20 -20 -4 -20 -20 -20 -20
-20 -20 -20 -20 -20 -20 -20 -20 -20 -20 -20 -17 -20 -20 -20 -20 -20 -20 -20 -20 -20 -20 -20 -20 -20 -20 -20 -20 -20 -20 -20 -20 -20 -20 -20 -20 -20 -20 -20 -20 -20 -20 -20
-20 -20 -20 -20 -20 -20 -20 10 -20 -20 -20 -20 -20 -20 -20 -20 -20 -20 -20 -20 -20 -20 -20 -20 -20 -20 -20 -20 -20 -20 -20 -20 -20 -20 -20 -20 -20 -20 -20 -20 -20 -20 -20
-20 -20 -20 -20 -20 2 -19 -16 -20 -20 -20 -20 -20 -20 -20 -20 -20 -20 -20 -20 -20 -20 -20 -20 -20 -20 -20 -20 -20 -20 -20 -20 -20 -20 -20 -20 -20 -20 -20 -20 -20 -20 -20
-20 -20 -20 -20 -20 -20 -17 -18 -13 -20 -20 -19 1 -20 -20 -20 -20 -20 -20 -20 -20 -20 -20 -20 -20 -20 -20 -20 -20 -20 -20 -20 -20 -20 -20 -20 -20 -20 -20 -20 -20 -20 -20
-20 -20 -20 -20 -20 -20 -20 -1 -20 -6 -20 -13 11 -19 4 -20 -20 -20 -20 -20 -20 -20 -20 -20 -20 -20 -20 -20 -20 -20 -20 -20 -20 -20 -20 -20 -20 -20 -20 -20 -20 -20 -20
-20 -20 -20 -20 -20 -20 -16 7 15 -18 3 -16 -8 9 -20 -20 -20 -20 -20 -20 -20 -20 -20 -20 -20 -20 -20 -20 -20 -20 -20 -20 -20 -20 -20 -20 -20 -20 -20 -20 -20 -20 -20
-20 -20 -20 -20 -20 -20 -20 9 -1 2 19 -4 -20 -20 -20 -20 -20 -20 -20 -20 -20 -20 -20 -20 -20 -20 -20 -20 -20 -20 -20 -20 -20 -20 -20 -20 -20 -20 -20 -20 -20 -20 -20
-20 -20 -20 -20 -20 -20 -20 -14 5 -19 24 -20 -20 -20 -20 -20 -20 -20 -20 -20 -20 -20 -20 -20 -20 -20 -20 -20 -20 -20 -20 -20 -20 -20 -20 -20 -20 -20 -20 -20 -20 -20 -20
-20 -20 -20 -20 -20 -20 -20 -20 -20 -20 -20 -6 -20 -20 -20 -8 -15 -20 -20 -20 -20 -20 -20 -20 -20 -20 -20 -20 -20 -20 -20 -20 -20 -20 -20 -20 -20 -20 -20 -20 -20 -20 -20
-20 -20 -20 -20 -20 -20 -20 -20 -5 -19 -20 -7 -20 -20 -20 -12 -20 -20 -20 -20 -20 -20 -20 -20 -20 -20 -20 -20 -20 -20 -20 -20 -20 -20 -20 -20 -20 -20 -20 -20 -20 -20 -20
-20 -20 -20 -20 -20 -20 -20 -20 -20 -20 -20 -20 -20 -20 -14 -20 -3 0 -20 -20 -20 -20 -20 -20 -20 -20 -20 -20 -20 -20 -20 -20 -20 -20 -20 -20 -20 -20 -20 -20 -20 -20 -20
-20 -20 -20 -20 -20 -20 -20 -20 -20 -20 -20 -20 -20 -20 -12 -20 -1 5 -20 -20 -20 -20 -20 -20 -20 -20 -20 -20 -20 -20 -20 -20 -20 -20 -20 -20 -20 -20 -20 -20 -20 -20 -20
-20 -20 -20 -20 -20 -20 -20 -20 -20 -20 -20 -20 -20 -20 -20 -20 5 -9 -20 -20 -20 -20 -20 -20 -20 -20 -20 -20 -20 -20 -20 -20 -20 -20 -20 -20 -20 -20 -20 -20 -20 -20 -20

GFSSE_prec_radar_012.txt.gz
Reflectivity
-20 -20 -20 -20 -20 -20 -20 -20 -20 -20 -20 -20 2 6 -11 -20 -20 -20 -20 -20 -20 -20 -20 -20 -20 -1 4 19 20 15 14 -19 -20 -20 -20 -20 -20 -20 -20 -20 5 6 17
-20 -20 -20 -20 -20 -20 -20 -20 -20 -20 -20 -16 -7 9 8 -2 -3 -18 -20 -20 -20 -20 -20 -20 -20 -20 8 8 -1 -18 -19 -20 -20 -20 -20 -20 -20 -20 -20 -20 -20 -14 8
-20 -20 -20 -20 -20 -20 -20 -20 -20 -20 9 -20 -20 -20 -20 -20 -20 -20 -20 -20 -20 -20 -20 -20 -20 -20 -20 -20 -20 -20 -20 -20 -20 -20 -20 -20 -20 -20 -20 -20 -20 -20 -20
-20 -20 -20 -20 -20 -20 -20 -20 -20 -20 -20 -20 -20 -20 -20 -20 -20 -20 -20 -20 -20 -20 -20 -20 -20 -20 -20 -20 -20 -20 -20 -20 -20 -20 -20 -20 -20 -20 -20 -20 -20 -20 -17
-20 -20 -20 -20 -0 -20 -20 -20 -20 -20 -20 -20 -20 -20 -20 -20 -20 -20 -20 -20 -20 -20 -20 -20 -20 -20 -20 -20 -20 -20 -20 -20 -20 -20 -20 -20 -20 -20 -20 -20 -20 -20 -20
-20 -20 -20 -20 11 10 -20 -20 -20 -20 -20 -20 -20 -20 -20 -20 -20 -20 -20 -20 -20 -20 -20 -20 -5 -20 -20 -20 -20 -20 -20 -20 -20 -20 -20 -20 -20 -20 -20 -20 -20 -20 -20
-20 -20 -20 -20 -3 7 -20 -20 -20 -20 -20 -20 -20 -20 -20 -20 -20 -20 -20 -20 -20 -20 -20 -20 -1 -20 -20 -11 -20 -20 -20 -20 -20 -20 -15 -20 -20 -20 -20 -16 3 -13 -20
-20 -20 -20 -20 -19 9 -20 -20 -20 -20 -20 -20 -20 -20 -20 -20 -20 -20 -20 -20 -20 -20 -20 -9 -20 -18 -20 -20 -20 -20 -20 -20 -20 -20 -20 -20 -20 -20 -20 13 6 13 17
-20 -20 -20 -20 -20 -1 -20 -20 -20 -20 -20 -20 -20 -20 -20 -20 -20 -7 -20 -20 6 -20 -16 -20 -20 -20 -20 -20 -20 -20 -20 -20 -20 -20 -20 -20 -20 -20 -20 -17 -20 -20 -19
-20 -20 -20 -20 -20 -20 -20 -20 -20 -20 -20 -20 -20 -20 -20 -20 -20 12 -20 -20 -20 -20 -20 -20 -20 -20 -20 -20 -20 -20 -20 -20 -20 -20 -20 -20 -20 -20 -20 -20 -20 -20 -20
-20 -7 -20 -20 -20 -14 -20 -20 -20 -20 -20 -20 -20 -20 -20 -20 -20 -20 -20 -20 -20 -20 -20 -20 -20 -20 -20 -20 -20 -20 -20 -20 -20 -20 -20 -20 -20 -20 -20 -20 -17 -20 -12
-20 -20 -10 -20 -5 -20 -6 -20 -20 -20 -20 -20 -20 -20 -20 -20 -20 -20 -20 -20 -20 -20 -20 -20 -20 -20 -20 -20 -20 -20 -20 -20 -20 -20 -20 -20 -20 -20 -11 -20 -20 -9 -14
-20 -20 -12 -20 -20 -20 -17 -20 -20 -20 -20 -20 -20 -20 -20 -20 -20 -20 -20 -20 -20 -20 -20 -20 -20 -20 -20 -20 -20 -20 -20 -20 -20 -20 -20 -20 -20 -15 9 -19 -18 -20 -20
-20 -20 -20 -20 -11 -20 5 4 -20 -20 -20 -20 -20 -20 -20 -20 -20 -20 -20 -18 -20 -20 -20 -20 -20 -20 -20 -20 -20 -20 -20 -20 -20 -20 -20 -20 -20 -20 -20 -20 -20 -20 -20
-20 -20 -20 -20 -20 -20 -20 3 -14 -18 -20 -20 -20 -20 -20 -20 -20 -20 -20 -20 -20 -20 -20 -20 -20 -20 -20 -20 -20 -20 -20 -20 -20 -20 -20 -20 -20 -20 -20 -20 -20 -20 -20
-20 -20 -20 -20 -20 -20 -2 -19 -8 -20 -20 -20 -20 -20 -20 -20 -20 -20 -20 -20 -20 -20 -20 -20 -20 -20 -20 -20 -20 -20 -20 -20 -20 -20 -20 -20 -20 -20 -20 -20 -20 -20 -20
-20 -20 -20 -20 -20 -20 -20 -18 -20 -14 -20 -20 -14 2 -20 -20 -20 -20 -20 -20 -20 -20 -20 -20 -20 -20 -20 -20 -20 -20 -20 -20 -20 -20 -20 -20 -20 -20 -20 -20 -20 -20 -20
-20 -20 -20 -20 -20 -20 -19 -15 -15 -20 -14 -20 -20 -17 -20 -20 -20 -20 -20 -20 -20 -20 -20 -20 -20 -20 -20 -20 -20 -20 -20 -20 -20 -20 -20 -20 -20 -20 -20 -20 -20 -20 -20
-20 -20 -20 -20 -20 -20 -20 -20 3 -6 -20 -20 -20 11 -20 -20 -20 -20 -20 -20 -20 -20 -20 -20 -20 -20 -20 -20 -20 -20 -20 -20 -20 -20 -20 -20 -20 -20 -20 -20 -20 -20 -20
-20 -20 -20 -20 -20 -20 -7 -20 4 -5 2 -20 -20 -20 -20 -20 -20 -20 -20 -20 -20 -20 -20 -20 -20 -20 -20 -20 -20 -20 -20 -20 -20 -20 -20 -20 -20 -20 -20 -20 -20 -20 -20
-20 -20 -20 -20 -20 -20 -20 -20 -7 -1 -20 -20 -20 -20 -20 -20 -20 -20 -20 -20 -20 -20 -20 -20 -20 -20 -20 -20 -20 -20 -20 -20 -20 -20 -20 -20 -20 -20 -20 -20 -20 -20 -20
-20 -20 -20 -20 -20 -20 -20 -20 2 -10 -20 -20 1 -20 -20 -20 -20 -20 -20 -20 -20 -20 -20 -20 -20 -20 -20 -20 -20 -20 -20 -20 -20 -20 -20 -20 -20 -20 -20 -20 -20 -20 -20
-20 -20 -20 -20 -20 -20 5 -3 -17 -20 -20 -20 2 -20 -20 -20 -20 -20 -20 -20 -20 -20 -20 -20 -20 -20 -20 -20 -20 -20 -20 -20 -20 -20 -20 -20 -20 -20 -20 -20 -20 -20 -20
-20 -20 -20 -20 -20 -20 -20 -20 -20 16 -14 -20 -14 25 -20 -20 -20 -20 -20 -20 -20 -20 -20 -20 -20 -20 -20 -20 -20 -20 -20 -20 -20 -20 -20 -20 -20 -20 -20 -20 -20 -20 -20
-20 -20 -20 -20 -20 6 -18 -20 -20 -20 -20 -20 -8 -18 -20 -20 -15 -20 -20 -20 -20 -20 -20 -20 -20 -20 -20 -20 -20 -20 -20 -20 -20 -20 -20 -20 -20 -20 -20 -20 -20 -20 -20
-20 -20 -20 -20 -20 9 17 -20 -20 -20 -20 -20 -20 -17 -20 -1 -20 11 -20 -11 -19 -20 -20 -20 -20 -20 -20 -20 -20 -20 -20 -20 -20 -20 -20 -20 -20 -20 -20 -20 -20 -20 -20

GFSSE_prec_radar_015.txt.gz
Reflectivity
-20 -20 2 -7 -20 -20 -20 -20 -20 -20 -20 -6 6 2 2 -20 -20 -20 -20 -20 -20 -20 -20 -20 -17 -3 11 10 14 -5 -20 -20 -20 -20 -20 -20 -20 -20 -20 -20 -8 -0 13
-20 -20 -1 -20 -20 -20 -20 -20 -20 -20 -20 -20 -8 1 -20 2 -18 -20 -20 -20 -20 -20 -20 -20 -20 -20 -8 5 -18 -20 -20 -20 -20 -20 -20 -20 -20 -20 -20 -20 -20 -20 -20
-20 -20 -20 -20 -20 -20 -20 -20 -20 -20 -20 -10 14 15 15 -20 -20 -20 -20 -20 -20 -20 -20 -20 -20 -20 -20 -20 -20 -20 -20 -20 -20 -20 -20 -20 -20 -20 -20 -20 -20 -20 -20
-20 -20 -20 -20 -20 -20 -20 -20 -20 -19 -20 -20 -20 -20 -20 -20 -20 -20 -20 -20 -20 -20 -20 -20 -20 -20 -20 -20 -20 -20 -20 -20 -20 -20 -20 -20 -20 -20 -20 -20 -20 -20 -20
-20 -20 -20 -20 -20 -20 -20 -20 -20 -20 -20 -20 -20 -20 -18 -20 -20 -20 -20 -20 -20 -20 -20 -20 -20 -20 -20 -20 -20 -20 -20 -20 -20 -20 -20 -20 -20 -20 -20 -20 -20 -20 -20
-20 -20 -20 -20 -20 -20 -20 -20 -20 -20 -20 -20 -20 -20 5 -20 -20 -20 -20 -20 -20 -20 -20 -20 -20 -20 -20 -20 -20 -20 -20 -20 -20 -20 -20 -20 -20 -20 -20 -20 -20 -20 -20
-20 -20 -20 -15 -3 -20 -20 -20 -20 -20 -20 -20 -20 -20 -20 -20 -20 -20 -20 -20 -20 -20 -20 -2 -20 -20 -20 -20 -20 -20 -20 -20 -20 -20 -20 -20 -20 -20 -20 -18 8 14 -5
-20 -20 -20 -20 -20 -20 -20 -20 -20 -20 -20 -20 -20 -20 -20 -20 -20 -20 -20 -20 -20 -20 -20 -20 -20 -20 -20 -20 -20 -20 -20 -20 -20 -20 -20 -20 -20 -20 -20 -19 -5 -14 6
-20 -20 20 -20 -20 -8 -20 -20 -20 -20 -20 -20 -20 -20 -20 -20 -20 -20 -20 -20 -20 -20 -20 -20 -20 -20 -20 -20 -20 -20 -20 -20 -20 -20 -20 -20 -20 -20 -20 -20 -20 -20 -20
-20 -20 -20 -20 -20 -20 -20 -20 -20 -20 -20 -20 -20 -20 -20 -20 -19 9 -20 1 -20 -20 -20 -20 -20 -20 -20 -20 -20 -20 -20 -20 -20 -20 -20 -20 -20 -20 -20 -20 -20 -19 3
-20 -20 -20 -20 -20 -20 -20 -20 -20 -20 -20 -20 -20 -20 -20 -20 -20 -20 -20 -20 -20 -20 -20 -20 -20 -20 -20 -20 -20 -20 -20 -20 -20 -20 -20 -20 -20 -20 -0 -5 4 7 9
-20 -20 -20 -20 -20 -20 -20 -20 -20 -20 -20 -20 -20 -20 -20 -20 -20 -20 -20 -20 -20 -20 -20 -20 -20 -20 -20 -20 -20 -20 -20 -20 -20 -20 -20 -20 -20 8 5 10 -16 -18 11
-20 -20 -20 -19 -20 -20 -20 -20 -20 -20 -20 -20 -20 -20 -20 -20 -20 -20 -20 -20 -20 -20 -20 -20 -20 -20 -20 -20 -20 -20 -20 -20 -20 -20 -20 -20 -20 -20 16 14 -17 -10 -20
-20 -20 -20 -14 -1 -20 -20 -20 -20 -20 -20 -20 -20 -20 -20 -20 -20 -20 -20 -20 -20 -20 -20 -20 -20 -20 -20 -20 -20 -20 -20 -20 -20 -20 -20 -20 -20 -20 -20 -20 -20 -20 -20
-20 -20 -20 -20 -20 -20 -20 -20 -20 -20 -20 -20 -20 -20 -20 -20 -20 -20 -20 -16 -20 -20 -20 -20 -20 -20 -20 -20 -20 -20 -20 -20 -20 -20 -20 -20 -20 -20 -20 -20 -20 -20 -20
-20 -20 -20 -20 -20 -20 -20 -20 -20 -20 -20 -20 -20 -20 -20 -20 -20 -20 -20 -20 -20 -20 -20 -20 -20 -20 -20 -20 -20 -20 -20 -20 -20 -20 -20 -20 -20 -20 -20 -20 -20 -20 -20
-20 -20 -20 -7 -20 -20 -20 -20 -20 -20 -20 -20 -20 -20 -20 -20 -20 -20 -20 -20 -20 -20 -20 -20 -20 -20 -20 -20 -20 -20 -20 -20 -20 -20 -20 -20 -20 -20 -20 -20 -20 -20 -20
-20 -20 -20 -20 -20 -20 -20 -20 -20 -20 -20 -20 -20 -20 -20 -20 -20 -20 -20 -20 -20 -20 -20 -20 -20 -20 -20 -20 -20 -20 -20 -20 -20 -20 -20 -20 -20 -20 -20 -20 -20 -20 -20
-20 -20 -20 -20 -20 -20 -20 -20 -5 -15 -20 -20 -20 -20 -20 -20 -20 -20 -20 -20 -20 -20 -20 -20 -20 -20 -20 -20 -20 -20 -20 -20 -20 -20 -20 -20 -20 -20 -20 -20 -20 -20 -20
-20 -20 -20 -20 -20 -20 -20 -20 -20 -20 -7 -10 -20 -20 -20 -20 -20 -20 -20 -20 -20 -20 -20 -20 -20 -20 -20 -20 -20 -20 -20 -20 -20 -20 -20 -20 -20 -20 -20 -20 -20 -20 -20
-20 -20 -20 -20 -20 -20 -20 -20 -20 -20 -20 9 15 -18 -20 -20 -20 -20 -20 -20 -20 -20 -20 -20 -20 -20 -20 -20 -20 -20 -20 -20 -20 -20 -20 -20 -20 -20 -20 -20 -20 -20 -20
-20 -20 -20 -20 -20 -20 -20 -20 2 -20 -20 -12 -9 -12 -18 -20 -20 -20 -20 -20 -20 -20 -20 -20 -20 -20 -20 -20 -20 -20 -20 -20 -20 -20 -20 -20 -20 -20 -20 -20 -20 -20 -20
-20 -20 -20 -20 -20 -20 -20 -1 -20 3 -20 -20 -20 -17 -14 -1 -13 -20 -20 -20 -20 -20 -20 -20 -20 -20 -20 -20 -20 -20 -20 -20 -20 -20 -20 -20 -20 -20 -20 -20 -20 -20 -20
-20 -20 -20 -20 -20 -20 20 5 -20 10 -20 -5 -17 -17 -20 1 -13 -20 -20 -20 -5 -20 -20 -20 -20 -20 -20 -20 -20 -20 -20 -20 -20 -20 -20 -20 -20 -20 -20 -20 -20 -20 -20
-20 -20 -20 -20 -20 -20 -20 -20 13 2 -18 19 19 21 -20 2 -17 -20 -20 -20 -3 -20 -20 -20 -20 -20 -20 -20 -20 -20 -20 -20 -20 -20 -20 -20 -20 -20 -20 -20 -20 -20 -20
-20 -20 -20 -20 -20 -20 -20 -20 -12 -20 -20 5 10 -7 -20 13 16 -20 -17 -20 -20 -20 -15 -20 -20 -20 -20 -20 -20 -20 -20 -20 -20 -20 -20 -20 -20 -20 -20 -20 -20 -20 -20

GFSSE_prec_radar_018.txt.gz
Reflectivity
-20 -2 9 -7 -20 -20 -20 -20 -20 -20 -17 5 6 10 12 3 -20 -20 -20 -20 -20 -20 -20 13 12 5 19 14 1 -20 -20 -20 -20 -20 -20 -20 -20 -20 -20 -20 -20 -8 4
-20 1 -20 -9 -20 -20 -20 -20 -20 -20 5 -5 8 6 -9 -20 -20 -20 -20 -20 -20 -20 -20 9 -15 -20 -15 -18 -20 -20 -20 -20 -20 -20 -20 -20 -20 -20 -20 -20 -20 -20 -20
-20 0 -16 -7 -20 -20 -20 -20 -20 -20 -20 -19 -20 -4 10 -20 -20 -20 -20 -20 -20 -20 -4 -14 -20 -20 -20 -20 -20 -20 -20 -20 -20 -20 -20 -20 -20 -20 -20 -20 -20 -20 -20
-20 -20 -4 -20 -20 -20 -20 -20 -20 -20 -20 9 10 8 -20 -20 -20 -20 -20 -20 -20 -20 -20 -20 -20 -20 -20 -20 -20 -20 -20 -20 -20 -20 -20 -20 -20 -20 -20 -20 -20 -20 -20
-20 -20 -20 -20 -20 -20 -20 -20 -20 -20 -20 -20 -20 -17 -20 -20 -20 -20 -20 -20 -20 -20 -20 -20 -20 -20 -20 -20 -20 -20 -20 -20 -20 -20 -20 -20 -20 -20 -20 -20 -20 -20 -20
-20 -20 -20 -20 -20 -20 -20 -9 -20 -20 -20 -20 -20 2 -20 -20 -20 -20 -20 -20 -20 -20 -20 -20 -20 -20 -20 -20 -20 -20 -20 -20 -20 -20 -20 -20 -20 -20 -20 -20 -20 -20 -20
-20 -20 -20 -20 -20 -20 -20 -20 -20 -20 -20 -20 -20 -20 -7 -20 -20 -20 -20 -20 -20 -20 10 -12 -20 -20 -20 -20 -20 -20 -20 -20 -20 -20 -20 -20 -20 -20 -20 -20 2 13 16
-20 -20 -20 -8 -20 -20 -20 -20 -20 -20 -20 -20 -20 -20 -20 -20 -18 -20 -20 -20 -20 -20 2 -8 3 -11 -20 -20 -20 -20 -20 -20 -20 -20 -20 -20 -20 -20 -20 -20 11 -14 3
-20 -20 -20 -20 -20 -20 -20 -20 -20 -20 -20 -20 -6 -1 -20 -20 -17 -20 -20 -14 -20 3 8 -14 -16 -20 -20 -20 -20 -20 -20 -20 -20 -20 -20 -20 -20 -20 -20 -20 -20 -20 -20
-20 -19 -20 -20 -20 -20 -20 -20 -20 -20 -20 -20 -20 -20 -20 -20 4 -20 -20 8 -20 2 -20 -20 -20 -20 -20 -20 -20 -20 -20 -20 -20 -20 -20 -20 -20 -20 -20 -19 -19 10 14
14 17 -20 -20 -20 -20 -20 -20 -20 -20 -20 -20 -20 -20 -20 -20 -5 -20 -20 -20 -20 -20 -20 -20 -20 -20 -20 -20 -20 -20 -20 -20 -20 -20 -20 -20 -20 -5 -15 11 10 -2 11
6 -4 28 -20 -20 -20 -20 -20 -20 -20 -20 -20 -20 -20 -20 -20 -20 -20 -20 -20 -20 -20 -20 -20 -20 -20 -20 -20 -20 -20 -20 -20 -20 -20 -20 -20 4 -9 14 -5 13 0 11
-17 23 -20 -20 1 -20 -20 -20 -20 -20 -20 -20 -20 -20 -20 -20 -20 -20 -20 -20 -20 -20 -20 -20 -20 -20 -20 -20 -20 -20 -20 -20 -20 -20 -20 -20 -20 -13 11 14 -16 -15 -16
-20 -20 -20 -20 -20 -20 -20 -20 -20 -20 -20 -20 -20 -20 -20 -20 -20 -20 -20 -20 -20 -20 -20 -20 -20 -20 -20 -20 -20 -20 -20 -20 -20 -20 -20 -20 -20 -20 -20 -20 -20 -20 -20
-20 -20 -20 -20 -20 -20 -20 -20 -20 -20 -20 -20 -20 -20 -20 -20 -20 -20 -20 -20 -20 -20 -20 -20 -20 -20 -20 -20 -20 -20 -20 -20 -20 -20 -20 -20 -20 -20 -20 -20 -20 -20 -20
-20 -20 26 12 -20 -20 -20 -20 -3 -20 -20 -20 -20 -20 -20 -20 -20 -20 -20 -20 -20 -20 -20 -20 -20 -20 -20 -20 -20 -20 -20 -20 -20 -20 -20 -20 -20 -20 -20 -20 -20 -20 -20
-20 -20 -20 -18 2 -20 -20 -20 -20 -20 -20 -20 -20 -20 -20 -20 -20 -20 -20 -20 -20 -20 -20 -20 -20 -20 -20 -20 -20 -20 -20 -20 -20 -20 -20 -20 -20 -20 -20 -20 -20 -20 -20
-20 -20 -20 -10 -20 -20 -20 -20 -20 -20 -20 -20 -20 -20 -20 -20 -20 -20 -20 -20 -20 -20 -20 -20 -20 -20 -20 -20 -20 -20 -20 -20 -20 -20 -20 -20 -20 -20 -20 -20 -20 -20 -20
-20 -20 -20 -16 -20 -20 -20 -20 -11 -20 -20 -20 -20 -20 -20 -20 -20 -20 -20 -20 -20 -20 -20 -20 -20 -20 -20 -20 -20 -20 -20 -20 -20 -20 -20 -20 -20 -20 -20 -20 -20 -20 -20
-20 -20 -20 -20 -20 16 28 18 27 -20 -20 -20 -20 -20 -20 -20 -20 -20 -20 -20 -20 -20 -20 -20 -20 -20 -20 -20 -20 -20 -20 -20 -20 -20 -20 -20 -20 -20 -20 -20 -20 -20 -20
-20 -20 -20 -20 -20 -20 -20 19 19 -14 -20 -20 -20 -20 -20 -20 -20 -20 -20 -20 -20 -20 -20 -20 -20 -20 -20 -20 -20 -20 -20 -20 -20 -20 -20 -20 -20 -20 -20 -20 -20 -20 -20
-20 -20 -20 -20 -20 -19 -20 -20 24 22 23 -19 -20 -20 1 -1 -20 -20 -20 -20 -20 -20 -20 -20 -20 -20 -20 -20 -20 -20 -20 -20 -20 -20 -20 -20 -20 -20 -20 -20 -20 -20 -20
-20 -20 -20 -20 -20 -20 -20 22 21 20 27 -12 -17 -20 -6 -8 4 3 7 -20 -20 -20 -20 -20 -20 -20 -20 -20 -20 -20 -20 -20 -20 -20 -20 -20 -20 -20 -20 -20 -20 -20 -20
-20 -20 -20 -20 -20 -20 -20 -20 -20 -20 -20 -20 -20 -20 12 -15 5 10 6 -19 -20 -20 -20 -20 -20 -20 -20 -20 -20 -20 -20 -20 -20 -20 -20 -20 -20 -20 -20 -20 -20 -20 -20
-20 -20 -20 -20 -20 -20 -20 -9 -19 13 -20 -5 21 17 19 -17 -20 -20 8 11 -19 -20 -20 -20 -20 -20 -20 -20 -20 -20 -20 -20 -20 -20 -20 -20 -20 -20 -20 -20 -20 -20 -20
-20 -20 -20 -20 -20 -20 -20 6 -20 -20 -20 20 17 14 9 7 6 -20 -8 16 -2 -11 -16 -10 -20 -17 -20 -20 -20 -20 -20 -20 -20 -20 -20 -20 -20 -20 -20 -20 -20 -20 -20

GFSSE_prec_radar_021.txt.gz
Reflectivity
-20 -20 7 2 -5 -20 -20 -18 -8 0 -14 -0 3 3 -6 -20 -20 -20 -20 -20 -20 -20 -20 -8 -14 20 -3 -3 -19 -20 -20 -20 -20 -20 -20 -20 -20 -20 -20 -20 -20 -20 -9
-20 8 -20 5 7 -16 -20 -20 3 -14 -20 5 5 12 0 -20 -20 -20 -20 -20 -20 -20 -1 18 15 2 -4 -20 -20 -20 -20 -20 -20 -20 -20 -20 -20 -20 -20 -20 -20 -20 -20
-20 8 -17 2 3 -20 -20 -20 -20 -15 -15 -16 6 -19 -20 -20 -20 -20 -20 -20 -20 -20 16 16 16 -20 -20 -20 -20 -20 -20 -20 -20 -20 -20 -20 -20 -20 -20 -20 -20 -20 -20
-20 -20 1 4 -20 -20 -20 -20 -20 -6 -8 6 3 10 -20 -20 -20 -20 -20 -20 -20 -19 4 -4 -19 -20 -20 -20 -20 -20 -20 -20 -20 -20 -20 -20 -20 -20 -20 -20 -20 -20 -20
-20 -20 -20 -20 -20 -20 -20 -17 -7 -10 7 11 10 -20 -20 -20 -20 -20 -20 -20 -20 -20 -20 -20 -20 -20 -20 -20 -20 -20 -20 -20 -20 -20 -20 -20 -20 -20 -20 -20 -20 -20 -20
-20 -20 -20 -20 -20 -20 -20 1 -20 0 -19 11 -12 -20 -20 -20 -20 -20 -20 -20 -20 -20 -20 -20 -20 -20 -20 -20 -20 -20 -20 -20 -20 -20 -20 -20 -20 -20 -20 -20 -20 -20 -20
-20 -20 -20 -20 -20 -20 -19 -20 -20 -20 -20 -20 -14 -20 -20 -20 -20 -20 -20 -20 -20 -20 1 -20 -20 -19 -20 -20 -20 -20 -20 -20 -20 -20 -20 -20 -20 -20 -20 -20 -3 4 20
-20 -20 -20 -20 -20 -20 -19 -17 -20 -20 -20 -20 -20 -8 -20 -20 -20 -20 -20 -20 -20 -20 -17 -20 9 -9 -20 -20 -20 -20 -20 -20 -20 -20 -20 -20 -20 -20 -20 -20 -20 -20 -6
-20 -20 -20 -20 -20 -20 -20 -11 -20 -20 -20 -20 -20 5 -20 -13 -20 -20 -20 -20 -20 7 7 14 2 -20 -20 -20 -20 -20 -20 -20 -20 -20 -20 -20 -20 -20 -20 -20 -20 -20 -20
-20 -20 -20 -20 -20 -20 -20 -20 -20 -20 1 -3 -12 -19 -20 -20 6 -20 -20 -14 -20 10 -20 -20 -20 -20 -20 -20 -20 -20 -20 -20 -20 -20 -20 -20 -20 -20 -20 -18 13 11 10
-20 -20 -20 -20 -20 -20 -20 -20 -20 -20 -20 -13 -18 -20 -20 -20 -20 -20 -20 -11 -20 -20 -20 -20 -20 -20 -20 -20 -20 -20 -20 -20 -20 -20 -20 -20 -9 -12 9 8 4 -1 6
-20 -20 -20 -20 -20 -20 -20 -20 -20 -20 -20 -20 -20 -20 -20 -20 -20 -20 -20 -20 -20 -20 -20 -20 -20 -20 -20 -20 -20 -20 -20 -20 -20 -20 -20 -11 -8 -11 10 14 12 13 10
-20 -20 -20 -20 -20 -20 -20 -20 -20 -20 -20 -20 -20 -20 -20 -20 -20 -20 -20 -20 -20 -20 -20 -20 -20 -20 -20 -20 -20 -20 -20 -20 -20 -20 -20 -20 -19 -20 14 11 3 -13 -8
-20 -20 -20 -20 -20 -20 -20 -20 -20 -20 -20 -20 -20 -20 -20 -20 -20 -20 -20 -20 -20 -20 -20 -20 -20 -20 -20 -20 -20 -20 -20 -20 -20 -20 -20 -20 -20 -20 -20 -20 -20 -20 -20
-20 -20 -20 -20 -20 -20 -20 -20 -20 -20 -20 -20 -20 -20 -20 -20 -20 -20 -20 -20 -20 -20 -20 -20 -20 -20 -20 -20 -20 -20 -20 -20 -20 -20 -20 -20 -20 -20 -20 -20 -20 -20 -20
-20 -20 9 -20 -20 -20 -20 -20 -20 -20 -20 -20 -20 -20 -20 -20 -20 -20 -20 -20 -20 -20 -20 -20 -20 -20 -20 -20 -20 -20 -20 -20 -20 -20 -20 -20 -20 -20 -20 -20 -20 -20 -20
-20 -20 -20 -20 6 -20 -20 -20 -20 18 -20 -20 -20 -20 -20 -20 -20 -20 -20 -20 -20 -20 -20 -20 -20 -20 -20 -20 -20 -20 -20 -20 -20 -20 -20 -20 -20 -20 -20 -20 -20 -20 -20
-20 -20 -20 -20 -20 -20 -19 6 -14 -20 -20 -6 -20 -20 -20 -20 -20 -20 -20 -20 -20 -20 -20 -20 -20 -20 -20 -20 -20 -20 -20 -20 -20 -20 -20 -20 -20 -20 -20 -20 -20 -20 -20
-20 -20 -20 -20 -20 -20 4 -20 -6 -20 -20 -20 -5 -20 -20 -20 -20 -20 -20 -20 -20 -20 -20 -20 -20 -20 -20 -20 -20 -20 -20 -20 -20 -20 -20 -20 -20 -20 -20 -20 -20 -20 -20
-20 -20 -20 -20 -20 -20 14 -20 -20 -20 -20 0 -20 -20 -20 -20 -20 -20 -20 -20 -20 -20 -20 -20 -20 -20 -20 -20 -20 -20 -20 -20 -20 -20 -20 -20 -20 -20 -20 -20 -20 -20 -20
-20 -20 -20 -20 -20 -20 -20 -20 -20 -20 -20 -20 -4 -20 -20 -20 -20 -20 -20 -20 -20 -20 -20 -20 -20 -20 -20 -20 -20 -20 -20 -20 -20 -20 -20 -20 -20 -20 -20 -20 -20 -20 -20
-20 -20 -20 -20 -20 -20 -20 -20 -20 -20 -20 -13 11 -20 -20 -18 -20 -20 -18 -15 -20 2 -20 -20 -20 -20 -20 -20 -20 -20 -20 -20 -20 -20 -20 -20 -20 -20 -20 -20 -20 -20 -20
-20 -20 -20 -20 -20 -20 -20 -10 -11 -17 -20 -13 -20 -20 -19 -10 -10 -20 -13 2 -3 7 -20 -20 -20 -20 -20 -20 -20 -20 -20 -20 -20 -20 -20 -20 -20 -20 -20 -20 -20 -20 -20
-20 -20 -20 -20 -20 -20 -20 -20 -18 -20 -13 -20 -20 13 -20 18 26 -19 9 -1 -20 2 -20 -20 -20 -20 -20 -20 -20 -20 -20 -20 -20 -20 -20 -20 -20 -20 -20 -20 -20 -20 -20
-20 -20 -20 -20 -20 -20 -20 -20 -20 -9 -18 -20 -20 22 23 3 -20 -17 -19 2 -6 10 8 -17 -20 -20 -20 -20 -20 -20 -20 -20 -20 -20 -20 -20 -20 -20 -20 -20 -20 -20 -20
-20 -20 -20 -20 -20 -20 -20 -20 -20 -18 -2 5 18 23 23 22 20 16 21 21 -20 -3 -8 10 -7 -20 -15 -20 -20 -20 -20 -20 -20 -20 -20 -20 -20 -20 -20 -20 -20 -20 -20

GFSSE_prec_radar_024.txt.gz
Reflectivity
-20 -20 16 4 8 18 9 13 7 10 1 13 5 13 17 -20 -20 -20 -20 -20 -20 -20 -17 -20 11 8 -12 4 -20 -20 -20 -20 -20 -20 -20 -20 -20 -20 -20 -20 -20 -20 -12
-20 -20 7 9 18 16 13 18 5 8 14 -19 2 11 2 -20 -20 -20 -20 -20 -20 -20 12 24 24 25 19 -17 -20 -20 -20 -20 -20 -20 -20 -20 -20 -20 -20 -20 -20 -20 -20
-20 -20 -4 8 13 15 6 6 11 8 13 -18 15 9 -20 -20 -20 -20 -20 -20 -20 -14 11 11 10 -20 -20 -20 -20 -20 -20 -20 -20 -20 -20 -20 -20 -20 -20 -20 -20 -20 -20
-20 -20 -20 9 4 -18 -19 -2 8 10 13 -5 -5 -20 -20 -20 -20 -20 -20 -20 -20 5 -8 10 -9 -20 -20 -20 -20 -20 -20 -20 -20 -20 -20 -20 -20 -20 -20 -20 -20 -20 -20
-20 -20 -12 7 -17 -20 -20 -20 -3 11 10 3 -5 -20 -20 -20 -20 -20 -20 -20 -20 -20 -20 -20 -20 -20 -20 -20 -20 -20 -20 -20 -20 -20 -20 -20 -20 -12 -20 -20 -20 -20 -20
-20 -20 4 -20 -20 -20 -20 -20 -20 -20 -20 2 -20 -20 -20 -20 -20 -20 -20 -20 -20 -20 -20 -20 -20 -20 -20 -20 -20 -20 -20 -20 -20 -20 -20 -20 -20 5 -20 -20 -20 -7 -20
-20 -20 -20 -20 -20 -20 -20 -20 1 -9 18 -7 -20 -20 -20 -20 -20 -20 -20 -20 -20 -5 -18 -20 -20 -2 -6 -20 -20 -20 -20 -20 -20 -20 -20 -20 -20 -20 -18 -20 -17 2 -5
-20 -20 -20 -20 -20 -20 3 -20 -20 -11 7 8 -20 -20 -20 -20 -20 -20 -20 -20 -20 8 -20 -20 12 -14 -20 -20 -20 -20 -20 -20 -20 -20 -20 -20 -20 -20 -20 -20 -20 -20 -11
-20 -20 -20 -20 -20 -20 -4 -20 -20 -20 -6 7 4 -20 -20 -20 -20 -20 -20 -20 -20 7 -6 17 -6 -20 -20 -20 -20 -20 -20 -20 -20 -20 -20 -20 -20 -20 -20 -20 -20 -13 2
-20 -20 -20 -20 -20 -20 -20 -20 -20 -20 -20 4 10 13 -3 -19 -20 -20 -20 -20 -20 11 6 -20 -20 -20 -20 -20 -20 -20 -20 -20 -20 -20 -20 -20 -20 -20 14 12 7 4 19
-17 -20 -20 -20 -20 -20 -20 -20 -20 -20 -20 -20 3 -1 -20 -20 -20 -20 -20 -20 -20 -10 -20 -20 -20 -20 -20 -20 -20 -20 -20 -20 -20 -20 -20 -20 5 12 -14 -20 -8 4 -10
-20 -20 -20 -20 -20 -20 -20 -20 -20 -20 -20 -20 -20 -20 -20 -20 -20 -20 -20 -20 -20 -20 -20 -20 -20 -20 -20 -20 -20 -20 -20 -20 -20 -20 -20 -12 -20 -0 8 -3 0 -10 -3
-20 -20 -20 -20 -20 -20 -20 -20 -20 -20 -20 -20 -20 -20 -20 -20 -20 -20 -20 -20 -20 -20 -20 -20 -20 -20 -20 -20 -20 -20 -20 -20 -20 -20 -20 -20 -20 -20 4 0 3 -20 -20
-20 -20 -20 -20 -20 -20 -20 -20 -20 -20 -20 -20 -20 -20 -20 -20 -20 5 -20 -20 -20 -20 -20 -20 -20 -20 -20 -20 -20 -20 -20 -20 -20 -20 -20 -20 -20 -20 -20 -20 -20 -20 -20
-20 -20 -20 -20 -20 -20 -20 -20 -20 -20 -20 -20 -20 -20 -20 -20 -20 -20 -20 -20 -20 -20 -20 -20 -20 -20 -20 -20 -20 -20 -20 -20 -20 -20 -20 -20 -20 -20 -20 -20 -20 -20 -20
-20 -20 -20 -20 -20 -20 -20 -20 -20 -20 -20 -20 -20 -20 -20 -20 -20 -20 -20 -20 -20 -20 -20 -20 -20 -20 -20 -20 -20 -20 -20 -20 -20 -20 -20 -20 -20 -20 -20 -20 -20 -20 -20
-20 -20 -20 -20 3 -20 -20 -20 -20 -20 25 -20 -20 -20 -20 -20 -20 -20 -20 -20 -20 -20 -20 -20 -20 -20 -20 -20 -20 -20 -20 -20 -20 -20 -20 -20 -20 -20 -20 -20 -20 -20 -20
-20 -20 -20 -11 -20 -20 -20 -20 -15 -20 -10 -20 -17 -20 -20 -20 -20 -20 -20 -20 -20 -20 -20 -20 -20 -20 -20 -20 -20 -20 -20 -20 -20 -20 -20 -20 -20 -20 -20 -20 -20 -20 -20
-20 -20 -20 -20 -20 -20 -20 -20 16 -1 -20 -4 -20 -20 4 -20 -20 -20 -20 -20 -20 -20 -20 -20 -20 -20 -20 -20 -20 -20 -20 -20 -20 -20 -20 -20 -20 -20 -20 -20 -20 -20 -20
-20 -20 -20 -20 -20 -20 -20 23 -20 -20 -20 -20 -16 -20 17 -20 -20 -20 -20 -20 -20 -20 -20 -20 -20 -20 -20 -20 -20 -20 -20 -20 -20 -20 -20 -20 -20 -20 -20 -20 -20 -20 -20
-20 -20 -20 -20 -20 -20 -20 -20 -7 -1 -20 -20 -20 -16 -20 -20 -7 -20 -20 -20 -20 -20 -20 -20 -20 -20 -20 -20 -20 -20 -20 -20 -20 -20 -20 -20 -20 -20 -20 -20 -20 -20 -20
-20 -20 -20 -20 -20 -20 -20 -20 -20 -20 -20 -20 4 -20 13 -20 17 -20 -20 -20 -20 -20 -20 -17 -20 -20 -20 -20 -20 -20 -20 -20 -20 -20 -20 -20 -20 -20 -20 -20 -20 -20 -20
-20 -20 -20 -20 -20 -20 -20 -20 -20 -20 -20 -20 -20 -20 -20 14 -12 2 22 -20 -20 -17 -16 9 -15 -20 -20 -20 -20 -20 -20 -20 -20 -20 -20 -20 -20 -20 -20 -20 -20 -20 -20
-20 -20 -20 -20 -20 -20 -20 -20 -20 -20 -20 -15 -20 -20 -20 2 20 -20 28 23 17 -20 -20 -20 -6 -20 -20 -20 -20 -20 -20 -20 -20 -20 -20 -20 -20 -20 -20 -20 -20 -20 -20
-20 -20 -20 -20 -20 -20 -20 -20 -20 -20 -20 -20 -2 -20 23 6 19 26 28 -18 13 -20 -9 -20 -19 14 -20 -20 -20 -20 -20 -20 -20 -20 -20 -20 -20 -20 -20 -20 -20 -20 -20
-20 -20 -20 -20 -20 -20 -20 -20 -20 -20 -20 -20 -20 -20 -17 20 19 20 24 -20 24 21 -10 2 19 14 -13 -19 -20 -20 -20 -20 -20 -20 -20 -20 -20 -20 -20 -20 -20 -20 -20

GFSSE_prec_radar_027.txt.gz
Reflectivity
-20 -20 9 16 14 13 11 -20 -8 -18 17 -2 1 13 13 -13 -20 -20 -20 -20 -20 -20 -20 -18 15 4 7 3 -20 -20 -20 -20 -20 -20 -20 -20 -20 -20 -20 -20 -20 -20 -20
-20 -20 18 17 12 11 10 -17 -18 -15 15 -6 -20 7 11 -8 -20 -20 -20 -20 -20 -20 25 24 27 11 7 -20 -20 -20 -20 -20 -20 -20 -20 -20 -20 -20 -20 -20 -20 -20 -19
-20 -20 -7 7 11 12 13 6 7 -16 -20 -20 10 -17 6 -20 -20 -20 -20 -20 -20 8 14 0 9 -20 -20 -20 -20 -20 -20 -20 -20 -20 -20 -20 -20 -20 -20 -20 -20 -20 -20
-20 -20 -20 11 12 14 8 4 12 14 14 -6 0 -20 -20 -20 -20 -20 -20 -20 1 -20 -20 -20 -20 -20 -20 -20 -20 -20 -20 -20 -20 -20 -20 -20 -20 -20 -20 -20 -20 -20 -20
-20 -20 -20 8 11 7 -20 2 14 15 6 17 -20 -20 -20 -20 -20 -20 -20 -20 -20 -20 -20 -20 -20 -20 -20 -20 -20 -20 -20 -20 -20 -20 -20 -20 -20 4 -20 -20 -20 -20 -20
-20 -20 -10 2 -9 -20 -20 -20 5 10 14 -20 -20 -20 -20 -20 -20 -20 -20 -20 -20 -20 -20 -20 -20 -4 -10 -20 -20 -20 -20 -20 -20 -20 -20 -20 -20 -20 -20 -20 7 15 -1
-20 -20 -20 -3 -20 -20 -20 -20 -20 -1 15 16 -15 -20 -20 -20 -20 -20 -20 -20 -20 -20 -20 -3 3 -14 -20 -20 -20 -20 -20 -20 -20 -20 -20 -20 -20 -17 -20 -20 -20 -20 17
-20 -20 -20 -20 -20 -20 -19 -20 -20 -7 18 10 -20 -20 -20 -20 -20 -20 -20 -15 -11 -14 -20 -6 9 -20 -20 -20 -20 -20 -20 -20 -20 -20 -20 -20 -20 -20 -20 -20 -20 -9 -4
-4 -20 -20 -20 -20 -20 -16 -20 -20 1 -16 7 -19 -20 -20 -20 -20 -20 -20 -20 -20 -20 6 10 -20 -20 -20 -20 -20 -20 -20 -20 -20 -20 -20 -20 -20 -20 -20 -20 -20 5 2
0 -20 -20 -20 -20 -20 -20 -20 -20 -20 -20 -4 15 -1 -20 -20 -20 -20 -20 -20 -20 17 11 -20 -20 -20 -20 -20 -20 -20 -20 -20 -20 -20 -20 -20 -20 14 15 15 17 16 -1
-2 -11 -20 -20 -20 -20 -20 -20 -20 -20 -20 -20 -20 10 -6 -20 -14 -20 -20 -20 -20 3 -20 -20 -20 -20 -20 -20 -20 -20 -20 -20 -20 -20 -20 -20 3 10 14 10 -7 -4 -20
5 8 -20 -20 -20 -20 -20 -20 -20 -20 -20 -20 -20 -11 -14 -20 -2 -20 -20 -20 -20 -20 -20 -20 -20 -20 -20 -20 -20 -20 -20 -20 -20 -20 -20 10 -9 -20 -20 -20 -20 -20 -20
-20 -20 0 -20 -20 -20 -20 -20 -20 -20 -20 -20 -20 -20 -20 -20 -20 9 -20 7 -0 -20 -20 -20 -20 -20 -20 -20 -20 -20 -20 -20 -20 -20 -20 -20 -20 -20 -20 -20 -20 -20 -20
-20 -10 -14 -20 -20 -20 -8 -20 -20 -20 -20 -20 -20 -20 -20 -20 -20 -18 -20 10 -20 -20 -20 -20 -20 -20 -20 -20 -20 -20 -20 -20 -20 -20 -20 -20 -20 -20 -20 -20 -20 -20 -20
-20 -20 -20 -20 -20 -20 -20 -16 -20 -20 -20 -20 -20 -20 -20 -20 -20 -20 -7 -20 -20 -20 -20 -20 -20 -20 -20 -20 -20 -20 -20 -20 -20 -20 -20 -20 -20 -20 -20 -20 -20 -20 -20
-20 -20 -20 -20 -20 -20 -20 -17 -20 -20 -20 -20 -20 -20 -20 -20 -20 -20 -16 -19 -20 -20 -20 -20 -20 -20 -20 -20 -20 -20 -20 -20 -20 -20 -20 -20 -20 -20 -20 -20 -20 -20 -20
-20 -20 -20 -20 -20 -1 -3 -20 -20 -20 -20 -20 -20 -20 -20 -20 -20 -20 -20 -20 -20 -20 -20 -20 -20 -20 -20 -20 -20 -20 -20 -20 -20 -20 -20 -20 -20 -20 -20 -20 -20 -20 -20
-20 -20 -20 -20 -20 -20 -16 -20 -20 16 -12 11 -20 -20 -20 -20 -20 -20 -20 -20 -20 -20 -20 -20 -20 -20 -20 -20 -20 -20 -20 -20 -20 -20 -20 -20 -20 -20 -20 -20 -20 -20 -20
-20 -20 -20 -20 -20 -20 -20 -10 -18 3 -20 -20 4 1 -20 -20 -20 -20 -20 -20 -20 -20 -20 -20 -20 -20 -20 -20 -20 -20 -20 -20 -20 -20 -20 -20 -20 -20 -20 -20 -20 -20 -20
-20 -20 -20 -20 -20 -20 -20 -10 1 9 -12 -20 -20 -20 -13 23 -20 -20 -20 -20 -20 -20 -20 -20 -20 -20 -20 -20 -20 -20 -20 -20 -20 -20 -20 -20 -20 -20 -20 -20 -20 -20 -20
-20 -20 -20 -20 -20 -20 -20 -4 5 -11 -15 -4 -20 -20 27 -20 -20 -20 -20 -20 -20 -20 -20 -20 -20 -20 -20 -20 -20 -20 -20 -20 -20 -20 -20 -20 -20 -20 -20 -20 -20 -20 -20
-20 -20 -20 -20 -20 -20 -20 -20 -20 -20 -20 -20 16 -16 -20 -20 -20 -20 -20 0 -20 -20 -20 -20 -20 -20 -20 -20 -20 -20 -20 -20 -20 -20 -20 -20 -20 -20 -20 -20 -20 -20 -20
-20 -20 -20 -20 -20 -20 -20 -20 -20 -20 -20 -11 -17 -1 -20 -20 -3 -16 27 26 -15 -20 -20 -20 -20 -20 -20 -20 -20 -20 -20 -20 -20 -20 -20 -20 -20 -20 -20 -20 -20 -20 -20
-20 -20 -20 -20 -20 -20 -20 -20 -20 -20 -20 -20 -20 -20 -20 -20 6 -18 23 20 -11 16 -20 -20 -20 -20 -20 -20 -20 -20 -20 -20 -20 -20 -20 -20 -20 -20 -20 -20 -20 -20 -20
-20 -20 -20 -20 -20 -20 -20 -20 -20 -20 -20 -20 -20 -20 -20 16 19 22 -16 -16 -20 -20 -20 -17 -20 -20 -20 -20 -20 -20 -20 -20 -20 -20 -20 -20 -20 -20 -20 -20 -20 -20 -20
-20 -20 -20 -20 -20 -20 -20 -20 -20 -20 -20 -20 -20 -20 -20 -20 8 19 8 9 -20 22 -20 22 17 -9 -7 -20 -20 6 -17 -20 -20 -20 -20 -20 -20 -20 -20 -20 -20 -20 -20

GFSSE_prec_radar_030.txt.gz
Reflectivity
-20 -20 -4 2 13 3 0 -3 -20 -20 -19 16 -7 15 -19 -20 -20 -20 -20 -20 -20 -20 -20 21 -11 1 -6 -20 -20 -20 -20 -20 -20 -20 -20 -20 -20 -20 -20 -20 -20 -20 -20
-20 -20 0 5 17 10 12 -20 -7 -20 10 13 2 7 8 -20 -20 -20 -20 -20 -20 -20 14 16 9 -18 -20 -20 -20 -20 -20 -20 -20 -20 -20 -20 -20 -20 -20 -20 -20 -20 -12
-20 -20 -20 12 3 6 10 -20 2 7 2 -7 -20 -20 -19 -13 -20 -20 -20 -20 11 20 1 14 -20 -20 -20 -20 -20 -20 -20 -20 -20 -20 -20 -20 -20 -20 -20 -20 -20 -20 -5
-20 -20 -20 -2 11 8 1 0 9 -14 14 -12 -20 -7 7 -20 -20 -20 -20 -8 9 -6 -20 -12 -20 -20 -20 -20 -20 -20 -20 -20 -20 -20 -20 -20 -20 -20 -20 -20 -20 -20 -20
-20 -20 -20 9 12 -0 4 10 11 4 15 11 -20 -20 -20 -20 -20 -20 -20 -20 -19 -20 -20 -20 -20 -20 -20 -20 -20 -20 -20 -20 -20 -20 -20 -20 -20 -20 -20 -20 -20 -20 -20
-20 -20 -20 7 8 4 6 10 11 12 15 16 -20 -20 -20 -20 -20 -20 -20 -20 -20 -20 -20 -20 -20 -20 -20 -20 -20 -20 -20 -20 -20 -20 -20 -20 -20 -20 -20 -18 -18 -2 21
-20 -20 -20 15 4 -17 -20 -3 12 13 11 4 -20 -20 -20 -20 -20 -20 -20 -20 -20 -20 -20 -20 -20 -20 -20 -20 -20 -20 -20 -20 -20 -20 -20 -20 -20 -20 -20 -20 -20 -7 -7
-20 -20 -20 7 -20 -20 -20 -20 -15 -5 14 2 -20 -20 -20 -20 -20 -20 -20 -16 -20 -20 -20 14 -20 -20 -20 -20 -20 -20 -20 -20 -20 -20 -20 -20 -20 -20 -20 -20 -20 12 -17
-20 -20 -20 -17 -20 -20 -20 -20 -20 -20 7 9 -20 -20 -20 -20 -20 -20 -20 -20 9 -20 10 -17 -20 -20 -20 -20 -20 -20 -20 -20 -20 -20 -20 -20 -20 -20 -20 -20 14 13 -0
-7 -20 -20 -20 -20 -20 -6 -20 -0 13 -9 12 -20 -20 -20 -20 -20 -20 -20 -20 -20 -18 -20 -20 -20 -20 -20 -20 -20 -20 -20 -20 -20 -20 -20 -20 -20 17 11 22 9 11 -20
-7 -1 -16 -20 -20 -20 -20 -20 -20 -20 7 8 4 -20 -20 -20 -20 -20 -20 -20 6 -20 -20 -20 -20 -20 -20 -20 -20 -20 -20 -20 -20 -20 -20 -12 9 9 4 7 -6 -7 -18
-16 -20 -9 -20 -20 -20 -20 -20 -20 -20 -20 -20 3 -10 -20 -20 -20 -20 -20 -20 -7 -20 -20 -20 -20 -20 -20 -20 -20 -20 -20 -20 -20 -20 -15 15 -20 -20 -20 -20 -20 -20 -20
-14 -20 -8 -7 -20 -20 -20 -20 -20 -20 -20 -20 -20 -20 -20 -20 7 6 -8 -15 -18 -20 -20 -20 -20 -20 -20 -20 -20 -20 -20 -20 -20 -20 -20 -20 -17 -20 -20 -20 -20 -20 -20
-12 1 10 -19 -20 -20 -20 -20 -20 -20 -20 -20 -20 -20 -17 -3 -1 -0 9 6 10 -20 -20 -20 -20 -20 -20 -20 -20 -20 -20 -20 -20 -20 -20 -20 -20 -20 -20 -20 -20 -20 -20
-20 -20 -20 -20 -20 -15 -11 -20 -20 -20 -20 -20 -20 -20 -20 -20 -20 -20 -11 11 7 -3 -20 -20 -20 -20 -20 -20 -20 -20 -20 -20 -20 -20 -20 -20 -20 -20 -20 -20 -20 -20 -20
-20 -20 -20 -20 -19 -20 -20 -19 -20 -20 -20 -20 -20 -20 -20 -20 -20 -20 7 -2 11 -20 -20 -20 -20 -20 -20 -20 -20 -20 -20 -20 -20 -20 -20 -20 -20 -20 -20 -20 -20 -20 -20
-20 -20 -20 -20 -20 -20 -20 -20 -20 -20 -20 -20 -20 -20 -20 -20 -20 -20 -3 -8 2 -20 -20 -20 -20 -20 -20 -20 -20 -20 -20 -20 -20 -20 -20 -20 -20 -20 -20 -20 -20 -20 -20
-20 -20 -20 -20 -20 -20 -20 -20 -20 -20 -20 -20 -20 -20 -20 -20 -20 -20 -13 -7 2 2 -20 -20 -20 -20 -20 -20 -20 -20 -20 -20 -20 -20 -20 -20 -20 -20 -20 -20 -20 -20 -20
-20 -20 -20 -20 -20 -20 -20 -20 -20 -2 -20 -20 -20 -20 -20 -20 -20 4 -20 -14 1 -20 -20 -20 -20 -20 -20 -20 -20 -20 -20 -20 -20 -20 -20 -20 -20 -20 -20 -20 -20 -20 -20
-20 -20 -20 -20 -20 -20 -19 -11 -12 -18 -7 -20 -20 -20 -20 -20 -20 -20 -20 -20 -5 -20 -20 -20 -20 -20 -20 -20 -20 -20 -20 -20 -20 -20 -20 -20 -20 -20 -20 -20 -20 -20 -20
-20 -20 -20 -20 -20 -20 -20 -12 6 2 -19 6 -1 -20 -20 -20 -20 -20 -20 -20 -20 -20 -20 -20 -20 -20 -20 -20 -20 -20 -20 -20 -20 -20 -20 -20 -20 -20 -20 -20 -20 -20 -20
-20 -20 -20 -20 -20 -20 -20 -20 -20 -20 -20 -8 -8 10 -19 -20 -20 -20 23 -20 -14 7 -20 -20 -20 -20 -20 -20 -20 -20 -20 -20 -20 -20 -20 -20 -20 -20 -20 -20 -20 -20 -20
-20 -20 -20 -20 -20 -20 -20 -20 -20 -20 -10 -9 -8 -20 -16 -20 -20 -20 3 -9 -15 -20 -20 -20 -20 -20 -20 -20 -20 -20 -20 -20 -20 -20 -20 -20 -20 -20 -20 -20 -20 -20 -20
-20 -20 -20 -20 -20 -20 -20 -20 -20 -20 -20 -20 -20 -20 -20 -17 -6 -20 -14 19 18 17 -20 -20 -20 -20 -20 -20 -20 -20 -20 -20 -20 -20 -20 -20 -20 -20 -20 -20 -20 -20 -20
-20 -20 -20 -20 -20 -20 -20 -20 -20 -20 -20 -20 -20 -20 -20 -20 -20 -0 -7 23 -12 -20 8 21 18 -20 -20 -20 -20 -20 -20 -20 -3 -20 -20 -17 -20 -20 -20 -20 -20 -20 -20
-20 -20 -20 -20 -20 -20 -20 -20 -20 -20 -20 -20 -19 4 -6 -20 -3 12 7 4 21 22 10 -20 20 24 -10 -20 -20 -20 1 -19 -20 5 0 -3 -20 -20 -20 -20 -20 -20 -20

GFSSE_prec_radar_033.txt.gz
Reflectivity
-20 -20 2 -13 -20 -20 -20 -20 -20 -20 -20 -7 18 13 -20 -20 -20 -20 -20 -20 -20 -20 15 2 -20 -20 -20 -20 -20 -19 -20 -20 -10 -12 -20 -20 -20 -20 -20 -20 -20 -20 -20
-20 -20 -20 2 11 -20 14 -20 -20 4 18 -5 16 15 -17 -20 -20 -20 -20 -20 -20 -20 21 9 -20 -20 -20 -20 -20 -20 -20 -20 -20 -20 -20 -20 -20 -20 -20 -20 -20 -20 -20
-20 -20 -20 -13 13 -13 -20 -6 -18 -15 10 -14 12 -20 -20 -20 -20 -20 -20 -5 15 -3 18 -9 -20 -20 -20 -20 -20 -20 -20 -20 -20 -20 -20 -20 -20 -20 -20 -20 -20 -20 -20
-20 -20 -20 -17 -14 11 -20 -13 12 -2 16 14 -20 -20 6 -20 -20 -20 -9 9 15 -7 -15 -18 -20 -20 -20 -20 -20 -20 -20 -20 -20 -20 -20 -20 -20 -20 -20 -20 -20 -20 -20
-20 -20 -20 -18 11 15 -20 -3 -11 9 -20 -12 -20 -20 -20 -20 -20 -20 -18 1 -20 -20 -20 -20 -20 -20 -20 -20 -20 -20 -20 -20 -20 -20 -20 -20 -20 -20 -20 -20 -1 -20 -20
-20 -20 -20 12 5 3 2 12 14 14 14 18 -20 -20 -20 -20 -20 -20 -20 -20 -20 -20 -20 -20 -20 -20 -20 -20 -20 -20 -20 -20 -20 -20 -20 -20 -20 -20 -13 -20 11 12 21
-20 -20 -20 9 15 8 17 7 12 16 14 11 -20 -20 -20 -20 -20 -20 -20 -20 -20 -20 -20 -20 -20 -20 -20 -20 -20 -20 -20 -20 -20 -20 -20 -20 -20 -20 -20 -20 -14 -20 -20
-20 -20 -20 13 6 -8 1 -8 6 7 14 1 -20 -20 -20 -20 -20 -20 -20 -20 -20 -20 -20 -17 -20 -20 -20 -20 -20 -20 -20 -20 -20 -20 -20 -20 -20 -20 -20 -20 -16 -2 -20
-20 -20 -20 -20 -20 -20 -20 -16 -1 6 12 12 -20 -20 -20 -20 -20 -20 -20 -20 -20 -20 10 -20 -20 -20 -20 -20 -20 -20 -20 -20 -20 -20 -20 -20 -20 -20 -20 -20 -16 0 -20
-20 -20 -20 -20 -20 -20 -20 -20 -20 -20 13 16 -20 -20 -20 -20 -20 -20 -20 -20 -14 -20 -20 -20 -20 -20 -20 -20 -20 -20 -20 -20 -20 -20 -20 -20 -6 1 8 19 -2 7 -5
-20 -20 -20 -20 -20 -20 -20 -19 -20 11 15 13 -2 -20 -20 -20 -20 -20 -20 -20 -20 13 -20 -20 -20 -20 -20 -20 -20 -20 -20 -20 -20 -20 -20 4 -20 9 7 -0 7 -17 -10
-13 -20 -20 -20 -20 -20 -20 -20 -20 -9 -4 -18 -17 -19 -20 -20 -20 -20 -20 -20 5 -20 -20 -20 -20 -20 -20 -20 -20 -20 -20 -20 -20 -20 -20 -3 -20 -0 -13 -20 -20 -20 -20
-4 -20 -20 -20 -20 -20 -20 -20 -20 -20 -20 -20 -20 -20 -20 -20 -20 -20 -20 -20 -11 -20 -20 -20 -20 -20 -20 -20 -20 -20 -20 -20 -20 -20 -20 -20 -1 -20 -20 -20 -20 -20 -20
-11 -10 -14 -20 -20 -20 -20 -20 -20 -20 -20 -20 -20 -20 -20 -12 -3 -1 -20 -20 -20 -20 -20 -20 -20 -20 -20 -20 -20 -20 -20 -20 -20 -20 -20 -20 -20 -20 -20 -20 -20 -20 -20
-20 -20 -3 -9 -19 -20 -20 -20 -20 -20 -20 -20 -20 -20 -20 -20 -4 6 10 -1 -10 -20 -20 -20 -20 -20 -20 -20 -20 -20 -20 -20 -20 -20 -20 -20 -20 -20 -20 -20 -20 -20 -20
-20 -20 -20 3 -12 -19 -20 -20 -20 -20 -20 -20 -20 -20 -20 -20 -20 -20 -16 -3 5 -3 -20 -20 -20 -20 -20 -20 -20 -20 -20 -20 -20 -20 -20 -20 -20 -20 -20 -20 -20 -20 -20
-20 -20 -20 -20 -20 -17 -20 -20 -20 -20 -20 -20 -20 -20 -20 -20 -20 -20 -20 -20 -15 9 -20 -20 -20 -20 -20 -20 -20 -20 -20 -20 -20 -20 -20 -20 -20 -20 -20 -20 -20 -20 -20
-20 -20 -20 -20 -20 -20 -20 -20 -20 -20 -20 -20 -20 -20 -20 -20 -20 -20 -20 -20 -20 9 -1 -20 -20 -20 -20 -20 -20 -20 -20 -20 -20 -20 -20 -20 -20 -20 -20 -20 -20 -20 -20
-20 -20 -20 -20 -20 -20 -20 -18 -12 -20 7 -20 -20 -20 -20 -20 -20 -20 -20 -20 -20 -19 -5 -20 -20 -20 -20 -20 -20 -20 -20 -20 -20 -20 -20 -20 -20 -20 -20 -20 -20 -20 -20
-20 -20 -20 -20 -20 -20 -20 -18 -20 1 -20 -20 -20 -20 -20 -20 -20 -20 -20 -20 -20 -17 -3 -20 -20 -20 -20 -20 -20 -20 -20 -20 -20 -20 -20 -20 -20 -20 -20 -20 -20 -20 -20
-20 -20 -20 -20 -20 -20 -20 -20 -20 -18 1 -20 -20 -20 -20 -20 -20 -20 -20 -20 -20 -20 -20 -20 -20 -20 -20 -20 -20 -20 -20 -20 -20 -20 -20 -20 -20 -20 -20 -20 -20 -20 -20
-20 -20 -20 -20 -20 -20 -20 -20 -20 -20 -20 -20 -16 14 -20 -20 -20 -20 -20 -20 -20 -20 -20 -20 -20 -20 -20 -20 -20 -20 -20 -20 -20 -20 -20 -20 -20 -20 -20 -20 -20 -20 -20
-20 -20 -20 -20 -20 -20 -20 -20 -20 -20 -20 -20 -14 -20 5 11 -20 -20 -16 -7 -18 -20 -20 4 -20 -4 -20 -20 -20 -20 -20 -20 -20 -20 -20 -20 -20 -20 -20 -20 -20 -20 -20
-20 -20 -20 -20 -20 -20 -20 -20 -20 -20 -20 -20 -20 -20 -20 -20 -12 -1 -16 5 9 -20 -17 14 -20 -15 -16 15 13 -20 -20 -20 -20 -20 -20 -20 -20 -9 -20 -20 -20 -20 -20
-20 -20 -20 -20 -20 -20 -20 -20 -20 -20 -20 -20 -20 -20 -20 -20 -20 -20 -6 -14 20 -20 26 20 -20 -20 23 -10 15 6 -20 -20 -20 -20 -20 -20 -19 1 -5 -5 -20 -20 -20
-20 -20 -20 -20 -20 -20 -20 -20 -20 -20 -20 -20 -20 -20 -20 -14 5 -20 9 5 -2 8 -19 -12 20 -20 21 18 13 7 0 2 -10 -20 -20 -20 9 2 1 3 11 -20 -8

GFSSE_prec_radar_036.txt.gz
Reflectivity
-20 -20 -20 -20 -20 -20 -20 -20 -20 -20 -20 -19 -10 -20 -5 -20 -20 -20 -20 -20 -20 -20 18 -20 -16 -20 -20 -20 -20 -20 -20 -2 6 -20 -20 -20 -20 -20 -20 -20 -20 -20 -11
-20 -20 -20 -20 -20 -20 -19 -20 -20 -20 -20 -0 10 17 -20 -20 -20 -20 -20 -20 -20 19 -7 -15 -20 -20 -20 -20 -20 -20 -20 -20 -20 -20 -20 -20 -20 -20 -20 -20 -20 -20 -20
-20 -20 -20 2 -20 -20 9 -20 -20 -20 12 1 19 -20 -20 -20 -20 -20 -18 -2 -12 14 -3 -20 -20 -20 -20 -20 -20 -20 -20 -20 -20 -20 -20 -20 -20 -20 -20 -20 -20 -20 -20
-20 -20 -20 -2 13 -20 -20 -13 -2 11 19 14 -11 -20 -20 -20 -20 -20 13 11 8 -9 -20 -20 -20 -20 -20 -20 -20 -20 -20 -20 -20 -20 -20 -9 -20 -20 -20 -18 -20 -20 -20
-20 -20 -20 -19 8 16 -20 -13 5 12 10 10 -20 -20 -20 -20 -20 3 9 -18 -20 -20 -20 -20 -20 -20 -20 -20 -20 -20 -20 -20 -20 -20 -20 -20 -20 -20 3 -20 -20 -20 -20
-20 -20 -20 -20 -20 8 -20 5 12 21 16 9 -20 -20 -20 -20 -20 -20 -20 -20 -20 -20 -20 -20 -20 -20 -20 -20 -20 -20 -20 -20 -20 -20 -20 -20 -20 -20 -20 7 14 13 0
-20 -20 -20 -15 0 -20 -20 -20 -16 -12 14 -13 -20 -20 -20 -20 -20 -20 -20 -20 -20 -20 -20 -20 -20 -20 -20 -20 -20 -20 -20 -20 -20 -20 -20 -20 -20 -20 -20 -20 -12 -18 -1
-20 -20 -20 -4 5 -10 -20 -20 -4 -5 18 13 -20 -20 -20 -20 -20 -20 -20 -20 -20 -20 -9 -20 -20 -20 -20 -20 -20 -20 -20 -20 -20 -20 -20 -20 -20 -20 -20 -8 -4 -12 -5
-20 -20 -20 -20 -18 -20 -20 -17 13 17 14 14 -20 -20 -20 -20 -20 -20 -20 -20 -20 -20 -19 -20 -20 -20 -20 -20 -20 -20 -20 -20 -20 -20 -20 -20 -20 -20 -20 5 -5 -20 -20
-20 -20 -20 -20 -20 -20 -20 -14 4 18 15 13 -20 -20 -20 -20 -20 -20 -20 -11 -20 2 -20 -20 -20 -20 -20 -20 -20 -20 -20 -20 -20 -20 -20 -20 -20 -4 8 6 6 -18 -20
-20 -20 -20 -20 -20 -20 -20 -20 -20 -20 16 11 -20 -20 -20 -20 -20 -20 -20 -20 -20 10 -20 -20 -20 -20 -20 -20 -20 -20 -20 -20 -20 -20 -20 -20 1 14 16 8 5 -6 -20
-20 -20 -20 -20 -20 -20 -20 -20 -20 -20 6 -20 -20 -20 -20 -20 -20 -20 -20 -20 -20 -20 -20 -20 -20 -20 -20 -20 -20 -20 -20 -20 -20 -20 -20 -20 -20 5 3 -9 -12 -20 -20
-20 -20 -20 -20 -20 -20 -20 -20 -20 -20 -20 -20 -20 -20 -20 -20 -20 -20 -20 -20 -20 -20 -20 -20 -20 -20 -20 -20 -20 -20 -20 -20 -20 -20 -20 -20 -20 -20 -20 -20 -20 -20 -20
-20 -18 -20 -20 -20 -20 -20 -20 -20 -20 -20 -20 -20 -20 -20 -20 -20 -20 -20 -20 -20 -20 -20 -20 -20 -20 -20 -20 -20 -20 -20 -20 -20 -20 -20 -20 -20 -20 -20 -20 -20 -20 -20
-20 -6 2 -20 -20 -20 -20 -20 -20 -20 -20 -20 -20 -20 -20 -20 -20 -20 -20 -20 -20 -20 -20 -20 -20 -20 -20 -20 -20 -20 -20 -20 -20 -20 -20 -20 -20 -20 -20 -20 -20 -20 -20
-20 -20 -20 -20 -20 -20 -20 -20 -20 -20 -20 -20 -20 -20 -20 -20 -20 -20 -20 -20 -20 -20 -20 -20 -20 -20 -20 -20 -20 -20 -20 -20 -20 -20 -20 -20 -20 -20 -20 -20 -20 -20 -20
-20 -20 -20 -20 -20 -20 -20 -20 -20 -20 -20 -20 -20 -20 -20 -20 -20 -20 -20 -20 -20 -20 -20 -15 -20 -20 -20 -20 -20 -20 -20 -20 -20 -20 -20 -20 -20 -20 -20 -20 -20 -20 -20
-20 -20 -15 -20 -20 -20 -20 -20 -20 -20 -20 -20 -20 -20 -20 -20 -20 -20 -20 -20 -20 -20 -19 -18 -20 -20 -20 -20 -20 -20 -20 -20 -20 -20 -20 -20 -20 -20 -20 -20 -20 -20 -20
-20 -20 -20 -20 -5 -20 -19 -20 -6 -20 -6 -11 -20 -20 -20 -20 -20 -20 -20 -20 -20 -20 -19 -11 -20 -20 -20 -20 -20 -20 -20 -20 -20 -20 -20 -20 -20 -20 -20 -20 -20 -20 -20
-20 -20 -20 -20 -20 -20 -20 -7 -20 -20 -20 -20 -20 -20 -20 -20 -20 -20 -20 -20 -20 -20 -20 -20 -20 -20 -20 -20 -20 -20 -20 -20 -20 -20 -20 -20 -20 -20 -20 -20 -20 -20 -20
-20 -20 -20 -20 -20 -20 -20 -20 -20 -20 -20 -20 8 -20 -20 -13 -20 29 -20 -20 -20 -20 -20 -20 -20 -20 -20 -20 -20 -20 -20 -20 -20 -20 -20 -20 -20 -20 -20 -20 -20 -20 -20
-20 -20 -20 -20 -20 -20 -20 -20 -20 -20 -20 -20 -20 -20 4 11 -12 -1 22 -5 -12 -20 -20 -20 -20 -20 -20 -20 -20 -20 -20 -20 -20 -20 -20 -20 -20 -20 -20 -20 -20 -20 -20
-20 -20 -20 -20 -20 -20 -20 -20 -20 -20 -20 -20 -20 -20 -20 -20 -1 -20 -2 23 -13 5 -20 20 -20 -20 -20 -16 -20 -6 -20 -20 -20 -20 -20 -20 -20 -20 -20 -20 -20 -20 -19
-20 -20 -20 -20 -20 -20 -20 -20 -20 -20 -20 -20 -20 -20 -20 -20 -20 -20 18 22 25 2 -20 -16 20 24 -4 -13 -18 -16 -6 -20 -20 -20 -20 -20 -20 -20 -20 -20 -20 -20 -20
-20 -20 -20 -20 -20 -20 -20 -20 -20 -20 -20 -20 -20 -20 4 5 -20 -20 -20 -20 21 26 14 21 -10 25 18 -20 21 18 12 2 4 -0 -20 1 23 13 -5 -20 -20 -20 -20
-20 -20 -20 -20 -20 -20 -20 -20 -20 -20 -20 -20 -20 -20 -20 -20 -5 6 -13 3 20 17 22 22 23 25 15 21 -20 16 17 18 17 13 10 -10 10 18 -7 -20 -20 -5 -3

GFSSE_prec_radar_039.txt.gz
Reflectivity
-20 -20 -20 -20 -11 -20 -18 -0 -3 -3 4 -18 -13 -20 -20 -20 -20 -20 -20 -20 -9 11 -6 -3 -20 -20 -20 -20 -20 -20 -20 -20 -20 -20 -20 -20 -20 -20 -20 -20 -20 -10 -20
-20 -20 -20 -20 -20 -20 0 -20 -20 -20 -20 -20 -6 16 -20 -20 -20 -20 -20 -20 -20 6 -20 -20 -20 -20 -20 -20 -20 -20 -20 -20 -20 -20 -20 -20 -20 -20 -20 -20 -20 -20 -20
-20 -20 -20 -20 -20 -20 -20 -20 -20 -16 -20 -16 -3 -20 -20 -20 -20 -20 -16 -18 13 10 -20 -20 -20 -20 -20 -20 -20 -20 -20 -20 -20 -20 -20 -20 -20 -20 -20 -20 -20 -20 -20
-20 -20 -20 -20 -20 -2 -20 -20 -20 -20 11 -20 -20 -20 -20 -20 -20 11 12 12 10 -20 -20 -20 -20 -20 -20 -20 -20 -20 -20 -20 -20 -20 -20 -20 -20 -16 7 -20 -20 -20 -20
-20 -20 -20 1 -20 -20 -20 -20 11 16 11 -6 -20 -20 -20 -20 -10 15 -2 -13 -20 -20 -20 -20 -20 -20 -20 -20 -20 -20 -20 -20 -20 -20 -20 -20 -20 -19 5 -20 -12 4 12
-20 -20 -20 14 4 -20 -17 -20 13 10 10 -20 -20 -20 -20 -20 -19 8 -20 -20 -20 -20 -20 -20 -20 -20 -20 -20 -20 -20 -20 -20 -20 -20 -20 -20 -20 -20 10 -10 10 2 16
-20 -20 -20 -20 -20 -20 -20 -0 3 11 -20 -20 -20 -20 -20 -20 -15 -20 -20 -20 -20 -20 -20 -20 -20 -20 -20 -20 -20 -20 -20 -20 -20 -20 -20 -20 -20 -20 -20 -7 7 4 5
-20 -20 -20 -20 -16 -20 -20 4 -2 -8 -8 -20 -20 -20 -20 -16 -2 -20 -20 -20 -20 -20 -20 -20 -20 -20 -20 -20 -20 -20 -20 -20 -20 -20 -20 -20 -20 -20 -20 4 3 -20 10
-20 -20 -20 -20 -20 -20 -20 -12 13 6 -3 -20 -20 -20 -20 -20 -20 -4 -20 -20 -20 2 -20 -20 -20 -20 -20 -20 -20 -20 -20 -20 -20 -20 -20 -20 -20 -20 5 7 -20 4 -20
-20 -20 -20 -20 -20 -20 -20 -20 8 15 -20 -20 -20 -20 -20 -20 -20 -20 -20 -16 -4 -13 -20 -20 -20 -20 -20 -20 -20 -20 -20 -20 -20 -20 -20 -20 -20 -19 11 3 10 -2 -20
-20 -20 -20 -20 -20 -20 -20 -20 -20 -19 -20 -20 -20 -20 -20 -20 -20 -20 -20 -20 -20 -20 -20 -20 -20 -20 -20 -20 -20 -20 -20 -20 -20 -20 -20 -20 3 -3 9 -16 9 16 -20
-20 -20 -20 -20 -20 -20 -20 -20 -20 -20 -20 -20 -20 -20 -20 -20 -20 -20 -20 -20 -20 -20 -20 -20 -20 -20 -20 -20 -20 -20 -20 -20 -20 -20 -20 -20 -20 6 -0 9 11 -14 -20
-20 -20 -20 -20 -20 -20 -20 -20 -20 -20 -20 -20 -20 -20 -20 -20 -20 -20 -20 -20 -20 -20 -20 -20 -20 -20 -20 -20 -20 -20 -20 -20 -20 -20 -20 -20 -20 -20 -7 -20 -20 -20 -20
-20 -20 -20 -20 -20 -20 -20 -20 -20 -20 -20 -20 -20 -20 -20 -20 -20 -20 -20 -20 -20 -20 -20 -20 -20 -20 -20 -20 -20 -20 -20 -20 -20 -20 -20 -20 -20 -20 -20 -20 -20 -20 -20
-20 -20 -20 -20 -20 -20 -20 -20 -20 -20 -20 -20 -20 -20 -20 -20 -20 -20 -20 -20 -20 -20 -20 -20 -20 -20 -20 -20 -20 -20 -20 -20 -20 -20 -20 -20 -20 -20 -20 -20 -20 -20 -20
-20 -20 -20 -20 -20 -20 -20 -20 -20 -20 -20 -20 -20 -20 -20 -20 -20 -20 -20 -20 -20 -20 -20 -20 -20 -20 -20 -20 -20 -20 -20 -20 -20 -20 -20 -20 -20 -20 -20 -20 -20 -20 -20
-20 -20 -20 -20 -20 -20 -20 -20 -20 -20 -20 -20 -20 -20 -20 -20 -20 -20 -20 -20 -20 -20 -20 -20 -20 -20 -20 -20 -20 -20 -20 -20 -20 -20 -20 -20 -20 -20 -20 -20 -20 -20 -20
-20 -20 -20 -20 -20 -20 -20 -20 -20 -20 -20 -6 -20 -20 -20 -20 -20 -20 -20 -20 -20 -20 -20 -20 -20 -20 -20 -20 -20 -20 -20 -20 -20 -20 -20 -20 -20 -20 -20 -20 -20 -20 -20
-20 -20 -20 -20 -20 -20 -20 -20 -20 -20 -20 -20 -20 -20 -20 -20 -20 -20 -20 -20 -20 -20 -20 -20 -20 -20 -20 -20 -20 -20 -20 -20 -20 -20 -20 -20 -20 -20 -20 -20 -20 -20 -20
-20 -20 -20 -20 -20 -20 -20 -20 -20 -20 -20 -20 -20 -20 -20 -20 -20 -20 -20 -20 -20 -20 -20 -20 -20 -20 -20 -20 -20 -20 -20 -20 -20 -20 -20 -20 -20 -20 -20 -20 -20 -20 -20
-20 -20 -20 -20 -20 -20 -20 -20 -20 -20 29 -20 -6 18 -20 -20 -20 -20 -20 -20 -20 -20 -20 -20 -20 -20 -20 -20 -20 -20 -20 -20 -20 -20 -20 -20 -20 -20 -20 -20 -20 -20 -20
-20 -20 -20 -20 -20 -20 -20 -20 -20 -20 -20 -20 -20 -20 -20 -6 -7 -10 -20 1 14 -20 -20 -11 -20 -18 -20 -20 -20 5 -20 -20 -20 -20 -20 -20 -20 -20 -20 -20 -20 -20 -20
-20 -20 -20 -20 -20 -20 -20 -20 -20 -20 -20 -20 -20 -20 -20 -20 -20 -20 -20 -20 -2 19 -20 20 3 23 20 -13 -20 25 -20 -20 -20 -20 -20 -20 -20 -20 -20 -20 -20 -20 -20
-20 -20 -20 -20 -20 -20 -20 -20 -20 -20 -20 -20 -20 -20 -20 -20 -20 -20 -20 -20 -18 13 26 12 18 12 6 19 17 -13 -2 -20 -20 -20 -20 -15 15 -16 -20 -20 -20 -18 -3
-20 -20 -20 -20 -20 -20 -20 -20 -20 -20 -20 -20 -20 -20 -20 -20 -5 -0 -20 -19 -20 28 22 16 15 19 25 10 22 -10 -17 19 -20 -20 -20 18 11 11 2 22 -8 -7 -17
-20 -20 -20 -20 -20 -20 -20 -20 -20 -20 -20 -20 -20 -20 -20 -20 -20 -5 3 13 17 12 18 24 19 18 20 26 24 25 12 22 18 12 -20 0 20 17 12 5 22 27 6

GFSSE_prec_radar_042.txt.gz
Reflectivity
-16 -20 -20 -20 -20 -20 14 -19 -20 3 -20 -14 -4 -20 -20 -20 -20 -20 -20 1 -2 12 -6 -20 -20 -20 -20 -20 -20 -20 -20 -20 -20 -20 -20 -20 -20 -20 -20 -20 -6 -20 -20
-20 -20 -20 7 -13 -18 -20 15 -8 -20 10 3 9 0 -20 -20 -20 -20 -20 0 -15 -20 -20 -20 -20 -20 -20 -20 -20 -20 -20 -20 -20 -20 -20 -20 -20 -20 -20 -20 -20 -20 -20
-20 -6 -20 7 -14 -14 -20 -20 -4 -20 6 -2 -20 -20 -20 -20 -20 -20 -9 -1 0 -20 -20 -20 -20 -20 -20 -20 -20 -20 -20 -20 -20 -20 -20 -20 -20 -20 -20 -20 -20 -20 -20
-20 -12 1 5 7 -16 -20 -20 -20 -8 -6 -20 -20 -20 -20 -20 -10 -10 1 16 12 -20 -20 -20 -20 -20 -20 -20 -20 -20 -20 -20 -20 -20 -20 -20 -20 -10 -20 -20 -20 -20 9
-20 -20 -20 -20 -6 -20 -20 -20 -20 -20 -6 -20 -20 -20 -20 -20 13 16 14 -10 -20 -20 -20 -20 -20 -20 -20 -20 -20 -20 -20 -20 -20 -20 -20 -20 -20 -11 -18 -17 5 11 13
-20 -20 -20 -20 -20 -20 -20 -20 -20 -16 -20 -20 -20 -20 -20 1 10 3 -20 -20 -20 -20 -20 -20 -20 -20 -20 -20 -20 -20 -20 -20 -20 -20 -20 -20 -20 -9 9 10 -15 9 -19
-20 -20 -1 8 -20 -20 -12 -18 -13 -20 -20 -20 -20 -20 -20 -17 4 -20 -20 -20 -20 -20 -20 -20 -20 -20 -20 -20 -20 -20 -20 -20 -20 -20 -20 -20 -20 -20 9 -13 12 -13 6
-20 -20 -20 -10 -20 -20 -19 -20 -20 -10 -20 -20 -20 -20 -20 -17 -2 -4 -20 -20 -20 -20 -20 -20 -20 -20 -20 -20 -20 -20 -20 -20 -20 -20 -20 -20 -20 -20 7 -17 -20 -1 14
-20 -20 -20 -20 -20 -20 -20 -10 -10 2 -20 -20 -20 -20 -20 -20 -20 -2 -20 -20 -20 -20 -20 -20 -20 -20 -20 -20 -20 -20 -20 -20 -20 -20 -20 -20 -20 -20 7 -5 -20 12 -14
-20 -20 -20 -20 -20 -20 -20 -13 3 -18 -20 -20 -20 -20 -20 -20 -20 -20 -20 -20 -1 -19 -20 -20 -20 -20 -20 -20 -20 -20 -20 -20 -20 -20 -20 -20 -20 -10 5 1 -20 -6 -11
-20 -20 -20 -20 -20 -20 -20 -20 -1 -20 -20 -20 -20 -20 -20 -20 -20 -20 -20 -20 -8 -6 -20 -20 -20 -20 -20 -20 -20 -20 -20 -20 -20 -20 -20 -20 -20 8 5 10 10 13 6
-20 -20 -20 -20 -20 -20 -20 -20 -20 -20 -20 -20 -20 -20 -20 -20 -20 -20 -20 -20 -20 -20 -20 -20 -20 -20 -20 -20 -20 -20 -20 -20 -20 -20 -20 -20 3 4 -8 15 15 13 -20
-20 -20 -20 -20 -20 -20 -20 -20 -20 -20 -20 -20 -20 -20 -20 -20 -20 -20 -20 -20 -20 -20 -20 -20 -20 -20 -20 -20 -20 -20 -20 -20 -20 -20 -20 -20 -20 -20 -18 -18 -20 -20 -20
-20 -20 -20 -20 -20 -20 -20 -20 -20 -20 -20 -20 -20 -20 -20 -20 -20 -20 -20 -20 -20 -20 -20 -20 -20 -20 -20 -20 -20 -20 -20 -20 -20 -20 -20 -20 -20 -20 -20 -20 -20 -20 -20
-20 -20 -20 -20 -20 -20 -20 -20 -20 -20 -20 -20 -20 -20 -20 -20 -20 -20 -20 -20 -20 -20 -20 -20 -20 -20 -20 -20 -20 -20 -20 -20 -20 -20 -20 -20 -20 -20 -20 -20 -20 -20 -20
-20 -20 -20 -20 -20 -20 -20 -20 -20 -20 -20 -20 -20 -20 -20 -20 -20 -20 -20 -20 -20 -20 -20 -20 -20 -20 -20 -20 -20 -20 -20 -20 -20 -20 -20 -20 -20 -20 -20 -20 -20 -20 -20
-20 -20 -20 -20 -20 -20 -20 -20 -20 -20 -20 -20 -20 -20 -20 -20 -20 -20 -20 -20 -20 -20 -20 -20 -20 -20 -20 -20 -20 -20 -20 -20 -20 -20 -20 -20 -20 -20 -20 -20 -20 -20 -20
-20 -20 -20 -20 -20 -20 -20 -20 -20 -20 -20 -20 -20 -20 -20 -20 -20 -20 -20 -20 -20 -20 -20 -20 -20 -20 -20 -20 -20 -20 -20 -20 -20 -20 -20 -20 -20 -20 -20 -20 -20 -20 -20
-20 -20 -20 -20 -20 -20 -20 -20 -20 -20 -20 -20 -20 -20 -20 -20 -20 -20 -20 -20 -20 -20 -20 -20 -20 -20 -20 -20 -20 -20 -20 -20 -20 -20 -20 -20 -20 -20 -20 -20 -20 -20 -20
-20 -20 -20 -20 -20 -20 -20 -20 -20 -20 -20 -20 -20 -20 -20 -20 -20 -20 -20 -20 -20 -20 -20 -20 -20 -20 -20 -20 -20 -20 -20 -20 -20 -20 -20 -20 -20 -20 -20 -20 -20 -20 -20
-20 -20 -20 -20 -20 -20 -20 -20 -20 -20 -20 -20 -20 -20 -11 4 -8 32 -20 -20 -20 -20 -20 -20 -20 -14 25 -20 -20 -20 -20 -20 -20 -20 -20 -20 -20 -20 -20 -20 -20 -20 -20
-20 -20 -20 -20 -20 -20 -20 -20 -20 -20 -20 -20 -20 -20 -20 -20 -18 -20 -20 -20 -19 -13 -15 18 -20 -20 23 20 22 20 -20 -20 -20 -20 -20 -20 -20 -20 -20 -20 -20 -20 -20
-20 -20 -20 -20 -20 -20 -20 -20 -20 -20 -20 -20 -20 -20 -20 -20 -20 0 -2 -12 -20 -20 3 3 -11 3 28 5 -18 19 -20 -20 -20 -20 -20 -20 -20 -20 -20 -5 10 -6 -20
-20 -20 -20 -20 -20 -20 -20 -20 -20 -20 -20 -20 -20 -20 -20 -20 -20 -20 -20 -20 -20 -20 -20 -20 -20 16 20 11 22 17 -1 -14 13 -20 -20 -20 -20 -20 -20 -20 -5 -5 -6
-20 -20 -20 -20 -20 -20 -20 -20 -20 -20 -20 -20 -20 -20 -20 -20 -20 -20 -20 -20 6 -20 -20 -20 -19 6 11 10 -17 20 19 -19 -18 20 -2 -19 17 17 -7 -20 -20 -14 3
-20 -20 -20 -20 -20 -20 -20 -20 -20 -20 -20 -20 -20 -20 -20 -20 -20 -20 -20 -20 -20 -20 12 -20 -20 -3 -4 -20 23 22 21 23 1 24 8 10 33 37 3 13 -2 -11 0

GFSSE_prec_radar_045.txt.gz
Reflectivity
-20 -16 -20 -15 -12 -20 -20 3 -6 13 -12 -16 -17 -20 -20 -20 -20 -20 -7 -15 -11 -20 -20 -20 -20 -20 -20 -20 -20 -20 -20 -20 -20 -20 -20 -20 -20 -20 -20 -18 -20 -20 -20
-20 -0 -20 -20 -19 10 -17 -19 -20 -20 -20 8 3 -19 -20 -20 -20 -20 24 -20 -20 -20 -20 -20 -20 -20 -20 -20 -20 -20 -20 -20 -20 -20 -20 -20 -20 -20 -20 -20 -20 -20 -20
-4 -20 8 -20 11 -20 19 -20 -17 -14 7 2 -20 -20 -20 -20 -20 -20 13 -19 -20 -20 -20 -20 -20 -20 -20 -20 -20 -20 -20 -20 -20 -20 -20 -20 -20 -20 -20 -20 -20 -20 -20
-20 -20 14 -20 3 -20 -20 -20 -12 -18 -20 -20 -20 -20 -20 -20 -5 1 11 6 -18 -20 -20 -20 -20 -20 -20 -20 -20 -20 -20 -20 -20 -20 -20 -20 -20 1 -20 -20 -20 -20 -20
-20 -20 7 -20 -5 -20 -20 -20 -20 -9 -20 -20 -20 -20 -20 7 10 0 7 -5 -20 -20 -20 -20 -20 -20 -20 -20 -20 -20 -20 -20 -20 -20 -20 -20 -20 -3 -20 -20 12 17 -1
-20 -20 11 -20 -20 -20 -18 -10 11 -20 -20 -20 -20 -20 -20 11 13 10 -2 -20 -20 -20 -20 -20 -20 -20 -20 -20 -20 -20 -20 -20 -20 -20 -20 -20 -20 10 18 -17 5 -0 -20
-20 -20 -20 -14 -20 -20 -20 15 -20 -20 -20 -20 -20 -20 0 0 9 -20 -20 -20 -20 -20 -20 -20 -20 -20 -20 -20 -20 -20 -20 -20 -20 -20 -20 -20 -20 -13 9 -7 1 -20 -12
-20 -20 -20 7 -20 -20 -19 -20 -20 -20 -20 -20 -20 -20 -13 -3 14 4 -20 -20 -20 -20 -20 -20 -20 -20 -20 -20 -20 -20 -20 -20 -20 -20 -20 -20 -20 -20 8 -20 -20 -20 9
-20 -20 -20 -20 -20 -20 9 -13 -6 -20 -20 -20 -20 -20 -20 -20 -13 -2 -20 -20 -20 -20 -20 -20 -20 -20 -20 -20 -20 -20 -20 -20 -20 -20 -20 -20 -20 -20 7 -20 -20 -1 9
-20 -20 -20 -20 -20 -20 -20 6 12 8 -20 -20 -20 -20 -20 -20 -20 -20 -20 -20 -20 -20 -20 -20 -20 -20 -20 -20 -20 -20 -20 -20 -20 -20 -20 -20 -20 -10 -0 -17 -20 -9 11
-20 -20 -20 -20 -20 -20 -20 -15 10 -20 -20 -20 -20 -20 -20 -20 -20 -20 -20 -20 0 -20 -20 -20 -20 -20 -20 -20 -20 -20 -20 -20 -20 -20 -20 -20 -20 14 16 15 6 12 15
-20 -20 -20 -20 -20 -20 -20 -20 -20 -20 -20 -20 -20 -20 -20 -20 -20 -20 -20 -20 -20 -20 -20 -20 -20 -20 -20 -20 -20 -20 -20 -20 -20 -20 -20 -20 -3 7 -15 11 12 10 6
-20 -20 -20 -20 -20 -20 -20 -20 -20 -20 -20 -20 -20 -20 -20 -20 -20 -20 -20 -20 -20 -20 -20 -20 -20 -20 -20 -20 -20 -20 -20 -20 -20 -20 -20 -20 6 -1 5 -17 -19 -18 -20
-20 -20 -20 -20 -20 -20 -20 -20 -20 -20 -20 -20 -20 -20 -20 -20 -20 -20 -20 -20 -20 -20 -20 -20 -20 -20 -20 -20 -20 -20 -20 -20 -20 -20 -20 -20 -20 -20 -20 -20 -20 -20 -20
-20 -20 -20 -20 -20 -20 -20 -20 -20 -20 -20 -20 -20 -20 -20 -20 -20 -20 -20 -20 -20 -20 -20 -20 -20 -20 -20 -20 -20 -20 -20 -20 -20 -20 -20 -20 -20 -20 -20 -20 -20 -20 -20
-20 -20 -20 -20 -20 -20 -20 -20 -20 -20 -20 -20 -20 -20 -20 -20 -20 -20 -20 -20 -20 -20 -20 -20 -20 -20 -20 -20 -20 -20 -20 -20 -20 -20 -20 -20 -20 -20 -20 -20 -20 -20 -20
-20 -20 -20 -20 -20 -20 -20 -20 -20 -20 -20 -20 -20 -20 -20 -20 -20 -20 -20 -20 -20 -20 -20 -20 -20 -20 -20 -20 -20 -20 -20 -20 -20 -20 -20 -20 -20 -20 -20 -20 -20 -20 -20
-20 -20 -20 -20 -20 -20 -20 -20 -20 -20 -20 -20 -20 -20 -20 -20 -20 -20 -20 -20 -20 -20 -20 -20 -20 -20 -20 -20 -20 -20 -20 -20 -20 -20 -20 -20 -20 -20 -20 -20 -20 -20 -20
-20 -20 -20 -20 -20 -20 -20 -20 -20 -20 -20 -20 -20 -20 -20 -20 -20 -20 -20 -20 -20 -20 -20 -20 -20 -20 -20 -20 -20 -20 -20 -20 -20 -20 -20 -20 -20 -20 -20 -20 -20 -20 -20
-20 -20 -20 -20 -20 -20 -20 -20 -20 -20 -20 -20 -20 -20 -20 -20 -20 -20 -20 -20 -20 -20 -20 -20 -20 -20 -20 -20 -20 -20 -20 -20 -20 -20 -20 -20 -20 -20 -20 -20 -20 -20 -20
-20 -20 -20 -20 -20 -20 -20 -20 -20 -20 -20 -20 -20 -20 -20 -20 -20 -20 -20 -20 -20 -20 -20 -20 -20 -20 7 -20 25 -20 -20 -20 -20 -20 -20 -20 -20 -20 -20 -20 -20 -20 -20
-20 -20 -20 -20 -20 -20 -20 -20 -20 -20 -20 -20 -20 -20 -20 -20 -10 -20 -20 4 -20 -20 -20 -20 -10 8 -20 -20 27 -5 -20 -20 -20 -20 -20 -20 -20 -20 -20 -20 -20 -16 -3
-20 -20 -20 -20 -20 -20 -20 -20 -20 -20 -20 -20 -20 -20 -20 -20 -20 -20 -20 -20 -20 -20 -20 -20 -20 -20 15 -20 -20 2 -20 -20 -20 -20 -20 -20 -20 -20 -20 -2 -20 -20 -17
-20 -20 -20 -20 -20 -20 -20 -20 -20 -20 -20 -20 -20 -20 -20 -20 -20 -20 -20 -20 -20 -20 -20 -20 -20 -20 -20 -11 -20 -14 -5 8 -20 -20 -20 -20 -20 -13 -10 30 10 -20 -13
-20 -20 -20 -20 -20 -20 -20 -20 -20 -20 -20 -20 -20 -20 -20 -20 -20 -20 -20 -20 -20 -20 -20 -20 -20 -20 10 -9 -20 14 10 11 13 13 -17 -20 -18 -20 11 -6 -20 -20 19
-20 -20 -20 -20 -20 -20 -20 -20 -20 -20 -20 -20 -20 -20 -20 -20 -20 -20 -20 -20 -20 -20 -17 -15 -18 -17 10 15 -20 -20 -17 -20 12 -15 -17 4 -20 -20 -20 -20 -20 7 23

GFSSE_prec_radar_048.txt.gz
Reflectivity
-20 -5 -20 -3 -20 -15 -1 -1 0 -1 7 13 -20 -20 -20 -20 -20 -20 -20 -18 -20 -20 -20 -3 7 -17 -20 -20 -20 -20 -20 -20 -20 -20 -20 -20 -20 -20 -19 -20 -20 -20 -15
-20 -1 -20 -13 -20 -20 -20 -20 5 4 -20 8 -13 -20 -20 -20 -20 0 -20 -20 -20 -20 -20 -20 -20 -20 -20 -20 -20 -20 -20 -20 -20 -20 -20 -20 -20 -20 -20 -20 -20 -20 -1
-20 -14 -15 -4 -20 -20 -20 -20 -20 -20 -20 -20 -20 -20 -20 -20 -20 10 -20 -20 -20 -20 -20 -20 -20 -20 -20 -20 -20 -20 -20 -20 -20 -20 -20 -20 -20 -20 -20 -20 -20 -20 -20
-20 -14 7 -20 16 4 -20 -20 -20 -18 -20 -20 -20 -20 -20 -20 -20 12 -15 -17 -20 -20 -20 -20 -20 -20 -20 -20 -20 -20 -20 -20 -20 -20 -20 -20 -20 -20 -20 -20 -5 -20 -18
-20 -20 -20 -20 -20 -20 -20 -20 -20 -17 -20 -1 -20 -20 -20 -12 -2 11 -14 -18 -20 -20 -20 -20 -20 -20 -20 -20 -20 -20 -20 -20 -20 -20 -20 -20 -20 -20 -2 -7 -0 9 17
-20 -20 17 -20 -20 -20 -20 -20 15 -20 -20 -20 -20 -20 -14 4 14 13 1 -20 -20 -20 -20 -20 -20 -20 -20 -20 -20 -20 -20 -20 -20 -20 -20 -20 -20 16 -16 -19 -17 -20 -20
-20 -20 -12 10 -20 -20 -20 -8 -20 -20 -20 -20 -20 -20 5 14 17 -1 -20 -20 -20 -20 -20 -20 -20 -20 -20 -20 -20 -20 -20 -20 -20 -20 -20 -20 -20 15 12 -18 9 -20 -20
-20 -20 -7 -20 -20 -20 -18 -1 -20 -20 -20 -20 -20 -20 -8 17 14 5 -20 -20 -20 -20 -20 -20 -20 -20 -20 -20 -20 -20 -20 -20 -20 -20 -20 -20 -20 -20 5 -20 -20 -20 2
-20 -20 -20 14 -20 -20 -10 -20 -7 -4 -20 -20 -20 -20 -20 -18 9 15 -20 -20 -20 -20 -20 -20 -20 -20 -20 -20 -20 -20 -20 -20 -20 -20 -20 -20 -20 -20 10 -20 -20 -12 9
-20 -20 -20 -20 -20 -20 16 7 8 -20 -20 -20 -20 -20 -20 -20 -20 -20 -20 -20 -20 -20 -20 -20 -20 -20 -20 -20 -20 -20 -20 -20 -20 -20 -20 -20 -20 -20 11 -20 -20 -7 10
-20 -20 -20 -20 -20 -20 -20 -2 12 -5 -20 -20 -20 -20 -20 -20 -20 -20 -20 -20 -6 -20 -20 -20 -20 -20 -20 -20 -20 -20 -20 -20 -20 -20 -20 -20 -20 -3 -17 13 7 5 3
-20 -20 -20 -20 -20 -20 -20 -20 -18 -20 -20 -20 -20 -20 -20 -20 -20 -20 -20 -20 -5 -20 -20 -20 -20 -20 -20 -20 -20 -20 -20 -20 -20 -20 -20 -20 -20 3 11 10 2 2 9
-20 -20 -20 -20 -20 -20 -20 -20 -20 -20 -20 -20 -20 -20 -20 -20 -20 -20 -20 -20 -20 -20 -20 -20 -20 -20 -20 -20 -20 -20 -20 -20 -20 -20 -20 -20 -20 17 11 -12 -20 -20 -20
-20 -20 -20 -20 -20 -20 -20 -20 -20 -20 -20 -20 -20 -20 -20 -20 -20 -20 -20 -20 -20 -20 -20 -20 -20 -20 -20 -20 -20 -20 -20 -20 -20 -20 -20 -20 -20 8 5 -20 -20 -20 -20
-20 -20 -20 -20 -20 -20 -20 -20 -20 -20 -20 -20 -20 -20 -20 -20 -20 -20 -20 -20 -20 -20 -20 -20 -20 -20 -20 -20 -20 -20 -20 -20 -20 -20 -20 -20 -20 -20 -20 -20 -20 13 9
-20 -20 -20 -20 -20 -20 -20 -20 -20 -20 -20 -20 -20 -20 -20 -20 -20 -20 -20 -20 -20 -20 -20 -20 -20 -20 -20 -20 -20 -20 -20 -20 -20 -20 -20 -20 -20 -20 -20 -20 -20 -20 -10
-20 -20 -20 -20 -20 -20 -20 -20 -20 -20 -20 -20 -20 -20 -20 -20 -20 -20 -20 -20 -20 -20 -20 -20 -20 -20 -20 -20 -20 -20 -20 -20 -20 -20 -20 -20 -20 -20 -20 -20 -20 -20 -20
-20 -20 -20 -20 -20 -20 -20 -20 -20 -20 -20 -20 -20 -20 -20 -20 -20 -20 -20 -20 -20 -20 -20 -20 -20 -20 -20 -20 -20 -20 -20 -20 -20 -20 -20 -20 -20 -20 -20 -20 -20 -20 -20
-20 -20 -20 -20 -20 -20 -20 -20 -20 -20 -20 -20 -20 -20 -20 -20 -20 -20 -20 -20 -20 -20 -20 -20 -20 -20 -20 -20 -20 -20 -20 -20 -20 -20 -20 -20 -20 -20 -20 -20 -20 -20 -20
-20 -20 -20 -20 -20 -20 -20 -20 -20 -20 -20 -20 -20 -20 -20 -20 -20 -20 -20 -20 -20 -20 -20 -20 -20 -20 -20 -20 -20 -20 -20 -20 -20 -20 -20 -18 -20 -20 -20 -20 -20 -20 -20
-20 -20 -20 -20 -20 -20 -20 -20 -20 -20 -20 -20 -20 -20 -20 -20 -20 -20 -20 -20 -20 -20 -20 -20 -20 -20 -20 -20 -20 -20 -20 -20 -20 -20 -20 -20 -20 -20 -20 -20 -20 -20 -20
-20 -20 -20 -20 -20 -20 -20 -20 -20 -20 -20 -20 -20 -20 -20 -20 -20 -20 -20 -20 -20 -20 -20 -20 -20 -20 -20 -20 -20 -17 -20 -19 -20 -20 -20 -20 -20 -20 -20 -20 -20 -20 -20
-20 -20 -20 -20 -20 -20 -20 -20 -20 -20 -20 -20 -20 -20 -20 -20 -20 -20 -20 -20 -20 -20 -20 -20 -20 -20 -10 -20 -20 -12 -8 -15 -16 -20 -20 -20 -20 -20 -20 -20 -20 -20 -20
-20 -20 -20 -20 -20 -20 -20 -20 -20 -20 -20 -20 -20 -20 -20 -20 -20 -20 -20 -20 -20 -20 -20 -20 -20 -20 -20 -20 1 -12 -16 -15 13 -1 -13 -20 -20 -20 -20 -20 -11 -20 -20
-20 -20 -20 -20 -20 -20 -20 -20 -20 -20 -20 -20 -20 -20 -20 -20 -20 -20 -20 -20 -20 -20 -20 -20 -20 -20 -20 -20 -20 -20 -20 -20 -20 -5 -3 -20 -20 -12 -20 -20 -20 -20 -20
-20 -20 -20 -20 -20 -20 -20 -20 -20 -20 -20 -20 -20 -20 -20 -20 -20 -20 -20 -20 -20 -20 -20 -20 -20 -20 -1 -18 -15 -14 -20 -20 -20 -20 -20 -20 -20 -20 -20 -20 -20 -20 -20

GFSSE_prec_radar_051.txt.gz
Reflectivity
-20 -20 -20 6 9 10 8 8 10 10 14 12 -20 -20 -20 -20 -20 -20 -10 -20 -20 -20 9 -8 6 -0 -7 -3 -20 -20 -20 -20 -20 -20 -20 -20 -20 -20 -20 -20 -20 -12 13
-20 -12 -20 -20 13 -19 9 11 9 6 -18 13 -20 -20 -20 -20 -1 -18 -20 -20 -20 -20 -14 16 -20 -20 -20 -20 -20 -20 -20 -20 -20 -20 -20 -20 -20 -20 -20 -20 -20 -19 11
-20 -20 -20 -1 9 11 -12 -1 -7 5 -20 -20 -20 -20 -20 -20 14 -20 -20 -20 -20 -20 -20 -20 -20 -20 -20 -20 -20 -20 -20 -20 -20 -20 -20 -20 -20 -20 -20 -20 -20 -20 -20
-20 -20 -20 -20 -10 13 -20 -20 -20 -20 -20 -20 -20 -20 -20 -20 13 -20 -20 -20 -20 -20 -20 -20 -20 -20 -20 -20 -20 -20 -20 -20 -20 -20 -20 -20 -20 -20 -20 22 -18 -4 18
-20 -20 -12 -20 -8 -20 -5 -20 -10 -19 -20 -20 -20 -20 -20 -20 12 -1 -20 -20 -20 -20 -20 -20 -20 -20 -20 -20 -20 -20 -20 -20 -20 -20 -20 -20 -5 8 12 -10 -2 -1 -20
-20 -20 -20 -11 -20 -13 16 9 -20 -20 -20 -20 -20 -20 4 -13 3 13 -20 -20 -20 -20 -20 -20 -20 -20 -20 -20 -20 -20 -20 -20 -20 -20 -20 -20 -18 6 -16 -20 -20 -20 -20
-20 -20 -20 7 -20 -20 -20 12 -20 -20 -20 -20 -20 -20 -13 13 15 1 -20 -20 -20 -20 -20 -20 -20 -20 -20 -20 -20 -20 -20 -20 -20 -20 -20 -20 -20 13 7 -20 -20 -20 -20
-20 14 -20 -1 -20 -20 -19 -20 -20 -20 -20 -20 -20 -20 10 12 13 -20 -20 -20 -20 -20 -20 -20 -20 -20 -20 -20 -20 -20 -20 -20 -20 -20 -20 -20 -20 -16 -15 -20 -20 -20 -20
-20 -15 -11 -20 -20 -20 6 -7 -20 -20 -20 -20 -20 -20 -20 -20 -20 -20 -20 -20 -20 -20 -20 -20 -20 -20 -20 -20 -20 -20 -20 -20 -20 -20 -20 -20 -20 -20 -20 -18 -20 -20 -2
-20 -20 -20 -8 -20 -20 12 15 -7 3 -20 -20 -20 -20 -20 -20 -20 13 -20 -20 -20 -20 -20 -20 -20 -20 -20 -20 -20 -20 -20 -20 -20 -20 -20 -20 -20 -20 14 -17 -20 -20 -20
-20 -20 -20 -4 -20 -20 13 11 13 8 -20 -20 -20 -20 -20 -20 -20 -20 -20 -20 -20 -20 -20 -20 -20 -20 -20 -20 -20 -20 -20 -20 -20 -20 -20 -20 -20 -20 15 -19 -20 -20 -20
-20 -20 -20 -20 -20 -20 3 2 2 -20 -20 -20 -20 -20 -20 -20 -20 -20 -20 -20 -20 -20 -20 -20 -20 -20 -20 -20 -20 -20 -20 -20 -20 -20 -20 -20 -20 -20 10 -20 -20 -20 -20
-20 -20 -20 -20 -20 -20 -20 -20 -20 -20 -20 -20 -20 -20 -20 -20 -20 -20 -20 -20 -20 -20 -20 -20 -20 -20 -20 -20 -20 -20 -20 -20 -20 -20 -20 -20 -20 -20 14 -20 -20 -20 -20
-20 -20 -20 -20 -20 -20 -20 -20 -20 -20 -20 -20 -20 -20 -20 -20 -20 -20 -20 -20 -20 -20 -20 -20 -20 -20 -20 -20 -20 -20 -20 -20 -20 -20 -20 -20 -20 -20 -11 -18 -20 -20 -20
-20 -20 -20 -20 -20 -20 -20 -20 -20 -20 -20 -20 -20 -20 -20 -20 -20 -20 -20 -20 -20 -20 -20 -20 -20 -20 -20 -20 -20 -20 -20 -20 -20 -20 -20 -20 -20 -20 -20 -14 -13 -20 -12
-20 -20 -20 -20 -20 -20 -20 -20 -20 -20 -20 -20 -20 -20 -20 -20 -20 -20 -20 -20 -20 -20 -20 -20 -20 -20 -20 -20 -20 -20 -20 -20 -20 -20 -20 -20 -20 -20 -20 -20 -20 -11 -20
11 -20 -20 -20 -20 -20 -20 -20 -20 -20 -20 -20 -20 -20 -20 -20 -20 -20 -20 -20 -20 -20 -20 -20 -20 -20 -20 -20 -20 -20 -20 -20 -20 -20 -20 -20 -20 -20 -20 -20 -20 -20 -8
-2 8 -20 -20 -20 -20 -20 -20 -20 -20 -20 -20 -20 -20 -20 -20 -20 -20 -20 -20 -20 -20 -20 -20 -20 -20 -20 -20 -20 -20 -20 -20 -20 -20 -20 -20 -20 -20 -20 -20 -20 -20 -20
12 13 8 -20 -20 -20 -20 -20 -20 -20 -20 -20 -20 -20 -20 -20 -20 -20 -20 -20 -20 -20 -20 -20 -20 -20 -20 -20 -20 -20 -20 -20 -20 -20 -20 5 -20 -20 -20 -20 -20 -20 -20
-16 11 1 -20 -20 -20 -20 -20 -20 -20 -20 -20 -20 -20 -20 -20 -20 -20 -20 -20 -20 -20 -20 -20 -20 -20 -20 -20 -20 -20 -20 -20 -20 -20 -20 -20 -20 -20 -20 -20 -20 -20 -20
-20 -20 -20 -20 -20 -20 -20 -20 -20 -20 -20 -20 -20 -20 -20 -20 -20 -20 -20 -20 -20 -20 -20 -20 -20 -20 -20 -20 -20 -20 -20 -20 -20 -20 -20 -20 -20 -20 -20 -20 -20 -20 -20
-20 -20 -20 -20 -20 -20 -20 -20 -20 -20 -20 -20 -20 -20 -20 -20 -20 -20 -20 -20 -20 -20 -20 -20 -20 -20 -20 -20 -20 -20 -16 -20 -20 -20 -20 -20 -20 -20 -20 -20 -20 -20 -20
-20 -19 -10 -20 -20 -20 -20 -20 -20 -20 -20 -20 -20 -20 -20 -20 -20 -20 -20 -20 -20 -20 -20 2 -20 -1 7 -20 -20 -12 -14 -20 -20 -20 -20 -20 -20 -20 -20 -20 -20 -20 -20
-20 -4 3 2 -19 -20 -20 -20 -20 -20 -20 -20 -20 -20 -20 -20 -20 -20 -20 -20 -20 -20 -20 -20 -20 -20 -20 -20 -20 -20 -20 -20 -20 -20 -20 -20 -20 -20 -20 -20 -20 -20 -20
-20 -20 -20 -20 -20 -20 -20 -20 -20 -20 -20 -20 -20 -20 -20 -20 -20 -20 -20 -20 -20 -20 -20 -20 -20 -20 -20 13 -20 -20 -20 -20 -20 -20 -20 -20 -20 -20 -20 -20 -20 -20 -20
-20 -20 -20 -20 -20 -20 -20 -20 -20 -20 -20 -20 -20 -20 -20 -20 -20 -20 -20 -20 -20 -20 -20 -11 -20 -20 -20 -4 17 -20 -20 -20 -20 -20 -19 -13 -16 -20 -20 -20 -20 -20 -20

GFSSE_prec_radar_054.txt.gz
Reflectivity
-20 -20 15 -20 -20 3 -10 5 13 16 16 15 -1 -20 -18 -20 -7 -18 -20 -20 -6 8 -20 -9 2 6 -20 -20 -20 -20 -20 -20 -20 -20 -20 -20 -20 -20 -20 -20 11 1 -20
-20 -20 -20 -11 -20 -10 -20 -7 -8 8 11 4 -13 -20 -15 4 -19 -20 -20 -20 -20 -19 11 13 15 -1 -20 -20 -20 -20 -20 -20 -20 -20 -20 -20 -20 -20 -20 -20 -20 1 -9
-20 -20 -20 6 12 -7 -18 -3 -4 4 7 -20 -20 -20 -16 -7 -20 -20 -20 -20 -20 -19 9 -14 1 8 -17 -20 -20 -20 -20 -20 -20 -20 -20 -20 -20 -20 -15 -20 -20 -20 12
-20 -20 -20 -20 -20 -20 -0 3 -3 -20 -20 -20 -20 -20 -20 -2 -20 -20 -20 -20 -20 -20 -20 -20 -20 -20 -20 -20 -20 -20 -20 -20 -20 -20 -20 -20 -20 -11 2 -8 18 14 -1
-20 -20 -20 4 -20 -6 -10 -20 -20 -20 -20 -20 -20 -20 -20 14 3 -17 -20 -20 -20 -20 -20 -20 -20 -20 -20 -20 -20 -20 -20 -20 -20 -20 -20 0 -20 4 2 4 -16 -20 -20
-20 -20 -19 -20 14 -20 -20 -20 -20 -20 -20 -20 -20 -20 -20 15 -4 -20 -20 -20 -20 -20 -20 -20 -20 -20 -20 -20 -20 -20 -20 -20 -20 -20 -20 -20 15 11 -13 -20 -20 -20 -20
-20 -20 -20 -4 -16 -13 -20 -20 -20 -20 -20 -20 -20 -20 -13 12 4 -20 -20 -20 -20 -20 -20 -20 -20 -20 -20 -20 -20 -20 -20 -20 -20 -20 -20 -20 -20 14 -20 -20 -20 -20 -20
-20 -20 5 10 -20 -20 15 -20 -20 -20 -20 -20 -20 14 19 11 12 -6 -20 -20 -20 -20 -20 -20 -20 -20 -20 -20 -20 -20 -20 -20 -20 -20 -20 -20 -20 -7 -20 -20 -20 -20 -20
-14 -20 8 3 -20 -20 -20 -1 -20 -20 -20 -20 -20 -20 -14 -3 -20 -20 -20 -20 -20 -20 -20 -20 -20 -20 -20 -20 -20 -20 -20 -20 -20 -20 -20 -20 -20 -20 -20 -20 -20 -20 -20
9 11 -2 4 -20 7 -7 12 -20 -20 -20 -20 -20 -20 -20 -20 -18 9 -20 -20 -20 -20 -20 -20 -20 -20 -20 -20 -20 -20 -20 -20 -20 -20 -20 -20 -20 -20 -7 -20 -20 -20 -20
4 2 -20 -1 -20 -4 14 -11 10 -3 -20 -20 -20 -20 -20 -20 -20 -20 -20 -20 -20 -20 -20 -20 -20 -20 -20 -20 -20 -20 -20 -20 -20 -20 -20 -20 -20 -20 9 -20 -20 -20 -20
2 1 -18 -1 -14 -20 -6 -20 -13 -20 -20 -20 -20 -20 -20 -20 -20 -20 -20 -20 -20 -20 -20 -20 -20 -20 -20 -20 -20 -20 -20 -20 -20 -20 -20 -20 -20 -20 15 -18 -20 -20 -20
-20 -19 3 7 5 -20 9 -20 -20 -20 3 -20 -20 -20 -20 -20 -20 -20 -20 -20 -20 -20 -20 -20 -20 -20 -20 -20 -20 -20 -20 -20 -20 -20 -20 -20 -20 -20 4 0 -20 -20 -20
-20 -20 -20 -20 1 4 11 7 -18 -20 -20 -9 -20 -20 -20 -20 -20 -20 -20 -20 -20 -20 -20 -20 -20 -20 -20 -20 -20 -20 -20 -20 -20 -20 -20 -20 -20 -20 -0 -20 -20 -20 -20
0 -2 -20 -20 -20 -20 -4 8 1 -11 -20 -20 -20 -20 -20 -20 -20 -20 -20 -20 -20 -20 -20 -20 -20 -20 -20 -20 -20 -20 -20 -20 -20 -20 -20 -20 -20 -20 -20 -20 4 -15 -20
-20 -20 -20 -20 -20 -20 -20 3 4 3 -20 -20 -20 -20 -20 -20 -20 -20 -20 -20 -20 -20 -20 -20 -20 -20 -20 -20 -20 -20 -20 -20 -20 -20 -20 -20 -20 -20 -20 -20 -20 -18 4
-20 -20 -20 -20 -20 -20 -20 -20 -20 -20 -20 -20 -20 -20 -20 -20 -20 -20 -20 -20 -20 -20 -20 -20 -20 -20 -20 -20 -20 -20 -20 -20 -20 -20 -20 -20 -20 -20 -20 -20 -20 -20 -8
-20 -20 -19 -6 -20 -20 -20 -20 -20 -20 -20 -20 -20 -20 -20 -20 -20 -20 -20 -20 -20 -20 -20 -20 -20 -20 -20 -20 -20 -20 -20 -20 -20 -20 -20 -20 -20 -20 -20 -20 -20 -20 -20
-20 -20 -20 7 -17 -20 -20 -20 -20 -20 -20 -20 -20 -20 -20 -20 -20 -20 -20 -20 -20 -20 -20 -20 -20 -20 -20 -20 -20 -20 -20 -20 -20 -20 -20 -20 -20 -20 -20 -20 -20 -20 -20
-20 -20 -20 4 7 -20 -20 -20 -20 -20 -20 -20 -20 -20 -20 -20 -20 -20 -20 -20 -20 -20 -20 -20 -20 -20 -20 -20 -9 -20 -20 -20 -20 -20 -20 -20 -20 -20 -20 -20 -20 -20 -20
-20 -20 -20 -20 19 14 -3 -20 -20 -20 -20 -20 -20 -20 -20 -20 -20 -20 -20 -20 -20 -20 -20 -20 -20 -20 -1 -13 -20 -20 -20 -20 -20 -20 -20 -20 -20 -20 -20 -20 -20 -20 -20
-20 -20 -20 -20 -20 -20 -6 -20 -20 -20 -20 -20 -20 -20 -20 -20 -20 -8 -20 -20 -20 -17 -19 -19 -17 -10 -20 -20 -16 -16 -15 -20 -20 -20 -20 -20 -20 -20 -20 -20 -20 -20 -20
-20 -20 -20 -20 -20 -20 -18 -20 -20 -20 -20 -20 -20 -20 -20 -20 -20 -20 -19 -5 -12 5 6 1 1 10 -4 -9 -20 -11 -4 -20 -20 -20 -20 -20 -20 -20 -20 -20 -20 -20 -20
0 -19 -20 -20 -20 -20 -20 -20 -20 -20 -20 -20 -20 -20 -20 -20 -20 -20 -20 -20 -20 -20 -11 -20 -20 -19 -14 -14 -20 -20 -20 -17 -16 -20 -20 -20 -20 -20 -20 -20 -20 -20 -20
-9 -20 -20 -20 -20 -20 -20 -19 -20 -20 -20 -20 -20 -20 -20 -20 -20 -20 -20 -20 -20 -20 -20 -20 -20 -20 -20 -12 -18 -20 -20 -20 -10 8 -13 -4 -20 -20 -20 -20 -20 -20 -20
-20 9 -11 -20 -20 -20 -20 -20 -20 -20 -20 -20 -20 -20 -20 -20 -20 -20 -20 -20 -20 -20 -20 -20 -20 -20 -20 8 -9 9 -17 -5 -9 -10 -20 -20 -20 -20 -20 -20 -20 -20 -20

GFSSE_prec_radar_057.txt.gz
Reflectivity
-20 -20 -20 -17 -20 -20 -20 -9 -16 11 12 3 -20 -20 -10 16 -10 -20 -20 -13 -5 -20 -8 -9 -14 -20 -20 -20 -20 -20 -20 -20 -20 -20 -20 -20 -20 -20 -20 -20 14 3 -5
-20 -20 -20 -20 -20 -14 -20 -20 0 10 12 -18 -20 -19 -8 -19 -20 -20 -20 -20 -11 8 14 12 12 -20 -20 -20 -20 -20 -20 -20 -20 -20 -20 -20 -20 -20 -20 -20 -20 -20 15
-20 -20 -5 -20 -20 -20 -20 9 -20 12 -1 -4 -20 -20 -20 -20 -20 -20 -20 -20 -6 17 18 12 15 -18 -20 -20 -20 -20 -20 -20 -20 -20 -20 -20 -20 -15 -20 -20 -14 15 -6
-20 -20 -20 -10 -20 -20 -18 -20 -20 -3 -20 -20 -20 -20 -12 -19 -6 -20 -20 -20 -20 -20 -20 2 -19 -20 -20 -20 -20 -20 -20 -20 -20 -20 -20 -11 -20 -1 5 -3 -2 -20 -20
-20 -20 -7 14 -20 -20 -20 -20 -20 -20 -20 -20 -20 -20 14 -0 -18 -20 -20 -20 -20 -20 -20 -20 -20 -20 -20 -20 -20 -20 -20 -20 -20 -20 -20 -20 -14 0 -20 -20 -20 -20 -20
-20 -20 -20 -20 -20 -20 -20 -20 -20 -20 -20 -20 -20 -20 16 5 -20 -20 -20 -20 -20 -20 -20 -20 -20 -20 -20 -20 -20 -20 -20 -20 -20 -20 -20 -20 0 9 -20 -20 -20 -20 -20
-20 -20 -20 -20 -20 -20 -20 -20 -20 -20 -20 -20 -20 -20 16 -20 -20 -20 -20 -20 -20 -20 -20 -20 -20 -20 -20 -20 -20 -20 -20 -20 -20 -20 -20 -20 -20 -5 -20 -20 -20 -20 -20
-20 -20 -20 -13 -20 -20 -1 -20 -20 -20 -20 -20 -20 10 13 11 -20 -20 -20 -20 -20 -20 -20 -20 -20 -20 -20 -20 -20 -20 -20 -20 -20 -20 -20 -20 -20 -5 -20 -20 -20 -20 -20
-20 -20 -12 9 -9 -20 -20 -20 -20 -20 -20 -20 -20 9 -13 -0 -20 -20 -20 -20 -20 -20 -20 -20 -20 -20 -20 -20 -20 -20 -20 -20 -20 -20 -20 -20 -20 -20 -20 -20 -20 -20 -20
-20 -20 5 -1 -20 1 -12 11 -20 -20 -20 -20 -20 -20 -20 -20 -20 -20 -20 -20 -20 -20 -20 -20 -20 -20 -20 -20 -20 -20 -20 -20 -20 -20 -20 -20 -20 -20 3 -20 -20 -20 -20
-11 -18 17 8 -20 8 -7 -1 4 -20 -20 -20 -20 -20 -20 -20 -20 -20 -20 -20 -20 -20 -20 -20 -20 -20 -20 -20 -20 -20 -20 -20 -20 -20 -20 -20 -20 -20 5 -20 -20 -20 -20
-4 13 9 17 -20 -4 -4 -20 -16 -20 -20 -20 -20 -20 -20 -20 -20 -20 -20 -20 -20 -20 -20 -20 -20 -20 -20 -20 -20 -20 -20 -20 -20 -20 -20 -20 -20 -20 9 -1 -20 -20 -20
-4 -9 -16 4 -20 14 9 -20 -20 -20 -20 -20 -20 -20 -20 -20 -20 -20 -20 -20 -20 -20 -20 -20 -20 -20 -20 -20 -20 -20 -20 -20 -20 -20 -20 -20 -20 -20 -15 5 -20 -20 -20
-20 -20 -20 -13 -6 -0 5 -20 -20 -20 -20 -20 -20 -20 -20 -20 -20 -20 -20 -20 -20 -20 -20 -20 -20 -20 -20 -20 -20 -20 -20 -20 -20 -20 -20 -20 -20 -20 -20 -14 -20 -20 -20
-14 -4 -16 -18 -13 -14 13 -11 -20 -20 -20 -20 -20 -20 -20 -20 -20 -20 -20 -20 -20 -20 -20 -20 -20 -20 -20 -20 -20 -20 -20 -20 -20 -20 -20 -20 -20 -20 -20 -20 -5 -11 -20
10 -17 -17 -20 -10 -14 -18 4 -2 -8 -20 -20 -20 -20 -20 -20 -20 -20 -20 -20 -20 -20 -20 -20 -20 -20 -20 -20 -20 -20 -20 -20 -20 -20 -20 -20 -20 -20 -20 -20 -20 -20 -7
11 11 10 -5 -20 4 -20 -20 -19 -20 -20 -20 -20 -20 -20 -20 -20 -20 -20 -20 -20 -20 -20 -20 -20 -20 -20 -20 -20 -20 -20 -20 -20 -20 -20 -20 -20 -20 -20 -20 -20 -20 -20
-20 -20 -20 -10 -20 -20 -20 -20 -20 -20 -20 -20 -20 -20 -20 -20 -20 -20 -20 -20 -20 -20 -20 -20 -20 -20 -20 -20 -20 -20 -17 -15 -20 -20 -20 -20 -20 -20 -20 -20 -20 -20 -20
-20 -20 -20 -20 -20 -20 -20 -20 -20 -20 -20 -20 -20 -20 -20 -20 -20 -20 -20 -20 -20 -20 -20 -20 -20 -20 -18 -12 -0 -20 -20 -20 -20 -20 -20 -20 -20 -20 -20 -20 -20 -20 -20
-20 -20 -20 -20 -20 -20 -20 -18 -20 -20 -20 -20 -20 -20 -20 -20 -20 -20 -20 -20 -20 -20 -20 -19 6 4 -2 7 -20 -20 -20 -20 -20 -20 -20 -20 -20 -20 -20 -20 -20 -20 -20
-20 -20 -20 -20 -20 -20 -19 4 7 3 -17 -20 -20 -20 -20 -20 -20 -20 -20 -20 -7 -20 -20 1 -4 1 -1 -20 -18 -20 -20 -20 -20 -20 -20 -20 -20 -20 -20 -20 -20 -20 -20
-20 -20 -20 -20 -20 -20 -1 -18 1 12 3 -20 -13 -14 -20 -20 -8 1 -6 1 -5 -6 -6 -7 -8 1 -4 1 -6 16 -20 -20 -20 -20 -20 -20 -20 -20 -20 -20 -20 -20 -20
-20 -20 -20 -20 -20 -20 -13 5 -15 -20 -12 -8 -20 -8 -19 -20 -20 -20 -20 0 -16 14 4 -0 -4 8 13 3 -12 1 -1 -20 -20 -20 -20 -20 -20 -20 -20 -20 -20 -20 -20
-20 -20 -20 -20 -20 -20 -20 -20 -20 -20 -9 -20 -20 -20 -20 -20 -20 -20 -20 -20 -20 -16 -15 -20 -20 -1 4 5 -18 -20 -0 9 0 -0 -20 -20 -20 -20 -20 -20 -20 -20 -20
-20 -19 -20 -20 -17 -17 -20 -20 -20 -20 -20 -20 -20 -20 -20 -20 -20 -20 -20 -20 -20 -20 -20 -20 -20 -20 -20 -20 -20 6 6 -20 -11 -19 -20 -20 -20 -20 -20 -20 -20 -20 -20
-20 -2 13 3 -6 -4 2 -20 -20 -20 -20 -20 -20 -20 -20 -20 -20 -20 -20 -20 -20 -20 -20 -20 -20 -20 -20 -20 -4 -14 2 -20 -12 -20 -19 -16 -20 -20 -20 -20 -20 -20 -20

GFSSE_prec_radar_060.txt.gz
Reflectivity
-20 -20 -20 -20 -20 -15 -20 -20 -20 -20 -14 -20 -20 -20 11 -20 -16 -20 -20 -20 -9 16 -3 7 -19 -20 -20 -20 -20 -20 -20 -20 -20 -20 -20 -20 -20 -20 -20 -20 -20 5 -20
-20 -20 -20 -20 -20 -20 -20 -20 -20 -20 -20 -20 -20 23 -19 -20 -20 -20 -20 -3 7 1 3 13 -2 -20 -20 -20 -20 -20 -20 -20 -20 -20 -20 -20 -20 -20 -20 -20 15 8 12
-20 -20 -20 -20 -17 -20 -20 8 -20 -20 -20 -20 3 -20 -20 -20 -20 -20 -20 14 18 13 15 15 -5 -20 -20 -20 -20 -20 -20 -20 -20 -20 3 2 -20 -20 8 -18 5 -2 10
-20 -20 -20 -20 13 10 4 -20 -20 -20 -20 -20 2 -5 -20 -20 -20 -20 -20 -15 -4 16 13 -15 -20 -20 -20 -20 -20 -20 -20 -20 -20 -17 2 -20 -11 13 -2 -14 3 -20 -20
-20 -20 -20 -20 15 -20 -20 -20 -20 -20 -20 -20 -20 13 -2 -20 -20 -20 -20 -20 -20 -20 -20 -20 -20 -20 -20 -20 -20 -20 -20 -20 -20 -20 -9 4 2 -14 -20 -20 -20 -20 -20
-20 -20 -20 3 -20 -20 -20 -20 -20 -20 -20 -20 -20 13 7 -20 -20 -20 -20 -20 -20 -20 -20 -20 -20 -20 -20 -20 -20 -20 -20 -20 -20 -20 -20 -3 -15 -20 -20 -20 -20 -20 -20
-20 -20 -20 -20 -20 -20 -20 -20 -20 -20 -20 -20 -20 -20 -2 -20 -20 -20 -20 -20 -20 -20 -20 -20 -20 -20 -20 -20 -20 -20 -20 -20 -20 -20 -20 -20 -20 -20 -20 -20 -20 -20 -20
-20 -20 -20 -20 -20 -20 -20 -20 -20 -20 -20 -20 -20 14 -7 -20 -20 -20 -20 -20 -20 -20 -20 -20 -20 -20 -20 -20 -20 -20 -20 -20 -20 -20 -20 -20 -20 -20 -20 -20 -20 -20 -20
-20 -20 -20 -20 -20 -20 -20 -20 -20 -20 -20 -20 -20 13 7 -20 -20 -20 -20 -20 -20 -20 -20 -20 -20 -20 -20 -20 -20 -20 -20 -20 -20 -20 -20 -20 -20 -20 -20 -20 -20 -20 -20
-20 -20 -2 -20 -20 -20 -20 -20 -20 -20 -20 -20 -20 -20 -20 -20 -20 -20 -20 -20 -20 -20 -20 -20 -20 -20 -20 -20 -20 -20 -20 -20 -20 -20 -20 -20 -20 -20 -13 -20 -20 -20 -20
-4 -14 11 1 -6 -20 -20 -5 -20 -20 -20 -20 -20 -20 -20 -20 -20 -20 -20 -20 -20 -20 -20 -20 -20 -20 -20 -20 -20 -20 -20 -20 -20 -20 -20 -20 -20 -20 -2 -20 -20 -20 -20
10 9 -16 -9 -20 5 3 -20 -20 -20 -20 -20 -20 -20 -20 -20 -20 -20 -20 -20 -20 -20 -20 -20 -20 -20 -20 -20 -20 -20 -20 -20 -20 -20 -20 -20 -20 -20 -15 9 -13 -20 -20
2 -20 9 -20 -19 -17 -20 -20 -20 -20 -20 -20 -20 -20 -20 -20 -20 -20 -20 -20 -20 -20 -20 -20 -20 -20 -20 -20 -20 -20 -20 -20 -20 -20 -20 -20 -20 -20 -20 -20 -20 -20 -20
22 -17 3 -20 -4 -13 -20 -20 -20 -20 -20 -20 -20 -20 -20 -20 -20 -20 -20 -20 -20 -20 -20 -20 -20 -20 -20 -20 -20 -20 -20 -20 -20 -20 -20 -20 -20 -20 -20 -20 -20 -20 -20
2 -10 3 -4 -20 8 -11 1 -20 -20 -20 -20 -20 -20 -20 -20 -20 -20 -20 -20 -20 -20 -20 -20 -20 -20 -20 -20 -20 -20 -20 -20 -20 -20 -20 -20 -20 -20 -20 -20 -20 -20 -20
-12 -2 -13 -20 -6 8 -10 -17 -13 -20 -20 -20 -20 -20 -20 -20 -20 -20 -20 -20 -20 -20 -20 -20 -20 -20 -20 -20 -20 -20 -20 -20 -20 -20 -20 -20 -20 -20 -20 -20 -20 -20 -20
9 11 -20 -5 -17 -20 11 4 -20 -20 -20 -20 -20 -20 -20 -20 -20 -20 -20 -20 -20 -20 -20 -20 -20 -20 -20 -20 -20 -20 -20 -20 -20 -20 -20 -20 -20 -20 -20 -20 -20 -20 -20
5 8 23 17 -5 -16 21 -8 -2 -20 -20 -20 -20 -20 -20 -20 -20 -20 -20 -20 -20 -20 -20 -20 -20 -20 -20 -20 -18 -4 -8 -16 -20 -20 -20 -20 -20 -20 -20 -20 -20 -20 -20
-1 -2 -4 -2 -16 -20 -20 -20 -20 -20 -20 -20 -20 -20 -20 -20 -20 -20 -20 -20 -20 -20 -11 -10 -13 -17 5 1 -13 -20 -20 -20 -20 -20 -20 -20 -20 -20 -18 12 -20 -20 -20
-20 -20 18 -20 -20 -20 -20 -20 -20 -20 -20 -20 -20 -20 -20 -20 -20 -20 -20 -20 -5 3 9 3 0 -16 -20 -2 -4 -20 -20 -20 -20 -20 -20 -20 -20 -20 -20 -20 -20 -20 -20
-20 -20 -20 -1 -20 -20 -20 -20 -20 -20 -20 -20 -7 -15 -20 -20 -20 -20 -20 -20 3 -4 -2 -10 6 -10 -20 -20 5 -20 -20 -20 -20 -20 -20 -20 -20 -20 -20 -20 -20 -20 -20
-20 -20 -20 -15 -20 -20 -20 -20 -20 -20 -20 -20 -20 -20 -18 -20 -20 4 -9 -5 7 6 -1 2 4 7 4 3 6 -6 -15 -20 -20 -20 -20 -20 -20 -20 -20 -20 -20 -20 -20
-20 -20 -10 -8 -20 -20 -20 -20 -20 -20 -20 -16 -10 -19 -20 -20 -18 -20 -20 -20 -17 -14 -7 -18 4 -2 6 -6 -19 -9 -7 -20 -20 -20 -20 -20 -20 -20 -20 -20 -20 -20 -20
-20 -20 -20 -15 -10 -20 -17 -20 30 14 -19 -11 -20 -11 -20 -20 -20 -20 -20 -20 -20 -20 -20 -20 -20 -20 -18 -15 -20 10 3 13 12 -20 -20 -20 -20 -20 -20 -20 -20 -20 -20
-20 -20 -20 -20 5 24 5 -9 0 -16 -20 -18 -20 -20 -20 -14 -20 -20 -20 -20 -20 -20 -20 -20 -20 -20 -20 -20 -20 -20 3 -13 -1 12 5 -20 8 -12 -7 -20 -20 -20 -20
-20 -20 -20 -20 -20 -20 -20 -20 -20 -20 10 -20 -20 -20 -20 -20 -20 -20 -20 -20 -20 -20 -20 -20 -20 -20 -20 -20 -7 -20 -18 -20 -20 -20 11 -12 -18 6 8 -20 -20 -20 -20

GFSSE_prec_radar_063.txt.gz
Reflectivity
-15 -20 -20 -20 -20 -18 -20 -16 -20 -20 -20 -20 19 12 -16 -20 -20 -20 -20 18 17 2 7 -20 -20 -20 -20 -20 -20 -20 -20 -20 -20 -20 -20 -20 -20 -20 9 -18 6 1 -2
-18 -20 -20 -20 -20 -20 -10 -20 -20 -20 -20 10 -5 -20 -20 -20 -20 -20 -20 -8 -16 -19 17 -20 -20 -20 -20 -20 -20 -20 -20 -20 -20 -20 -20 -20 -20 14 2 -20 5 12 2
-20 -20 -20 -14 -20 -20 -20 -20 -20 -20 -20 1 -20 -20 -20 -20 -20 -16 4 5 4 1 -11 -20 -20 -20 -20 -20 -20 -20 -20 -20 -20 -20 -20 -20 9 2 -20 4 18 -20 6
-20 -20 -20 -20 -20 -20 -5 -20 -20 -20 -20 3 -20 -20 -20 -20 -20 -20 14 15 9 -20 -18 -20 -20 -20 -20 -20 -20 -20 -20 -20 -20 -20 -20 -20 -20 -13 -20 -20 -20 -20 -20
-20 -20 -20 -20 -10 -20 -20 -20 -20 -20 -20 -2 0 -3 -20 -20 -20 -20 -20 -15 -14 -20 -18 -20 -20 -20 -20 -20 -20 -20 -20 -20 -20 -20 -20 -20 -20 -20 -20 -20 -20 -20 -20
-20 -20 15 -11 -20 -20 -20 -20 -20 -20 -20 -20 15 -8 -20 -20 -20 -20 -20 -20 -20 -20 -20 -20 -20 -20 -20 -20 -20 -20 -20 -20 -20 -20 -20 -20 -20 -20 -20 -20 -20 -20 -20
-20 -20 -20 14 -20 3 -20 -20 -20 -20 -20 -20 15 -15 -20 -20 -20 -20 -20 -20 -20 -20 -20 -20 -20 -20 -20 -20 -20 -20 -20 -20 -20 -20 -20 -20 -20 -20 -20 -20 -20 -20 -20
-20 -20 -20 -20 -20 -5 -20 -20 -20 -20 -20 -20 17 9 -20 -20 -20 -20 -20 -20 -20 -20 -20 -20 -20 -20 -20 -20 -20 -20 -20 -20 -20 -20 -20 -20 -20 -20 -20 -20 -20 -20 -20
-20 -20 -1 -20 -20 -20 -20 -20 -20 -20 -4 -20 6 -20 -20 -20 -20 -20 -20 -20 -20 -20 -20 -20 -20 -20 -20 -20 -20 -20 -20 -20 -20 -20 -20 -20 -20 -20 -20 -20 -20 -20 -20
-19 -20 -20 -20 -20 -20 -20 -20 -20 -20 -20 -20 -2 -20 -20 -20 -20 -20 -20 -20 -20 -20 -20 -20 -20 -20 -20 -20 -20 -20 -20 -20 -20 -20 -20 -20 -20 -20 -16 -19 -20 -20 -20
3 -20 -20 -20 -20 -20 -20 -20 -20 -20 -20 -20 -20 -20 -20 -20 -20 -20 -20 -20 -20 -20 -20 -20 -20 -20 -20 -20 -20 -20 -20 -20 -20 -20 -20 -20 -20 -20 -20 -20 -20 -20 -20
-9 15 -20 -20 -20 -20 -20 -20 -20 -20 -20 -20 -20 -20 -20 -20 -20 -20 -20 -20 -20 -20 -20 -20 -20 -20 -20 -20 -20 -20 -20 -20 -20 -20 -20 -20 -20 -20 -20 -11 -20 -20 -20
4 30 14 12 1 -20 -20 -20 -20 -20 -20 -20 -20 -20 -20 -20 -20 -20 -20 -20 -20 -20 -20 -20 -20 -20 -20 -20 -20 -20 -20 -20 -20 -20 -20 -20 -20 -20 -20 -20 -20 -20 -20
14 34 -4 -19 13 -20 -20 -20 -20 -20 -20 -20 -20 -20 -20 -20 -20 -20 -20 -20 -20 -20 -20 -20 -20 -20 -20 -20 -20 -20 -20 -20 -20 -20 -20 -20 -20 -20 -20 -20 -4 -20 -20
5 11 -16 -20 -7 5 -20 -20 -20 -20 -20 -20 -20 -20 -20 -20 -20 -20 -20 -20 -20 -20 -20 -20 -20 -20 -20 -20 -20 -20 -20 -20 -20 -20 -20 -20 -20 -20 -20 -20 -20 -13 -20
35 26 1 -19 17 15 2 -18 -20 -20 -20 -20 -20 -20 -20 -20 -20 -20 -20 -20 -20 -20 -20 -20 -20 -20 -20 -20 -20 -20 -20 -20 -20 -20 -20 -20 -20 -20 -20 -20 -20 -20 -20
37 26 25 -6 1 11 -20 6 -12 -20 -20 -20 -20 -20 -20 -20 -20 -20 -20 -20 -20 -20 -20 -20 -20 -20 -20 -20 -20 -20 -20 -20 -7 -11 -20 -20 -18 13 9 9 -20 -20 -20
-4 1 5 1 -20 -20 -19 7 3 -19 -20 -20 -20 -20 -20 -20 -20 -20 -20 -20 -20 -20 -20 -20 -20 -20 -20 -20 -20 -16 -5 -20 -20 -20 -20 -20 -20 -20 -20 16 13 -15 -20
2 -3 -20 -14 26 0 -20 -20 -20 23 -19 -20 -13 -20 -20 -20 -20 -20 -20 -20 -20 -20 -20 2 0 -2 -12 -11 -11 -12 -20 -20 -20 -20 -20 -20 -20 -20 -20 -2 -20 -20 -20
21 -9 26 1 6 -20 -20 -20 -20 -20 -19 -20 -17 -20 -20 -20 -20 -20 -20 -20 -20 -8 2 8 10 -1 -4 -13 1 -17 4 -9 -20 -20 -20 -20 -20 -17 -20 -20 -20 -20 -20
6 -11 -10 -4 -19 -20 -20 -20 -20 -20 -20 -20 -20 -20 -5 -14 -20 -20 -20 -20 -1 7 -2 12 6 8 5 -11 11 2 -20 -20 -20 -20 -20 -20 -20 -20 -20 -20 -20 -20 -20
-13 -20 -16 -7 4 2 -13 -20 -20 -20 -20 -20 -20 -20 -12 -20 6 -20 -2 3 -2 -13 2 10 6 7 5 7 -2 -17 7 -20 -20 -20 -20 -20 -20 -20 -20 -20 -20 -20 -20
-7 -20 -20 -20 -13 6 -11 -19 -20 -20 -20 -20 -20 -20 -20 -20 -20 -20 -15 -16 -20 -14 -10 -19 -10 13 -0 -16 -20 10 10 -20 -20 -20 -20 -20 -20 -20 -20 -20 -20 -20 -20
-20 -20 -20 23 -18 -18 -19 -18 -17 -14 -9 16 -15 -20 -12 -20 -20 -20 -20 -20 -20 -20 -20 -20 -20 -20 -20 -20 -20 -20 3 9 10 -8 -20 -20 -20 -20 -20 -20 -20 -20 -20
-20 -20 -20 -20 -15 -12 28 31 31 9 31 30 -9 -18 30 -20 -20 -20 -20 -20 -20 -20 -20 -20 -20 -20 -20 -20 -20 -20 -20 -20 -20 4 -1 -20 -20 -20 -20 -20 -20 -18 -20
-20 -20 -20 -20 -11 -20 -15 4 15 28 14 28 29 -3 -6 -7 -20 -20 -20 -20 -20 -20 -20 -20 -20 -20 -20 -20 -20 -20 -20 -20 -20 -20 -11 -20 -20 -20 -20 -20 -20 -20 -20

GFSSE_prec_radar_066.txt.gz
Reflectivity
-20 -13 -20 3 -20 -7 6 -1 -16 -20 -20 22 2 -19 -20 -20 -20 7 21 -4 7 9 -20 -20 -20 -20 -20 -20 -20 -20 -20 -20 -20 -20 -20 -20 11 7 -13 -20 -2 -20 -20
-0 -19 -20 3 8 4 -12 -20 -20 -20 23 11 -20 -20 -20 -20 -20 11 0 -19 15 -20 -20 -20 -20 -20 -20 -20 -20 -20 -20 -20 -20 -20 -20 4 1 -2 -20 -20 -1 -14 2
-15 4 -16 3 -20 -20 -20 -20 -20 5 -20 -20 -20 -20 -20 -20 -20 -19 6 -17 -20 -20 -20 -20 -20 -20 -20 -20 -20 -20 -20 -20 -20 -20 -20 -20 -20 -15 -20 -20 -20 -20 -20
-15 10 10 -2 -13 -20 -12 -20 -20 9 -20 -20 -20 -20 -20 -20 -19 16 17 -19 -20 -20 -20 -20 -20 -20 -20 -20 -20 -20 -20 -17 -9 -20 -20 -20 -20 -20 -20 -20 -20 -20 -20
-17 5 -20 -20 -20 6 -20 -20 -20 3 -20 -20 -20 -20 -20 -20 -20 14 6 -20 -20 -20 -20 -20 -20 -20 -20 -20 -20 -20 -20 -20 -20 -20 -20 -20 -20 -20 -20 -20 -20 -20 -20
4 7 16 -20 -20 -20 -20 -20 -20 -20 -5 5 -20 -20 -20 -20 -20 -20 -20 -20 -20 -20 -20 -20 -20 -20 -20 -20 -20 -20 -20 -20 -20 -20 -20 -20 -20 -20 -20 -20 -20 -20 -20
-4 -16 -20 -13 -15 -20 -20 -20 -20 -20 10 5 -20 -20 -20 -20 -20 -20 -20 -20 -20 -20 -20 -20 -20 -20 -20 -20 -20 -20 -20 -20 -20 -20 -20 -20 -20 -20 -20 -20 -20 -20 -20
-2 13 15 4 -12 -20 -20 -20 -20 -20 -6 11 -20 -20 -20 -20 -20 -20 -20 -20 -20 -20 -20 -20 -20 -20 -20 -20 -20 -20 -20 -20 -20 -20 -20 -20 -20 -20 -20 -20 -20 -20 -20
-20 -1 18 -6 -20 -20 -20 -20 -20 -20 -20 18 -20 -20 -20 -20 -20 -20 -20 -20 -20 -20 -20 -20 -20 -20 -20 -20 -20 -20 -20 -20 -20 -20 -20 -20 -20 -20 -20 -20 -20 -20 -20
-20 -20 -6 -12 -17 -20 -20 -20 -20 -20 -20 12 -20 -20 -20 -20 -20 -20 -20 -20 -20 -20 -20 -20 -20 -20 -20 -20 -20 -20 -20 -20 -20 -20 -20 -20 -20 -20 -20 -15 -20 -20 -20
-6 -20 -20 -4 -20 -20 -20 -20 -20 -20 -20 -20 -20 -20 -20 -20 -20 -20 -20 -20 -20 -20 -20 -20 -20 -20 -20 -20 -20 -20 -20 -20 -20 -20 -20 -20 -20 -20 -20 -18 -20 -20 -20
4 -14 -20 -20 -20 -20 -20 -20 -20 -20 -20 -20 -20 -20 -20 -20 -20 -20 -20 -20 -20 -20 -20 -20 -20 -20 -20 -20 -20 -20 -20 -20 -20 -20 -20 -20 -20 -20 -20 -20 -20 -20 -20
34 -12 -19 -20 -20 -20 -20 -20 -20 -20 -20 -20 -20 -20 -20 -20 -20 -20 -20 -20 -20 -20 -20 -20 -20 -20 -20 -20 -20 -20 -20 -20 -20 -20 -20 -20 -20 -20 -20 -20 -18 -20 -20
37 31 1 -15 -20 -20 -20 -20 -20 -20 -20 -20 -20 -20 -20 -20 -20 -20 -20 -20 -20 -20 -20 -20 -20 -20 -20 -20 -20 -20 -20 -20 -20 -20 -20 -20 -20 -20 -20 -20 -20 -18 -20
37 34 33 17 9 -2 -20 -20 -20 -20 -20 -20 -20 -20 -20 -20 -20 -20 -20 -20 -20 -20 -20 -20 -20 -20 -20 -20 -20 -20 -20 -20 -20 -20 -20 -20 -20 -20 -20 -20 -20 -20 -7
30 29 36 22 21 0 3 -20 -20 -20 -20 -20 -20 -20 -20 -20 -20 -20 -20 -20 -20 -20 -20 -20 -20 -20 -20 -20 -20 -20 -20 -20 -20 -8 -20 -20 -17 10 3 -16 12 -18 -20
31 3 40 31 34 32 11 4 -20 -20 -20 -20 -20 -20 -20 -20 -20 -20 -20 -20 -20 -20 -20 -20 -20 -20 -20 -20 -20 -20 -20 -20 -20 10 -4 -20 -2 -20 14 15 -10 14 8
13 11 24 26 33 29 31 -9 -20 -19 -20 -20 -20 -20 -20 -20 -20 -20 -20 -20 -20 -20 -20 -20 -20 -20 -20 -20 -20 -18 -10 4 -10 -19 -20 -20 -20 -20 12 -20 3 -11 -20
8 -13 9 14 32 29 2 29 -20 0 -17 -20 -18 -20 -20 -20 -20 -20 -20 -20 -20 -20 -20 -20 -15 -10 -20 -13 -4 -20 -17 -6 -20 -18 -20 -20 -20 -20 -20 -20 -20 -20 -20
9 -6 -20 29 32 33 -17 -20 -20 6 -5 -20 9 -20 -20 -20 -20 -20 -20 -20 -20 -20 -12 1 4 8 3 9 8 1 -16 -20 -17 -20 -20 -20 -20 -20 -20 -20 -20 -20 -20
-6 1 -20 14 10 3 -20 -16 -20 -20 -19 9 12 11 -20 -20 -20 -20 -20 -20 -20 -20 3 -6 -14 5 -3 -20 7 -20 -20 -20 -20 -20 -20 -20 -20 -20 -20 -15 -20 -20 -20
-13 2 -1 10 11 5 12 -2 -20 -20 -20 -20 -20 -20 -20 -12 -14 -8 -18 -9 -1 -9 -18 -13 0 6 7 -20 2 -20 -20 -20 -20 -20 -20 -20 -20 -20 -10 -4 -20 -20 -20
-16 -20 -20 -2 3 2 2 27 -2 -20 -20 -20 -20 -20 -20 6 20 16 8 -8 -18 -17 3 -13 -5 -3 -13 -20 -20 -18 -20 -20 -20 -20 -20 -20 -20 -9 -11 -19 -20 -20 -20
-13 -12 -20 -13 -6 -13 -6 15 11 33 26 24 23 20 -14 12 22 -18 -20 -20 -20 -20 -20 -20 -20 -20 -20 -20 -20 -20 -20 -20 -5 -20 -20 -20 -20 -20 -20 -20 -20 -20 -20
-20 -20 -20 -20 -3 27 -8 34 -15 -2 13 27 31 13 24 28 31 30 30 24 -12 -20 -20 -19 -20 -20 -20 -20 -20 -20 -20 -20 -20 -20 -20 -20 -20 -20 -20 -20 -20 -20 -20
-20 -20 -20 -20 -15 3 20 18 6 -3 23 6 22 25 30 15 24 28 25 19 -17 -20 -20 -20 -20 -20 -20 -20 -20 -20 -20 -20 -20 -20 -20 -20 -20 -20 -20 -20 -15 -20 -14

GFSSE_prec_radar_069.txt.gz
Reflectivity
-20 -20 -20 2 -5 -20 2 -5 -20 -20 15 -15 -18 -20 4 -5 5 -10 -12 -16 6 -20 -20 -20 -20 -20 -20 -20 -20 -15 6 -18 -20 -20 12 -0 -1 -13 -9 8 -20 9 14
-19 -20 -20 -19 -6 8 2 -1 -20 6 8 4 -20 -20 1 -5 21 12 -20 12 -8 -20 -20 -20 -20 -20 -20 -20 -20 -20 -20 -20 -20 -1 -19 -20 -20 -20 -20 -20 -3 6 12
-1 -20 -20 -20 -20 -7 -13 -20 -20 -4 -20 -20 -20 -20 -20 17 13 -20 -6 -2 -20 -20 -20 -20 -20 -20 -20 -20 -20 -20 -20 -20 -20 -20 -20 -20 -20 -20 -20 -20 -20 -20 -8
-17 1 -20 -14 -20 -20 -20 -20 10 -20 -20 -20 -20 -20 -20 -20 6 -10 -19 -20 -20 -20 -20 -20 -20 -20 -20 -20 -20 -20 -16 -20 -20 -20 -20 -20 -20 -20 -20 -20 -20 -20 -20
3 -20 -20 -13 -18 -11 -20 -20 -6 -20 -20 -20 -20 -20 -20 -20 0 4 -19 -20 -20 -20 -20 -20 -20 -20 -20 -20 -20 -20 -20 -20 -20 -20 -20 -20 -20 -20 -20 -20 -20 -20 -20
7 3 -20 -20 -20 -14 -5 -20 5 -20 -7 -20 -20 -20 -20 10 11 -20 -20 -20 -20 -20 -20 -20 -20 -20 -20 -20 -20 -20 -20 -20 -20 -20 -20 -20 -20 -20 -20 -20 -20 -20 -20
12 16 -20 6 2 -20 -20 -20 15 -3 -1 -20 -20 -20 -20 -20 -5 -20 -20 -20 -20 -20 -20 -20 -20 -20 -20 -20 -20 -20 -20 -20 -20 -20 -20 -20 -20 -20 -20 -20 -20 -20 -20
-3 4 -1 -6 -12 -20 -20 -20 9 12 -20 -20 -20 -20 -20 -20 -20 -20 -20 -20 -20 -20 -20 -20 -20 -20 -20 -20 -20 -20 -20 -20 -20 -20 -20 -20 -20 -20 -20 -20 -20 -20 -20
-10 19 10 8 -6 -20 -20 -20 -20 12 -20 -20 -20 -20 -20 -20 -20 -20 -20 -20 -20 -20 -20 -20 -20 -20 -20 -20 -20 -20 -20 -20 -20 -20 -20 -20 -20 -20 -20 -20 -20 -20 -20
-1 -19 -20 6 -20 -20 -20 -20 -20 -20 18 -15 -20 -20 -20 -20 -20 -20 -20 -20 -20 -20 -20 -20 -20 -20 -20 -20 -20 -20 -20 -20 -20 -20 -20 -20 -20 -20 -20 -20 -20 -20 -20
18 -16 -20 -7 -20 -20 -20 -20 -20 -20 14 -20 -20 -20 -20 -20 -20 -20 -20 -20 -20 -20 -20 -20 -20 -20 -20 -20 -20 -20 -20 -20 -20 -20 -20 -20 -20 -20 -20 -20 -20 -20 -20
12 -9 -5 -20 -20 -20 -20 -20 -20 -20 12 -20 -20 -20 -20 -20 -20 -20 -20 -20 -20 -20 -20 -20 -20 -20 -20 -20 -20 -20 -20 -20 -20 -20 -20 -20 -20 -20 -20 -20 -20 -20 -20
24 25 6 -20 -20 -20 -20 -20 -20 -20 -20 -20 -20 -20 -20 -20 -20 -20 -20 -20 -20 -20 -20 -20 -20 -20 -20 -20 -20 -20 -20 -20 -20 -20 -20 -20 -20 -20 -20 -20 -3 -20 -20
36 34 22 -16 -20 -20 -20 -20 -20 -20 -20 -20 -20 -20 -20 -20 -20 -20 -20 -20 -20 -20 -20 -20 -20 -20 -20 -20 -20 -20 -20 -20 -20 -20 -20 -20 -20 -20 -20 -20 5 -20 -20
31 33 34 32 6 -15 -20 -20 -20 -20 -20 -20 -20 -20 -20 -20 -20 -20 -20 -20 -20 -20 -20 -20 -20 -20 -20 -20 -20 -20 -20 -20 -20 -20 -20 -20 -20 -20 6 -17 -20 -5 -20
3 29 26 25 32 22 -15 -20 -20 -20 -20 -20 -20 -20 -20 -20 -20 -20 -20 -20 -20 -20 -20 -20 -20 -20 -20 -20 -20 -20 -20 -20 -20 -20 -20 7 5 14 1 -20 13 -9 -20
-17 18 35 36 37 20 -2 32 15 -13 -20 -20 -20 -20 -20 -20 -20 -20 -20 -20 -20 -20 -20 -20 -20 -20 -20 -20 -20 -20 -20 -20 -20 -20 9 9 9 3 15 1 13 -1 -20
-2 10 21 15 29 33 33 33 30 28 -17 -20 -20 -20 -20 -20 -20 -20 -20 -20 -20 -20 -20 -20 -20 -20 -20 -20 -20 -20 -20 -18 -19 -16 -20 1 5 -20 9 1 -20 -20 -20
-0 29 37 20 20 31 37 25 26 32 12 -14 -20 -20 -20 -20 -20 -20 -20 -20 -20 -20 -20 -20 -20 -20 -20 -20 -20 -20 -19 -20 -20 -20 -20 -20 -20 -20 -20 15 -20 -20 -20
5 5 15 24 22 0 11 31 35 34 22 -16 -20 -12 -12 -20 -20 -20 -20 -20 -20 -20 -20 -20 -20 -20 -19 -15 10 1 -20 -20 -20 -20 -20 -20 -20 -20 -20 -20 -20 -20 -20
16 5 14 25 31 33 19 32 34 24 34 -20 16 -20 -20 7 -20 -20 -20 -20 -20 -20 -20 -20 -11 -8 -5 -20 1 -20 -20 -20 -20 -20 -20 -20 -20 -20 -20 -20 -20 -14 -17
7 6 5 11 18 -3 7 26 20 29 23 -20 3 4 1 14 13 -19 -19 -20 -20 -12 -13 -17 -19 -3 -9 -20 -8 -20 -11 -20 -20 -20 -20 -20 -20 -20 -20 -20 -19 -2 -20
-20 -17 22 7 -2 -16 6 -18 -1 25 -20 -20 -15 -7 12 5 14 9 9 13 -15 25 8 -5 2 -7 -14 -20 -20 -7 -11 -20 -20 -20 -20 -20 -20 -20 -20 -20 -4 -18 -20
-20 -20 -16 10 31 34 -6 10 33 36 34 4 7 7 -17 3 14 16 10 32 30 30 -13 -17 -20 -4 -18 -20 -20 -20 -20 -20 -20 -20 -20 -20 -20 -20 -20 -20 -20 -20 -20
-14 -20 -20 -20 4 19 -9 -13 15 28 35 33 -6 19 18 18 19 27 34 29 19 23 15 30 -6 -20 -20 -20 -20 -20 -20 -20 -20 7 -12 -20 -20 -20 -20 -20 -20 -20 -20
-20 -17 -20 -14 -20 12 9 -20 -20 -4 -5 19 -2 32 30 22 28 -3 31 25 19 21 30 7 -9 -20 -20 -20 -20 -20 -20 -20 -20 -20 -20 -20 -20 -20 -20 -20 -20 -19 -20

GFSSE_prec_radar_072.txt.gz
Reflectivity
-20 -20 -8 -20 0 -20 -5 -20 -20 -7 -20 -20 4 7 8 3 -4 -7 -4 -20 -20 -20 -20 -20 -20 1 6 13 14 -20 -20 -20 13 -20 -20 -20 -20 -20 -20 6 -2 6 4
-20 -20 -20 -20 2 -3 -17 -20 -20 -15 -20 -20 -2 -19 -4 23 12 -3 -20 -20 -20 -20 -20 -20 -20 -1 -9 -20 -20 -20 -20 4 -19 -20 -20 -20 -20 -20 -20 -20 -20 -16 9
-19 -20 6 -20 -20 -12 -20 -20 -2 -17 -20 -20 -20 -12 -1 15 -7 5 13 -20 -20 -20 -20 -19 -20 -20 -20 -20 -20 -20 -20 -18 -20 -20 -20 -20 -20 -20 -20 -20 -20 -20 -20
-20 -20 10 -12 -20 -5 -20 -20 8 -20 -20 -20 -20 6 6 4 -10 10 1 -20 -20 -20 -20 -20 -20 -20 -20 -20 -11 -20 -20 -20 -20 -20 -20 -20 -20 -20 -20 -20 -20 -20 -20
-12 -17 -20 21 -20 -17 -20 6 -12 -20 -20 -20 -20 -20 10 11 -3 1 -20 -20 -20 -20 -20 -20 -20 -20 -20 -20 -20 -20 -20 -20 -20 -20 -20 -20 -20 -20 -20 -20 -20 -20 -20
-10 9 -20 -19 -20 -20 -4 -1 -20 -20 -20 -20 -20 -20 -20 5 11 -10 -20 -20 -20 -20 -20 -20 -20 -20 -20 -20 -20 -20 -20 -20 -20 -20 -20 -20 -20 -20 -20 -20 -20 -20 -20
-16 8 -20 -0 -14 -20 -18 -20 -4 -14 -20 -20 -20 -15 -20 -20 -8 1 -20 -20 -20 -20 -20 -20 -20 -20 -20 -20 -20 -20 -20 -20 -20 -20 -20 -20 -20 -20 -20 -20 -20 -20 -20
6 -5 -20 2 -20 -20 -20 3 -15 -1 -20 -20 -20 0 11 2 -20 3 -20 -20 -20 -20 -20 -20 -20 -20 -20 -20 -20 -20 -20 -20 -20 -20 -20 -20 -20 -20 -20 -20 -20 -20 -20
16 -20 -20 -13 -20 -20 -20 19 -6 -19 -20 -20 -20 -20 -20 -7 -20 -20 -20 -20 -20 -20 -20 -20 -20 -20 -20 -20 -20 -20 -20 -20 -20 -20 -20 -20 -20 -20 -20 -20 -20 -20 -20
4 -18 -18 -11 -6 -20 -20 -20 17 7 -20 -20 -20 -20 -20 -20 -20 -20 -20 -20 -20 -20 -20 -20 -20 -20 -20 -20 -20 -20 -20 -20 -20 -20 -20 -20 -20 -20 -20 -19 -20 -20 -20
20 24 22 -17 -20 -20 -20 -20 -20 17 -9 -20 -20 -20 -20 -20 -20 -20 -20 -20 -20 -20 -20 -20 -20 -20 -20 -20 -20 -20 -20 -20 -20 -20 -20 -20 -20 -20 -20 -20 -20 -20 -20
20 14 -2 -4 -20 -20 -20 -20 -20 -20 -1 -20 -20 -20 -20 -20 -20 -20 -20 -20 -20 -20 -20 -20 -20 -20 -20 -20 -20 -20 -20 -20 -20 -20 -20 -20 -20 -20 -20 -20 -20 -20 -20
24 21 28 -19 -20 -20 -20 -20 -20 -20 9 -20 -20 -20 -20 -20 -20 -20 -20 -20 -20 -20 -20 -20 -20 -20 -20 -20 -20 -20 -20 -20 -20 -20 -20 -20 -20 -20 -20 -20 -20 -20 -20
28 21 6 19 -20 -20 -20 -20 -20 -20 -20 -20 -20 -20 -20 -20 -20 -20 -20 -20 -20 -20 -20 -20 -20 -20 -20 -20 -20 -20 -20 -20 -20 -20 -20 -20 -20 -20 -20 -20 -20 -20 -9
36 28 31 25 16 -17 -20 -20 -20 -20 -20 -20 -20 -20 -20 -20 -20 -20 -20 -20 -20 -20 -20 -20 -20 -20 -20 -20 -20 -20 -20 -20 -20 -20 -20 -20 -12 -14 3 -20 -20 8 18
34 30 34 23 8 7 7 5 -18 -20 -20 -20 -20 -20 -20 -20 -20 -20 -20 -20 -20 -20 -20 -20 -20 -20 -20 -20 -20 -20 -20 -20 -20 -20 -20 -10 13 11 5 7 1 6 12
36 34 31 30 18 23 7 8 -15 -13 -20 -20 -20 -20 -20 -20 -20 -20 -20 -20 -20 -20 -20 -20 -20 -20 -20 -20 -20 -20 -20 -20 -20 -20 -20 -20 3 -9 -4 -20 15 8 -20
21 29 18 24 21 27 24 26 16 23 -18 12 -8 -20 -20 -20 -20 -20 -20 -20 -20 -20 -20 -20 -20 -20 -20 -20 -20 -20 -20 -20 -20 -20 -20 -20 -20 -20 -16 0 -16 -2 -20
18 23 28 28 24 26 30 28 33 -4 25 14 25 32 -20 -20 -20 -20 -20 -20 -20 -20 -20 -20 -20 -20 -20 -20 -20 -20 -20 -20 -20 -20 -20 -20 -20 -20 -20 -20 -19 -17 -20
12 16 12 13 30 22 31 24 36 27 31 35 35 23 -20 -20 -20 -20 -20 -20 -20 -20 -20 -20 -20 -20 0 -7 -20 -20 -20 -20 -20 -20 -20 -20 -20 -20 -20 -20 -20 -20 -20
16 13 9 13 19 14 18 26 -16 6 34 31 14 12 -20 -5 9 18 -11 -20 -20 -20 -20 -20 -5 7 6 6 -9 -20 -20 -20 -20 -20 -20 -20 -20 -20 -20 -20 -20 -20 0
9 7 25 37 28 6 16 11 4 31 19 27 -10 -20 -8 10 3 16 12 -14 -20 -20 -13 1 -8 -20 -16 2 12 -2 -20 -20 -20 -20 -20 -20 -20 -20 -20 -20 -20 -14 -15
1 11 19 20 30 36 32 27 27 15 14 25 19 26 20 -20 -20 -19 -20 -20 -14 6 -11 -20 -16 -2 10 -20 -9 10 -1 -20 -20 -20 -20 -20 -20 -20 -20 -20 -20 -20 -20
-20 -18 -19 -14 16 28 32 37 43 39 37 39 40 39 35 31 -1 -20 17 8 29 30 31 28 25 2 -19 -11 -20 -20 -20 -20 -20 -20 -20 -20 -20 -20 -20 -20 -20 -20 -20
-20 -20 -20 -20 -3 11 -1 13 23 34 32 30 32 30 35 34 31 27 29 29 24 32 22 20 28 18 -9 12 -20 -20 -20 -20 -20 -3 -20 -20 -20 -20 -20 -20 -20 -20 -20
-20 -20 -20 -20 -20 -20 15 6 9 -10 24 30 22 -18 11 31 30 28 32 28 23 21 20 27 15 21 27 -16 -20 -20 -20 -20 -20 -20 4 -20 -20 -20 -20 -17 -20 -20 -20

GFSSE_prec_radar_075.txt.gz
Reflectivity
-20 -20 -20 12 -7 -20 -20 -20 -2 -20 -12 11 -20 -20 -6 -20 -20 -10 -20 -20 -20 -20 -20 -20 6 10 -11 -20 -20 -20 6 -11 -20 -20 -20 -20 -20 -20 -18 -20 -18 5 -20
-20 -20 -20 -20 -4 -20 -20 -20 -2 -20 -20 -5 -1 -3 6 5 4 -20 -20 -20 -20 -20 -20 -12 11 15 -1 -20 -20 -20 -1 -20 -20 -20 -20 -20 -20 -20 -20 -20 -20 -20 14
-20 -20 -20 -20 -0 -18 -20 -20 -17 -20 -20 -6 27 17 4 9 7 -18 -20 -20 -20 -20 -20 1 4 -20 -20 -20 -20 -16 1 -20 -20 -20 -20 -20 -20 -20 -20 -20 -20 -20 -20
-20 -20 -6 -20 -12 -19 -20 5 -20 -20 -20 -16 -7 -18 21 -7 2 9 -20 -20 -20 -20 -6 -12 -20 -20 -20 -20 -20 -4 -16 -20 -20 -20 -20 -20 -20 -20 -20 -20 -20 -20 -20
1 -20 -20 -20 -20 -19 -20 3 -20 -20 -20 -20 19 -6 24 -2 10 5 -20 -20 -20 -20 -19 -20 -20 -20 -20 1 -20 -20 -20 -20 -20 -20 -20 -20 -20 -20 -20 -20 -20 -20 -20
2 -20 -20 -20 -20 -20 -18 -4 -20 -20 -20 -20 10 -19 -13 -10 -6 4 -5 -20 -20 -20 -20 -20 -20 -20 -20 -3 0 -4 -20 -20 -20 -20 -20 -20 -20 -1 -5 -20 -20 -20 -20
-3 -15 -20 -17 -20 -20 12 -17 -20 -20 -20 -20 -20 -20 4 9 12 -20 -13 -20 -20 -20 -20 -20 -20 -20 -20 -20 -20 -20 -20 -20 -20 -20 -20 -20 -20 -2 -4 -20 -20 -20 -20
-20 -20 -6 -20 -20 -20 -20 10 -20 -20 -20 -20 -20 -20 8 4 -20 -20 -20 -20 -20 -20 -20 -20 -20 -20 -20 -20 -20 -20 -20 -20 -20 -20 -20 -20 -20 -20 -20 -20 -20 -20 -20
-20 -20 -20 -18 -19 -20 -18 -20 -20 -20 -20 -15 5 -4 -15 14 15 -8 -3 -20 -20 -20 -20 -20 -20 -20 -20 -20 -20 -20 -20 -20 -20 -20 -20 -20 -20 -20 -20 -20 -20 -20 -20
1 -6 -20 -20 -20 -20 -20 -19 9 -20 -20 -20 -6 -1 13 12 1 -0 0 -3 -20 -20 -20 -20 -20 -20 -20 -20 -20 -20 -20 -20 -20 -20 -20 -20 -20 -20 -20 -5 -20 -20 -20
-4 -4 -20 -10 -20 -20 -20 14 18 -20 -20 -20 -20 -20 -20 -20 -17 -20 -20 -20 -20 -20 -20 -20 -20 -20 -20 -20 -20 -20 -20 -20 -20 -20 -20 -20 -20 -20 -20 -20 -20 -20 -20
24 1 15 -20 -20 -20 -20 -20 -20 11 -5 -20 -20 -20 -20 -20 -20 -20 -20 -20 -20 -20 -20 -20 -20 -20 -20 -20 -20 -20 -20 -20 -20 -20 -20 -20 -20 -20 -20 -20 -20 -20 -20
30 13 5 -17 -20 -20 -20 -20 -20 13 -20 -20 -20 -20 -20 -20 -20 -20 -20 -20 -20 -20 -20 -20 -20 -20 -20 -20 -20 -20 -20 -20 -20 -20 -20 -20 -20 -20 -20 -20 -20 14 -20
31 31 29 -3 -20 -20 -20 -20 -20 -20 -12 -18 -20 -20 -20 -20 -20 -20 -20 -20 -20 -20 -20 -20 -20 -20 -20 -20 -20 -20 -20 -20 -20 -20 -20 -20 -20 -20 -20 -20 -20 -18 16
31 32 29 -2 -18 -20 -20 -20 -20 -20 -20 -13 -20 -20 -20 -20 -20 -20 -20 -20 -20 -20 -20 -20 -20 -20 -20 -20 -20 -20 -20 -20 -20 -20 -20 -20 -20 13 -6 -8 -20 -20 11
30 25 33 31 18 -4 -19 -20 -20 -20 -20 -20 -20 -20 -20 -20 -20 -20 -20 -20 -20 -20 -20 -20 -20 -20 -20 -20 -20 -20 -20 -20 -20 -20 -20 -20 -20 -19 -20 -1 -12 -15 -20
29 37 29 23 30 38 -2 -12 -20 -3 -20 -20 -20 -20 -20 -20 -20 -20 -20 -20 -20 -20 -20 -20 -20 -20 -20 -20 -20 -20 -20 -20 -20 -20 -20 -20 -20 -20 -20 -20 15 7 13
28 34 32 22 23 16 -15 -3 5 10 -20 -18 -20 -20 -20 -20 -20 -20 -20 -20 -20 -20 -20 -20 -20 -20 -20 -20 -20 -20 -20 -20 -20 -20 -20 -20 -20 -20 -20 -20 -20 -17 -20
31 31 31 21 25 16 -9 -18 17 -12 -20 -20 -20 -20 -20 -20 -20 -20 -20 -20 -20 -20 -20 -20 -20 -20 -20 -20 -20 -20 -20 -20 -20 -20 -20 -20 -20 -20 -20 -20 -20 -20 -20
21 22 25 29 26 27 9 8 35 8 -8 -19 -20 -20 -16 -14 16 -20 -20 -20 -20 -20 -20 -20 -20 -20 -20 -20 -4 -20 -20 -20 -20 -20 -20 -20 -20 -20 -20 -20 -20 -20 -20
29 27 14 17 18 12 12 24 31 35 19 1 -20 4 11 13 30 -20 -10 -5 -20 -20 -20 -20 -20 -20 -20 2 9 -20 -20 -20 -20 -20 -20 -20 -20 -20 -20 -20 -20 -20 -20
39 29 18 22 32 33 27 23 20 12 28 7 12 20 26 29 35 33 -7 9 -18 -20 -20 -20 4 11 15 -12 -2 -16 -20 -20 -20 -20 -20 -20 -20 -20 -20 -20 -20 -20 -20
20 31 36 18 21 22 27 33 27 29 23 29 28 27 34 26 33 36 32 29 28 -18 -14 14 27 20 21 -20 -10 10 -14 -20 -20 -20 -20 -20 -20 -20 -20 -20 -20 -20 -20
22 -3 18 32 17 20 25 28 35 35 38 35 34 35 26 36 33 28 29 32 32 26 28 18 24 -5 24 17 -20 -20 -20 -20 -20 -20 -20 -20 -20 -20 -20 -20 -20 -20 -20
-16 -12 -20 -0 6 13 24 28 33 38 37 40 36 33 37 34 35 31 34 36 32 30 28 28 26 15 26 26 20 -18 -19 -20 -20 -20 -20 -20 -20 -20 -20 -20 -20 -20 -20
-20 -20 -20 -17 -11 1 -2 4 11 31 32 32 32 28 31 29 28 17 32 35 35 34 35 31 22 15 20 26 29 16 -16 -20 -20 -20 -20 -20 -20 -20 -20 -20 -20 -11 -1

GFSSE_prec_radar_078.txt.gz
Reflectivity
-20 -10 -20 1 1 -20 -20 -20 -12 -20 -20 -20 -20 -4 -20 -20 -7 -8 -20 -20 -20 -20 -20 -17 -20 -2 2 9 9 -5 -6 -20 -20 -20 -20 -20 -20 -20 -20 -20 5 10 11
-20 -20 -20 -19 -6 -20 -20 -0 -20 -18 13 -20 5 3 -20 -14 -19 1 -20 -20 -20 -20 1 12 6 -20 -19 -20 5 -4 -20 -20 -20 -20 -20 -20 -20 -20 -20 -20 -17 -20 -12
-20 -20 -3 12 -20 -20 -20 -19 -20 -20 7 -10 -2 12 -14 3 0 -20 -20 -20 -20 -20 2 15 5 -20 -20 -20 6 -5 -20 -20 -20 -20 -20 -20 -20 -20 -20 -20 -20 -20 -20
-20 -13 6 -13 -15 -20 -20 -13 -20 -20 -1 -20 -20 -1 -20 12 -20 -20 -20 -20 -20 1 11 -18 -20 -20 -20 -20 5 -19 -20 -20 -20 -20 -20 -20 -20 -20 -20 -20 -20 -20 -20
-14 -20 -15 -20 -9 -20 -19 -9 -20 -20 18 6 28 4 18 20 -0 -20 -20 -11 11 14 -18 -20 -20 -0 -20 -20 -14 -15 -20 -20 -20 -20 -20 -20 -20 -20 -20 -20 -20 -20 -20
-20 10 13 -20 -20 -20 8 -20 -20 -20 -20 9 28 27 26 6 9 -20 -20 2 4 -1 -20 -20 -20 -19 1 -5 -18 -20 -20 -20 -20 -20 -20 -20 -19 12 -2 -20 -20 -20 -20
-3 -11 1 -11 -20 -20 1 -20 -20 -20 -20 -16 20 26 -1 -3 12 -20 -12 -20 -20 -20 -20 -20 -20 -20 -20 -20 -20 -20 -20 -20 -20 -20 -20 -20 -11 -12 -4 -19 -20 -20 -20
6 11 8 -14 -20 -15 -1 -20 -20 -20 -20 -20 25 31 5 2 9 7 -3 -16 -20 -20 -20 -20 -20 -20 -20 -20 -20 -20 -20 -20 -20 -20 -20 -20 -20 -20 -20 -20 -20 -20 -20
15 21 4 7 -20 -20 -20 -20 -20 -20 -20 -20 13 10 11 11 12 6 10 -20 -20 -20 -20 -20 -20 -20 -20 -20 -20 -20 -20 -20 -20 -20 -20 -20 -18 -20 -20 -20 -20 -20 -20
27 25 21 14 -12 11 -8 -20 -20 -20 -20 -20 -20 4 8 13 15 14 13 -16 -20 -20 -20 -20 -20 -20 -20 -20 -20 -20 -20 -20 -20 -20 -20 -20 -20 -20 -20 -20 -20 -20 -20
29 29 24 -9 22 -20 21 3 -19 -20 -20 -20 -11 10 5 -20 -20 -20 -20 -14 -18 -20 -20 -20 -20 -20 -20 -20 -20 -20 -20 -20 -20 -20 -20 -20 -20 -20 -20 -20 -20 -20 -20
31 26 26 24 15 -20 15 8 11 -10 -20 -20 -20 -20 -20 -20 -20 -20 -20 -20 -20 -20 -20 -20 -20 -20 -20 -20 -20 -20 -20 -20 -20 -20 -20 -20 -20 -20 -20 -20 -20 -20 -20
37 40 13 25 -8 -20 -20 3 16 6 -3 -17 -20 -20 -20 -20 -20 -20 -20 -20 -20 -20 -20 -20 -20 -20 -20 -20 -20 -20 -20 -20 -20 -20 -20 -20 -20 -20 -20 -20 -20 -20 7
42 35 33 6 -9 -20 -20 -7 18 17 11 5 -20 -20 -20 -20 -20 -20 -20 -20 -20 -20 -20 -20 -20 -20 -20 -20 -20 -20 -20 -20 -20 -20 -20 -20 -20 -20 -20 -20 -20 -20 -11
35 36 37 24 -11 -20 -20 -20 -20 12 -5 7 -20 -20 -20 -20 -20 -20 -20 -20 -20 -20 -20 -20 -20 -20 -20 -20 -20 -20 -20 -20 -20 -20 -20 -20 -20 -20 -20 -20 -20 -20 -20
37 31 41 40 -3 -18 -20 -20 -20 -20 22 3 -0 -20 -20 -20 -20 -20 -17 -20 -20 -20 -20 -20 -20 -20 -20 -20 -20 -20 -20 -20 -20 -20 -20 -20 -20 -20 -20 -20 13 2 -20
29 38 41 31 30 33 3 -20 -20 -20 -20 11 5 9 -20 -20 -20 2 -16 -20 -20 -20 -20 -20 -20 -20 -20 -20 -20 -20 -20 -20 -20 -20 -20 -20 -20 -20 -20 -20 -20 16 15
15 27 35 35 32 16 33 5 -20 -20 -20 -9 -6 4 2 1 -20 -12 -20 -20 -20 -20 -20 -20 -20 -20 -20 -20 -20 -20 -20 -20 -20 -20 -20 -20 -20 -20 -20 -20 -20 -20 15
22 24 23 37 31 21 16 -20 -20 -20 -20 -20 -0 -2 -8 2 10 -20 -20 -20 -20 -20 -20 -20 -20 -20 -20 -20 -20 -20 -20 -20 -20 -20 -20 -20 -20 -20 -20 -20 -20 -20 -15
17 18 11 33 22 14 -17 32 -20 -17 -18 7 -15 14 -18 -20 -20 -20 -20 -20 -20 -20 -20 -20 -20 -20 -20 -20 -20 -20 -20 -20 -20 -20 -20 -20 -20 -20 -20 -20 -20 -20 -20
26 -0 2 18 25 25 19 23 14 6 14 -8 9 -8 -20 -20 -20 -20 -6 9 -15 -20 -20 -20 -20 -20 -20 -20 -18 3 -20 -20 -20 -20 -20 -20 -20 -20 -20 -20 -20 -20 -20
30 18 15 27 34 31 21 23 28 32 24 4 -2 8 -16 -20 -20 -20 -20 20 -13 25 -20 -20 -20 -5 -20 -20 -19 -5 4 -20 -20 -20 -20 -20 -20 -20 -20 -20 -20 -20 -20
40 42 34 38 37 27 32 25 13 17 13 17 8 4 10 -12 -20 12 1 13 27 24 23 -2 3 26 23 10 -19 -18 -12 -20 -20 -20 -20 -20 -20 -20 -20 -20 -20 -20 -20
27 35 34 29 30 23 27 33 29 31 28 26 28 27 31 13 -20 -0 16 25 42 37 30 29 27 24 26 23 25 23 15 -19 -20 -20 -20 -9 -20 -20 -20 -20 -20 -20 -20
22 14 22 27 9 19 28 33 26 35 32 34 34 34 33 36 29 23 29 38 35 39 32 32 35 24 16 4 4 19 9 19 -18 -0 -20 -20 -20 -20 -20 -20 -20 -20 -20
18 9 8 -1 -13 0 13 20 29 29 34 27 34 31 33 35 35 37 38 36 37 38 28 28 33 37 26 20 19 -5 11 21 26 -10 -20 -20 -20 -20 -20 -20 -20 -20 -20

GFSSE_prec_radar_081.txt.gz
Reflectivity
-20 -20 17 -20 -20 -20 -20 -20 -20 -20 -20 -16 -11 -20 -20 -20 -20 -20 -20 -20 -20 -20 -20 -20 -1 -3 8 9 0 -20 -20 -20 -20 -20 -20 -20 -20 -20 -20 -12 11 -2 7
-20 -19 -20 -20 -14 -20 -20 -18 -20 -20 -20 -20 -5 -17 -20 2 19 -20 -20 -20 -20 -20 -20 -6 -3 16 12 -6 -19 -20 -20 -20 -20 -20 -20 -20 -20 -20 -20 -20 -16 -19 -19
-20 -20 0 -20 -20 -20 -20 -10 -20 -20 -20 -20 -20 -20 5 6 6 -20 -20 -20 -20 4 16 -15 1 13 0 -4 -20 -20 -20 -20 -20 -20 -20 -20 -20 -20 -20 -20 -20 -20 -20
-20 -20 5 12 -9 -20 -2 -20 -20 -20 -2 -20 -13 -20 -17 3 -7 -20 -20 -20 -6 15 9 -12 11 -2 7 -10 -20 -20 -20 -20 -20 -20 -20 -20 -20 -20 -20 -20 -20 -20 -20
16 -20 3 -20 7 -20 -5 -20 -20 -20 -20 -20 -20 -20 -20 -9 -20 -20 -20 -20 14 10 8 5 -3 -16 -14 -6 -20 -20 -20 -20 -20 -20 -20 -20 -20 -18 -20 -20 -20 -20 -20
16 0 10 3 -20 -20 -1 -20 -20 -20 -20 -20 -20 -20 31 14 -2 3 -2 2 9 9 2 7 12 -20 -20 -15 -20 -20 -20 -20 -20 -20 -20 -20 -20 -2 -9 -20 -20 -20 -20
19 4 -9 17 -5 -18 -13 -20 -20 -20 21 22 -8 -6 30 5 12 -9 2 8 3 3 -20 -20 -5 10 3 -16 -20 -20 -20 -20 -20 -20 -20 -20 -20 -3 -2 -20 -20 -20 -20
24 7 28 -20 8 -16 3 -20 -20 -20 2 17 24 27 24 1 14 -5 -0 3 2 -20 -20 -20 -20 -20 -20 -20 -20 -20 -20 -20 -20 -20 -20 -20 -20 -10 -8 -20 -20 -20 -20
26 25 24 13 20 15 -20 -20 -20 -20 -20 27 23 28 -13 -4 14 -1 11 11 12 -20 -20 -20 -20 -20 -20 -20 -20 -20 -20 -20 -20 -20 -20 -20 -20 -20 -20 -20 -20 -20 -20
29 23 28 12 17 -1 26 -20 -20 -20 -20 -6 11 -17 10 9 11 11 -12 14 -3 -20 -20 -20 -20 -20 -20 -20 -20 -20 -20 -20 -20 -20 -20 -20 -20 -20 -20 -20 -20 -20 -20
16 21 28 28 22 -20 12 -20 -20 -20 -20 -10 8 12 -3 -20 -15 -2 -20 -18 -1 -20 -20 -20 -20 -20 -20 -20 -20 -20 -20 -20 -20 -20 -20 -20 -20 -20 -20 -20 -20 -20 -20
34 -2 27 31 26 6 -5 -9 -20 -20 -20 -20 -14 -17 -20 -20 -20 -20 -20 -11 -16 -20 -20 -20 -20 -20 -20 -20 -20 -20 -20 -20 -20 -20 -20 -20 -20 -20 -20 -20 -20 -20 -20
41 30 39 18 26 1 -20 -2 -9 -20 -20 -20 -20 -20 -20 -20 -20 -20 -20 -20 -20 -20 -20 -20 -20 -20 -20 -20 -20 -20 -20 -20 -20 -20 -20 -20 -20 -20 -20 -20 -20 -20 11
29 38 24 29 41 23 -18 20 18 -20 -20 -20 -20 -20 -20 -20 -20 -20 -20 -20 -20 -20 -20 -20 -20 -20 -20 -20 -20 -20 -20 -20 -20 -20 -20 -20 -20 -20 -20 -20 8 -20 16
30 30 32 23 40 37 -20 25 18 10 -20 -20 -20 -20 -20 -20 -20 -20 -20 -20 -20 -20 -20 -20 -20 -20 -20 -20 -20 -20 -20 -20 -20 -20 -20 -20 -20 -20 -20 -20 -20 5 -16
21 30 34 17 33 42 9 -3 3 -16 9 -12 -20 -20 -20 -20 -20 -20 -20 -20 -20 -20 -20 -20 -20 -20 -20 -20 -20 -20 -20 -20 -20 -20 -20 -20 -20 -20 -20 -20 -20 -0 16
7 24 29 30 40 46 26 -1 8 -20 -17 -0 1 -20 -20 -20 -20 -20 -20 -20 -20 -20 3 -5 -20 -20 -20 -20 -20 -20 -20 -20 -20 -20 -20 -20 -20 -20 -20 -20 -20 -20 5
12 18 12 28 37 44 26 0 -20 -20 28 2 -3 -4 -19 -20 -20 -20 -20 -20 -20 3 -4 -20 -20 -20 -20 -20 -20 -20 -20 -20 -20 -20 -20 -20 -20 -20 -20 -20 -20 -20 -20
14 14 27 21 32 39 26 -2 -19 -20 -20 -20 -11 5 -9 -20 -12 -20 -20 -10 -20 -7 -20 -20 -20 -20 -20 -20 -20 -20 -8 -18 -20 -20 -20 -20 -20 -20 -20 -20 -20 -20 -20
-1 18 18 30 26 34 21 19 15 -2 -5 2 9 -11 -10 -10 -11 -20 -13 -9 6 11 -20 -20 -20 -20 -20 -20 -20 -18 -18 -20 -20 -20 -20 -20 -20 -20 -20 -20 -20 -20 -20
11 11 23 25 21 21 23 21 13 11 12 33 -3 -12 -20 -20 -20 9 8 3 -14 10 -20 -20 -20 -20 -20 -20 -18 3 -20 -20 -20 -20 -20 -20 -20 -20 -20 -20 -20 -20 -20
25 22 23 26 23 29 32 32 16 27 30 31 26 -6 -16 -5 27 9 12 6 8 -20 -20 3 -20 -20 -20 -8 2 8 -3 -18 -20 -20 -20 -20 -20 -20 -20 -20 -20 -20 -20
31 20 31 31 32 31 35 28 25 30 33 32 21 9 4 14 4 2 12 1 -15 -20 5 9 26 19 4 2 -1 2 -5 -20 -20 -20 -20 -20 -20 -20 -20 -20 -20 -20 -20
31 28 37 39 38 36 30 28 31 31 30 30 29 11 15 -7 5 19 22 18 -20 -3 -9 9 40 38 29 27 9 9 5 19 -20 -20 -20 -20 -20 -20 -20 -20 -20 -20 -20
31 31 33 35 34 31 33 27 29 30 32 31 24 26 17 7 23 24 16 -13 11 8 11 13 24 35 44 39 27 31 23 5 3 22 1 15 -6 -3 -19 -20 -20 -20 -20
19 15 25 22 30 34 25 32 27 32 38 31 36 36 37 31 33 26 28 31 26 -7 16 26 29 34 35 43 31 34 30 19 28 21 12 2 9 -20 -20 -20 -20 -20 -20

GFSSE_prec_radar_084.txt.gz
Reflectivity
-20 -20 -20 -20 -20 -20 -20 -20 -20 -20 -20 -20 -20 -20 -20 -20 -20 -14 -20 -20 -20 -20 -20 -11 14 5 6 -20 -20 -20 -20 -20 -20 -20 -20 -14 -20 -6 -5 6 -20 -17 16
-20 -20 -20 -20 -20 -20 -20 -20 -20 -20 -20 -20 -12 -20 -20 -3 4 -9 -20 -20 -20 -20 -20 8 -7 11 -10 -20 -20 -20 -20 -20 -20 -20 -20 -20 -20 -20 -20 -20 -15 6 6
-20 -20 -20 -12 -20 -20 -20 -20 -20 -20 -20 -11 -20 -8 -19 4 -1 -19 -20 -20 -17 -20 3 12 7 11 -16 -20 -20 -20 -20 -20 -20 -20 -20 -20 -20 -20 -20 -20 -20 -20 -20
-16 -20 -20 -19 -20 -13 -13 -20 -20 -20 -20 -16 -20 -20 -20 3 -7 -4 -20 -20 11 9 -20 9 18 11 -20 -20 -20 -20 -20 -20 -20 -20 -20 -20 -20 -20 -20 -20 -20 -20 -20
-6 -20 -20 -20 10 -19 23 -20 -20 -20 -20 -20 -20 -20 -20 -3 -1 10 -20 -4 9 1 2 5 3 11 -18 -20 -20 -20 -20 -20 -20 -20 -20 -20 -20 -20 -20 -20 -20 -20 -20
7 -20 -20 -16 3 -20 9 -20 -20 -20 -20 -20 10 -20 -20 -8 6 6 -20 -12 8 -16 7 -12 -20 -16 -8 -20 -20 -20 -20 -20 -20 -20 -20 -20 -20 -20 -20 -20 -20 -20 -20
-1 -20 -20 14 6 -20 8 -10 -20 -20 -20 -20 -2 13 -20 1 11 -0 -19 9 2 14 7 12 -20 -20 -8 -20 -20 -20 -20 -20 -20 -20 -20 -20 -20 -20 -20 -20 -20 -20 -20
-20 -20 -20 9 27 -20 -6 -20 -20 -20 -20 -20 -20 -20 29 13 13 5 7 14 16 -9 -20 -13 6 10 -10 -20 -20 -20 -20 -20 -20 -20 -20 -20 -20 -20 -20 -20 -20 -20 -20
20 -9 31 32 7 -4 16 -20 -20 -20 -12 14 -20 14 22 2 12 9 17 17 18 -20 -20 -20 -20 -20 -20 -20 -20 -20 -20 -20 -20 -20 -20 -20 -20 -20 -20 -20 -20 -20 -20
1 22 3 34 5 24 -20 -20 -20 -20 -20 17 22 17 11 -9 11 18 15 16 4 -20 -20 -20 -20 -20 -20 -20 -20 -20 -20 -20 -20 -20 -20 -20 -20 -20 -20 -20 -20 -20 -20
-7 28 45 37 27 33 27 -20 -20 -20 -20 7 6 11 -8 -20 -19 -3 16 16 3 -20 -20 -20 -20 -20 -20 -20 -20 -20 -20 -20 -20 -20 -20 -20 -20 -20 -20 -20 -20 -20 -20
-20 13 46 36 18 28 29 29 -20 -20 -20 -20 9 15 -20 -20 -18 -20 -20 5 -1 -20 -20 -20 -20 -20 -20 -20 -20 -20 -20 -20 -20 -20 -20 -20 -20 -20 -20 -20 -20 -20 -20
-20 22 40 32 33 29 31 36 -4 -20 -20 -20 -14 19 -6 -20 -20 -20 -20 -20 -20 -20 -20 -20 -20 -20 -20 -20 -20 -20 -20 -20 -20 -20 -20 -20 -20 -20 -20 -20 -20 9 -20
-20 -1 29 31 34 38 28 21 29 -20 -20 -20 -20 -20 -7 -20 -20 -20 -20 -20 -20 -20 -20 -20 -20 -20 -20 -20 -20 -20 -20 -20 -20 -20 -20 -20 -20 -20 -20 -20 -20 -20 -20
-19 15 28 23 27 35 24 14 33 -18 -20 -20 -20 -20 -20 -20 -20 -20 -20 -20 -20 -20 -20 -20 -20 -20 -20 -20 -20 -20 -20 -20 -20 -20 -20 -12 -20 -20 -20 -20 -20 14 12
-20 16 26 26 24 35 27 38 40 26 -20 -20 -20 -20 -20 -20 -20 -20 -20 -20 -20 -20 -20 -20 -20 -20 -20 -20 -20 -20 -20 -20 -20 -20 -13 -20 -20 -20 -20 -20 -20 -20 -12
-20 -5 16 28 10 29 23 42 40 30 -20 -20 -20 -20 -20 -20 -20 -20 -20 -20 -20 -20 -20 -20 -20 -20 -18 -14 -20 -20 -20 -20 -20 -12 -20 -20 -20 -20 -20 -20 -20 -20 -20
-20 12 13 23 23 30 24 26 34 22 32 9 -20 -20 -20 -20 -20 -20 -20 -20 -20 -20 -20 -15 -20 -20 10 -20 -20 -20 -20 -20 -20 -18 -20 6 -1 -20 -20 -20 -20 -20 -20
24 7 10 13 15 31 28 17 35 29 30 16 10 -19 -20 -20 -20 -20 -20 -20 -20 -20 -20 -19 -20 -12 0 -19 -20 -20 -20 -9 -20 -20 -20 -20 -20 -20 -20 -20 -20 -20 -20
27 -13 2 17 -5 19 28 30 20 35 30 32 19 -0 -13 -11 -20 -20 -20 -20 -20 -20 -20 -20 -20 3 7 -20 -20 -20 -20 -19 -20 -20 -18 -20 -20 -20 -20 -20 -20 -20 -20
35 8 4 20 4 16 28 28 34 23 14 16 9 18 7 2 25 6 -7 -19 -20 -20 -10 -18 -12 -8 6 -20 -20 -20 -20 -20 -20 -20 -20 -20 -20 -20 -20 -20 -20 -20 -20
33 15 23 19 13 21 36 30 13 23 27 30 29 -5 2 10 -12 12 9 -18 -20 -8 -4 1 7 -3 1 -10 -20 -20 -5 -20 -20 -20 -20 -20 -20 -20 -20 -20 -20 -20 -20
40 28 30 30 20 22 30 24 27 -19 15 15 12 21 34 31 4 10 -15 -20 -7 8 23 16 5 -11 -8 -19 14 10 -8 -20 -20 -20 -20 -20 -20 -20 -20 -20 -20 -20 -20
34 24 34 38 37 23 29 34 35 8 -1 16 25 22 30 26 22 23 21 17 16 17 16 15 7 21 15 30 33 31 29 15 -13 -20 -20 -5 -20 -20 -20 -20 -20 -20 -20
31 32 32 38 38 26 29 31 29 27 31 34 21 32 26 34 34 23 11 8 13 21 25 22 5 8 9 11 19 27 36 38 27 13 5 8 10 21 11 -18 -6 -20 -20
34 33 33 36 25 26 33 37 32 33 31 29 25 32 32 31 18 13 8 -6 3 3 8 -7 6 -11 14 18 20 26 38 38 37 33 35 34 32 7 -19 4 -20 -20 -20

GFSSE_prec_radar_087.txt.gz
Reflectivity
-20 -20 -20 -20 -20 -20 -20 -20 -15 7 -20 -20 -20 -20 -20 -20 -20 -20 -20 -20 -20 -20 13 2 15 -14 -20 -20 -20 -20 -13 -10 -20 -13 -15 -2 8 -14 -10 -20 -11 -7 4
-20 -20 -20 -20 -20 -20 -20 -20 -20 -18 -18 -3 -20 -20 -4 -1 -4 -20 -20 -20 -20 -20 6 -1 10 -16 -20 -20 -20 -20 -20 -20 -20 -20 -20 -20 -20 -20 -20 -20 -6 -16 10
-20 -20 -20 -20 -20 -20 -20 -20 -20 -20 3 -5 -9 -20 -6 8 7 -1 -20 -20 -20 -20 6 10 -11 -20 -20 -20 -20 -20 -20 -20 -20 -20 -20 -20 -20 -20 -20 -20 -20 -20 -20
-20 -20 -20 -20 -20 -20 -20 -20 -20 -20 -20 -5 -20 -0 -12 3 1 10 -20 -20 -14 6 15 3 -19 -20 -20 -20 -20 -20 -20 -20 -20 -20 -20 -20 -20 -20 -20 -20 -20 -20 -20
-20 -20 -20 -20 -20 -20 -20 -20 -20 -20 -20 -20 -4 13 -20 14 14 13 -20 6 -17 -14 15 2 10 -20 -20 -20 -20 -20 -20 -20 -20 -20 -20 -20 -20 -20 -20 -20 -20 -20 -20
-20 -20 10 1 -20 -20 -20 -20 -20 3 -20 -20 -20 -20 -20 -20 12 3 -20 7 -20 -16 -20 -1 10 -20 -20 -20 -20 -20 -20 -20 -20 -20 -20 -20 -20 -20 -20 -20 -20 -20 -20
-20 -20 35 -20 -20 -20 -19 -7 -10 -20 14 -20 -13 -18 -18 -20 5 7 -20 -9 -2 13 3 -20 3 -10 -20 -20 -20 -20 -20 -20 -20 -20 -20 -20 -20 -20 -20 -20 -20 -20 -20
-20 -20 28 10 -13 -20 -20 -4 -20 -20 23 -20 -20 1 -20 5 15 -3 -20 16 5 15 13 -17 -20 -9 -20 -20 -20 -20 -20 -20 -20 -20 -20 -20 -20 -20 -20 -20 -20 -20 -20
-9 23 20 -18 -15 27 24 1 -20 -20 -20 -20 -13 -17 -20 2 11 4 8 16 15 8 1 7 1 7 -20 -20 -20 -20 -20 -20 -20 -20 -20 -20 -20 -20 -20 -20 -20 -20 -20
1 30 -17 -20 -19 -20 -20 7 -1 -20 -20 -2 -20 -14 -13 19 8 3 4 18 16 6 -20 -20 -20 -20 -20 -20 -20 -20 -20 -20 -20 -20 -20 -20 -20 -20 -20 -20 -20 -20 -20
-6 5 29 32 11 -20 -15 -15 -20 -2 -20 -4 3 -8 19 -15 -16 3 -7 15 16 -7 -20 -20 -20 -20 -20 -20 -20 -20 -20 -20 -20 -20 -20 -20 -20 -20 -20 -20 -20 -20 -20
-20 -20 -1 11 28 24 12 6 -19 -12 11 -7 20 21 20 -6 -20 -6 10 14 8 -20 -20 -20 -20 -20 -20 -20 -20 -20 -20 -20 -20 -20 -20 -20 -20 -20 -20 -20 -20 -20 -20
-20 -20 -20 -20 -18 32 35 29 21 12 26 7 22 22 25 -11 -6 -18 -20 -14 -4 -20 -20 -20 -20 -20 -20 -20 -20 -20 -20 -20 -20 -20 -20 -20 -20 -20 -20 -20 -20 -20 -20
-20 -20 -20 -20 -20 21 38 32 26 25 -6 22 11 33 18 -20 -20 -20 -20 -20 -20 -20 -20 -20 -20 -20 -20 -20 -20 -20 -20 -20 -20 -20 -20 -20 -20 -20 -20 -20 -20 -20 -20
-20 -20 -20 -20 -20 26 37 33 26 27 12 15 -3 -10 28 2 -20 -20 -20 -20 -20 -20 -20 -20 -20 -20 -20 -20 -20 -20 -20 -20 -20 -20 -20 -14 -20 -20 -20 -20 -20 -20 -20
-18 -20 -20 -20 -20 8 28 19 30 14 10 -0 -13 -20 -14 7 -20 -20 -20 -20 -20 -20 -20 -20 -20 -20 -20 -20 -20 -20 -20 -20 -20 -20 -20 -1 -20 -20 -20 -20 -20 -14 -20
-20 -20 -20 -20 8 22 26 24 35 29 16 -20 -20 -20 -20 -18 -20 -20 -20 -20 -20 -20 -20 -20 -20 -20 -20 -20 -20 -20 -20 -20 -20 -20 -20 -20 -20 -20 -20 -20 -20 -20 -20
28 -10 -20 -20 -8 17 31 27 25 36 33 -8 -8 -19 -20 -20 -20 -20 -20 -20 -20 -20 -20 -20 -20 -20 -20 -20 -20 -17 -15 -9 -20 -20 2 -10 -20 -20 -20 -20 -20 -20 -20
-20 4 7 -19 -19 -1 14 16 31 39 38 37 13 10 -2 4 -20 -20 -20 -20 -20 -20 -20 -20 -20 -20 -20 -20 -20 -8 -20 -7 -20 -11 -20 -20 -20 -20 -20 -20 -20 -20 -20
-20 -8 10 8 1 15 22 10 29 30 31 32 24 -7 -12 -17 -20 -20 -20 -20 -20 -20 -20 -20 -20 -20 -20 -20 -20 -20 -2 15 -20 9 -6 -20 -6 -20 -20 -20 -20 -20 -20
-20 -20 6 17 11 17 23 12 23 24 29 35 38 20 -12 -5 -20 -20 -20 -20 -20 -20 -16 -19 -20 -20 -20 -20 -20 -20 -16 4 -20 -18 1 -20 -20 -20 -20 -20 -20 -20 -20
-20 -13 26 26 15 23 5 24 -2 28 36 41 37 37 37 26 3 -20 -19 -18 -20 -17 -20 -20 -7 4 -12 -12 -18 -19 4 10 -20 -20 -20 -20 -20 -20 -20 -20 -20 -20 -20
-20 11 12 5 25 17 20 16 20 15 27 35 26 34 37 39 27 27 28 7 -20 10 -5 9 14 7 -2 3 -10 -11 -1 -16 -20 -20 -20 -20 -20 -20 -20 -20 -20 -20 -20
-7 15 7 35 39 24 20 24 28 25 31 7 23 31 31 35 34 28 34 20 10 -0 -0 14 19 21 22 22 27 25 8 -5 -6 18 11 17 -1 -20 -20 -20 -20 -20 -20
1 15 25 25 40 34 36 38 37 26 23 13 21 18 33 25 25 22 29 29 29 31 30 20 -1 7 16 23 25 30 24 29 22 23 29 25 5 17 -16 -12 -5 -20 -20
4 19 33 34 34 30 36 40 36 34 16 9 25 29 29 24 29 29 25 18 24 5 -5 22 10 -14 -20 -20 -20 1 11 20 18 28 31 35 31 25 30 32 27 -10 -20

GFSSE_prec_radar_090.txt.gz
Reflectivity
-20 -20 9 -20 -20 -20 -2 -11 -8 -20 -20 -20 -20 -20 -1 1 -20 -20 -20 -20 -20 2 -20 15 -19 11 13 -13 -14 18 -20 -20 -18 -20 -10 8 12 2 -20 -20 -7 -14 0
-20 -19 8 -20 -20 -20 -20 6 -8 -20 -20 -20 -20 -20 -2 4 -13 -20 -20 -20 -20 11 12 15 -17 -20 -20 -20 -20 -18 -20 -20 -20 -20 -20 -20 -20 -20 -20 -20 -20 -12 17
-20 -20 -20 -20 -20 -20 -20 -20 -20 -20 -12 -16 -4 -16 3 1 -12 -20 -20 -20 -20 14 16 8 -20 -20 -20 -20 -20 -20 -20 -20 -20 -20 -20 -20 -20 -20 -20 -20 -20 -20 -20
-20 -20 -20 -20 -6 -20 -20 -20 -20 -20 -20 3 9 -4 3 -0 4 -1 -20 -20 -20 12 14 -8 -20 -20 -20 -20 -20 -20 -20 -20 -20 -20 -20 -20 -20 -20 -20 -20 -20 -20 -20
-20 -20 -20 -20 -20 -20 -20 -20 -20 -20 -20 -20 -20 -20 -14 -5 7 10 -20 -20 -15 9 13 -20 -20 -20 -20 -20 -20 -20 -20 -20 -20 -20 -20 -20 -20 -20 -20 -20 -20 -20 -20
-20 -20 -20 -6 -20 20 -20 -20 -20 -20 -20 -20 9 -20 -20 2 11 4 -20 -20 2 8 17 3 -20 -20 -20 -20 -20 -20 -20 -20 -20 -20 -20 -20 -20 -20 -20 -20 -20 -20 -20
-20 -20 -7 29 14 -20 16 -8 -20 -20 -20 -20 -20 -19 19 -20 13 -2 12 -10 -20 5 9 14 -20 -20 -20 -20 -20 -20 -20 -20 -20 -20 -20 -20 -20 -20 -20 -20 -20 -20 -20
-20 -20 -20 6 26 -10 -20 12 -1 -20 -20 -20 -20 -20 -20 -20 -2 -20 -20 -5 -20 1 7 11 -16 -20 -20 -20 -20 -20 -20 -20 -20 -20 -20 -20 -20 -20 -20 -20 -20 -20 -20
-20 -20 -20 -20 -20 -12 -20 -20 -13 12 -20 -16 -20 -20 -10 -20 -6 -1 -20 14 14 -7 -4 -15 -19 -20 -20 -20 -20 -20 -20 -20 -20 -20 -20 -20 -20 -20 -20 -20 -20 -20 -20
10 35 33 -20 -20 -11 -20 9 4 -20 -20 6 -20 -20 -9 -20 12 5 -12 9 12 14 2 -20 -3 -5 -20 -20 -20 -20 -20 -20 -20 -20 -20 -20 -20 -20 -20 -20 -20 -20 -20
-20 22 -20 1 27 -20 7 -20 -20 -15 -20 -20 -5 -20 -13 -7 -20 -7 -14 14 9 10 2 -20 -20 -20 -20 -20 -20 -20 -20 -20 -20 -20 -20 -20 -20 -20 -20 -20 -20 -20 -20
-20 -20 -20 26 14 23 24 -4 -20 -20 -20 -20 9 9 -17 8 -20 -5 8 8 15 -20 -20 -20 -20 -20 -20 -20 -20 -20 -20 -20 -20 -20 -20 -20 -20 -20 -20 -20 -20 -20 -20
-20 -20 -20 -18 15 13 24 18 17 11 -20 -20 -20 27 17 -17 -18 10 3 1 -16 -19 -20 -20 -20 -20 -20 -20 -20 -20 -20 -20 -20 -20 -20 -20 -20 -20 -20 -20 -20 -20 -20
-20 -20 -20 -20 -20 -20 -20 -20 18 16 -18 -2 -20 16 19 8 -13 35 -9 -1 -19 -18 -20 -20 -20 -20 -20 -20 -20 -20 -20 -20 -20 -20 -20 -20 -20 -20 -20 -20 -20 -20 -20
-20 -20 -20 -20 -20 -20 -20 -20 -10 4 29 -10 -20 -20 22 14 3 16 -3 12 3 3 -20 -20 -20 -20 -20 -20 -20 -20 -20 -20 -20 -20 -20 -20 -20 -20 -20 -20 -20 -20 -20
-20 -20 -20 -20 -20 -20 -20 -18 -20 27 24 20 12 -20 -4 25 31 37 33 -11 12 4 -15 -20 -20 -20 -20 -20 -20 -20 -20 -20 -20 -20 -20 -20 -20 -20 -20 -20 -20 -20 -20
-20 -20 -20 -20 -20 -20 -20 -20 -20 0 25 31 -16 -20 -20 24 35 -16 5 -20 -8 -4 -4 -20 -20 -20 -20 -20 -20 -20 -20 -20 -20 -20 -20 -20 -20 -8 -19 -20 -20 -10 -20
-20 -20 -20 -20 -20 -20 -20 -20 -20 -19 32 31 9 -16 -20 -3 16 25 20 0 4 -19 -20 -20 -20 -20 -20 -20 -20 -20 -20 -20 -20 -20 -14 -20 -20 -20 -20 -20 -20 -20 -20
-20 -20 -20 -20 -11 -20 -20 -20 -20 -20 31 28 6 9 -20 -20 -5 13 30 -1 4 -20 -20 -20 -20 -20 -20 -20 -20 -20 -20 -20 -20 -20 -20 -20 -20 -20 -20 -20 -20 -20 -20
-20 -20 -20 -20 -20 -20 -20 -17 22 -16 14 14 28 21 -2 -20 -5 6 15 15 -10 -20 -20 -20 -20 -20 -20 -20 -20 -20 -20 -20 -17 -20 -18 -10 -0 -20 -20 -20 -20 -20 -20
-20 -20 -20 -20 -20 -20 -20 -20 1 28 11 20 24 34 27 12 -5 -5 -20 -20 -20 -7 7 -7 -20 -20 -20 -20 -17 -9 -20 -20 -20 -20 -12 -20 2 -9 -20 -20 -20 -20 -20
-20 -20 12 -20 -20 -20 5 10 -1 23 15 23 24 31 30 29 22 13 -6 7 8 10 -12 -19 -14 -11 -20 -20 -4 -20 -19 -17 -20 -19 -15 -18 -20 -10 -20 -20 -20 -20 -20
-10 -11 3 -4 8 -20 -20 -17 6 14 26 32 29 29 26 25 20 27 19 16 1 -17 -20 -1 -20 -7 9 2 -12 -20 2 -12 1 1 9 -19 -20 -20 -20 -20 -20 -20 -20
-3 4 -19 -20 25 -20 -6 8 24 20 24 23 34 37 30 31 24 23 33 19 -7 -13 13 -4 -2 29 22 27 25 21 15 16 17 5 -1 -10 -20 -11 20 15 6 -20 -20
27 -20 5 13 2 18 34 33 41 32 23 22 30 34 38 36 33 33 32 30 27 24 26 24 28 26 24 6 13 12 22 -14 -20 -17 4 22 0 -11 12 17 -1 -1 -18
12 21 6 13 5 28 38 36 37 34 32 36 35 34 37 34 33 34 35 34 32 31 32 28 32 30 24 25 28 28 14 4 -20 -4 -11 -18 6 24 -4 29 2 7 23

GFSSE_prec_radar_093.txt.gz
Reflectivity
-20 -20 -20 -1 16 7 -1 -20 -20 -20 -20 -20 -20 -17 -4 -20 -20 -20 -20 -20 -20 -20 1 7 5 12 3 10 -8 -20 -20 -20 -20 -12 5 8 3 -20 -20 -20 -20 -15 12
-20 -20 -20 7 16 9 -15 3 -20 -20 -20 -20 -15 15 8 17 -20 -20 -20 -19 -17 -20 13 3 9 16 -20 1 5 -20 -20 -20 -20 -20 -20 -20 -20 -20 -20 -20 -20 5 14
-20 -20 -20 -3 -20 -19 -20 -20 -20 -20 -20 -13 -14 14 13 15 -8 -20 -20 -20 6 10 16 -12 -20 -20 -20 -20 -20 -20 -20 -20 -20 -20 -20 -20 -20 -20 -20 -20 -20 -20 -20
-20 -20 -20 -20 -12 -20 -20 -10 -11 -20 -20 -4 -5 -10 9 -13 -6 -20 -20 -20 9 -20 5 -20 -20 -20 -20 -20 -20 -20 -20 -20 -20 -20 -20 -20 -20 -20 -20 -20 -20 -20 -20
-20 -20 -20 -16 -18 -20 -20 -20 -20 -20 -20 -20 -16 -19 -0 2 -5 7 -20 -20 15 10 -20 -20 -20 -20 -20 -20 -20 -20 -20 -20 -20 -20 -20 -20 -20 -20 -20 -20 -20 -20 -20
-20 -20 -20 5 -20 -20 -20 -20 -20 -20 -11 -20 -20 -20 -20 -19 11 14 -20 -20 -19 10 -20 -20 -20 -20 -20 -20 -20 -20 -20 -20 -20 -20 -20 -20 -20 -20 -20 -20 -20 -20 -20
-20 -20 -7 -20 -20 -20 -20 -20 -20 -20 -20 2 -20 -20 -20 -1 6 8 -8 -20 -20 11 4 -20 -20 -20 -20 -20 -20 -20 -20 -20 -20 -20 -20 -20 -20 -20 -20 -20 -20 -20 -20
6 -20 -20 -20 -20 0 -20 -20 -20 -4 9 -20 -14 -16 -20 -9 -20 -8 7 -20 -6 8 12 -20 -20 -20 -20 -20 -20 -20 -20 -20 -20 -20 -20 -20 -20 -20 -20 -20 -20 -20 -20
27 30 -20 -20 -20 -20 -20 -20 -20 -20 -13 -14 -20 -20 -20 -15 -20 -20 -15 -20 -3 -8 11 8 -20 -20 -20 -20 -20 -20 -20 -20 -20 -20 -20 -20 -20 -20 -20 -20 -20 -20 -20
25 21 24 27 -17 -20 -20 -20 -20 -20 -20 -20 -4 -20 -19 -18 -20 -20 -20 -20 11 5 11 13 -20 -20 -20 -20 -20 -20 -20 -20 -20 -20 -20 -20 -20 -20 -20 -20 -20 -20 -20
-20 2 -6 -20 -3 28 21 -12 -20 -20 -20 -20 -20 -20 -8 9 -0 -20 -20 -20 -20 -2 -20 4 -4 -20 -20 -20 -20 -20 -20 -20 -20 -20 -20 -20 -20 -20 -20 -20 -20 -20 -20
2 -20 -20 -6 -6 -20 1 23 4 -20 -20 -20 -20 -20 -20 -13 -11 -20 -20 -20 -19 10 13 -20 -1 -20 -20 -20 -20 -20 -20 -20 -20 -20 -20 -20 -20 -20 -20 -20 -20 -20 -20
-3 -17 -20 -20 -20 -20 -20 -20 -15 7 -20 -20 -20 -20 -20 0 11 -20 -20 -20 -6 -1 8 -10 -20 -20 -20 -20 -20 -20 -20 -20 -20 -20 -20 -20 -20 -20 -20 -20 -20 -20 -20
-20 -20 -20 -20 -20 -20 -20 -20 -6 -9 24 1 -5 -16 -20 4 26 -17 -20 -20 -5 -5 4 -4 -9 -20 -20 -20 -20 -20 -20 -20 -20 -20 -20 -20 -20 -20 -20 -20 -20 -20 -20
-20 -20 -20 -20 -20 -20 -20 -20 -20 -20 -18 18 13 17 -20 11 19 23 3 -20 19 12 10 7 -1 -18 -20 -20 -20 -20 -20 -20 -20 -20 -20 -20 -20 -20 -11 -20 -20 -20 -20
-20 -20 -20 -20 -20 -20 -20 -20 -20 -20 -20 -20 6 -1 0 -17 -8 26 20 10 33 18 -8 -3 -4 -6 -20 -20 -20 -20 -20 -20 -20 -20 -20 -20 -20 -20 -20 -20 8 -20 -20
-20 -20 -20 -20 -20 -20 -20 -20 -20 -20 -20 -20 -20 -13 -19 -20 -20 -18 37 34 18 37 15 2 -20 -14 -20 -20 -20 -20 -20 -20 -20 -20 -20 -20 -20 -20 -20 -20 -20 -6 -20
-20 -20 -20 -20 -20 -20 -20 -20 -20 -20 -20 -20 -20 -20 -19 -17 -4 -20 12 26 31 24 15 -14 -7 -20 -20 -20 -20 -20 -20 -20 -20 -20 -20 -20 -20 -20 -20 -16 -20 6 -18
-20 -20 -20 -20 -20 -20 -20 -20 -20 -20 -20 -13 -20 -20 -19 12 -20 -20 -18 29 39 39 29 -12 -18 -20 -20 -20 -20 -20 -20 -20 -20 -20 -20 -20 -20 -20 -20 -20 -20 -20 -20
-20 -20 -20 -20 -20 -20 -20 -20 -2 -16 -20 -20 -13 2 -5 8 16 -15 0 28 28 21 22 -20 -17 -16 -20 -20 -20 -20 -20 -20 -20 -20 -20 -20 -20 -8 -18 -20 -14 -20 -20
-20 -20 -20 -20 -20 -20 -20 -20 -20 -20 -20 -20 -20 6 21 26 13 21 21 27 35 22 25 6 -10 -20 -20 -20 -20 -20 -20 -20 -20 -20 -20 -20 -20 -20 -20 -17 -13 -20 -20
-20 -20 -20 -20 -20 -20 -20 -20 -20 -20 -20 -20 21 15 24 19 17 27 20 24 9 34 15 15 9 -5 2 -16 -16 -3 -18 -18 -20 -9 -16 -6 -2 -20 -20 -20 2 -20 -20
-20 -20 -20 -20 -20 -20 -20 -20 -20 -19 9 -11 25 25 0 24 29 34 27 12 25 -11 -11 19 16 6 -20 -20 -19 -19 -19 -20 -5 -14 -13 -5 -16 8 9 -3 0 -17 -20
-20 -20 -20 -14 -5 -20 -20 6 -7 -5 -0 -20 1 30 26 20 27 33 34 27 30 24 10 10 -10 -17 24 4 -13 -20 -20 -20 14 -4 2 9 11 -12 -20 3 13 -18 -15
-20 -3 -14 1 10 -8 -19 9 -20 -8 -16 4 -18 42 38 28 28 30 30 30 31 30 15 28 18 24 14 3 26 -6 23 -20 -8 -4 -19 -2 -0 -20 1 -20 -15 23 -15
10 -20 -20 -12 16 13 16 26 22 24 32 17 23 39 31 29 32 32 28 27 26 20 22 28 31 26 32 27 22 20 24 3 13 15 19 9 18 -15 -20 -20 -20 -20 -20

GFSSE_prec_radar_096.txt.gz
Reflectivity
-20 -20 -20 -20 -20 -20 23 -13 -9 -20 -20 0 14 17 10 -4 -20 -20 -20 -20 -20 -20 4 12 3 -0 16 19 2 -20 -20 -20 -12 -20 -11 0 4 -20 -20 -20 -15 -20 10
-20 -20 -20 -14 -18 -20 -20 1 3 0 -20 -20 -20 18 18 18 -14 -20 -20 -20 -20 -19 8 10 4 -15 9 -9 -20 -20 -20 -20 -20 -20 -20 -20 -20 -20 -20 -20 -20 -20 -20
-20 -20 -20 -20 -20 -5 -17 -20 -8 -1 0 -6 -7 16 9 17 -12 -20 1 2 -20 14 -2 13 15 -20 14 -20 -20 -20 -20 -20 -20 -20 -20 -20 -20 -20 -20 -20 -20 -20 -20
-20 -20 -20 -20 -20 -20 -20 -10 -20 -20 -13 -6 -20 5 10 13 -6 -20 -1 -4 9 11 -20 -20 -20 -20 -20 -20 -20 -20 -20 -20 -20 -20 -20 -20 -20 -20 -20 -20 -20 -20 -20
-20 -20 -20 -20 -20 -20 -20 -20 -20 -20 -20 -20 -19 -16 9 1 -4 -20 -8 9 -17 2 -20 -20 -20 -20 -20 -20 -20 -20 -20 -20 -20 -20 -20 -20 -20 -20 -20 -20 -20 -20 -20
-20 -20 -20 4 -8 -20 -20 -20 -20 -20 -20 -20 -19 -17 -20 -5 -17 -20 -20 -3 -3 -20 -20 -20 -20 -20 -12 -20 -20 -20 -20 -20 -20 -20 -20 -20 -20 -15 -9 -20 -20 -20 -20
-20 -20 -20 7 -6 -20 -20 -20 -20 -20 -20 -20 -20 -20 -20 -13 -3 11 -20 5 11 5 -20 -20 -20 -20 -20 -20 -20 -20 -20 -20 -20 -20 -20 -20 -20 -20 -13 -20 -20 -20 -20
2 12 -20 21 -8 -20 -20 -20 -20 -20 -20 -1 -15 -20 -20 17 -20 26 -20 -14 10 -20 -20 -20 -20 -20 -20 -20 -20 -20 -20 -20 -20 -20 -20 -20 -20 -20 -20 -20 -20 -20 -20
-7 -17 26 -20 -16 -13 -13 -15 -14 -20 -20 -20 -20 -20 8 -20 28 14 -10 -20 -20 -12 10 -20 -20 -20 -20 -20 -20 -20 -20 -20 -20 -20 -20 -20 -20 -20 -20 -20 -20 -20 -20
3 -20 -18 -20 0 -20 -20 -20 -20 -20 -20 -20 -20 -20 -20 0 -20 31 -20 -5 -20 11 10 -14 -20 -20 -20 -20 -20 -20 -20 -20 -20 -20 -20 -20 -20 -20 -20 -20 -20 -20 -20
-9 18 -20 29 26 23 13 10 -9 -20 -20 -20 -20 -20 -20 -20 -20 -12 -20 -20 -20 -7 10 17 -20 -20 -20 -20 -20 -20 -20 -20 -20 -20 -20 -20 -20 -20 -20 -20 -20 -20 -20
-1 4 1 -20 -20 -20 -20 -20 -20 -1 -15 -20 -20 -20 -20 -20 -20 11 -17 -19 -20 -20 -2 13 10 -20 -20 -20 -20 -20 -20 -20 -20 -20 -20 -20 -20 -20 -20 -20 -20 -20 -20
-18 -1 -13 -20 -20 -20 -13 -20 -20 -20 13 -10 -20 -20 -20 -20 -20 -20 5 7 -20 -20 -5 4 7 -17 -20 -20 -20 -20 -20 -20 -20 -20 -20 -20 -20 -20 -20 -20 -20 -20 -20
-20 -20 -20 -20 -20 -20 -20 -20 -20 -20 -12 -9 20 2 -20 -20 -20 -20 -20 -19 -4 -20 -14 5 -20 -20 -20 -20 -20 -20 -20 -20 -20 -20 -20 -20 -20 -20 -18 -20 -20 -20 -20
-20 -20 -20 -20 -20 -20 -20 -20 -20 -20 -20 -10 3 17 14 6 -18 -20 7 -20 -13 -8 -10 -8 -19 -3 -20 -20 -20 -20 -20 -20 -20 -20 -20 -20 -20 -20 -2 -18 4 -20 -16
-20 -20 -20 -20 -20 -20 -20 -20 -20 -20 -20 -20 -17 -13 3 -11 4 -2 -20 -20 -20 -20 16 -14 -14 -10 -11 -20 -20 -20 -20 -20 -20 -20 -20 -20 -20 -20 -20 12 -6 12 1
-20 -20 -20 -20 -20 -20 -20 -20 -20 -20 -20 -20 -20 -20 -20 -20 -20 8 9 -20 -20 -17 -4 21 2 -20 -14 -20 -20 -20 -20 -20 -20 -20 -20 -20 -20 -20 -20 -20 -13 13 -18
-20 -20 -20 -20 -20 -20 -20 -20 -20 -20 -20 -20 -20 -20 -20 -20 -20 -20 8 -20 -20 12 31 28 27 29 1 -14 -20 -20 -20 -20 -20 -20 -20 -20 -20 -20 -20 -20 -20 -20 -20
-20 -20 -20 -20 -20 -20 -20 -20 -20 -20 -20 -20 -20 -20 -20 -20 -20 -14 -1 12 1 -18 29 38 31 25 33 -10 -20 -20 -20 -20 -20 -20 -20 -20 -20 -20 -20 -20 -20 -13 -20
-20 -20 -20 -20 -20 -20 -20 -20 -20 -20 -20 -20 -20 -20 -20 -20 -20 4 -1 -4 18 -10 -20 -3 27 25 32 28 -3 -20 -20 -20 -20 -20 -20 -20 -20 -20 -20 -20 -20 -17 -20
-20 -20 -20 -20 -20 -20 -20 -20 -20 -20 -20 -20 -20 -20 -20 -20 -20 -1 12 18 11 19 -18 27 29 27 5 8 -3 -20 -19 -20 -20 -20 -20 -20 -20 -20 -20 -20 -13 -20 -20
-20 -20 -20 -20 -20 -20 -20 -20 -20 -20 -20 -20 -20 -20 -20 -20 -20 1 3 18 11 17 -20 26 19 24 33 26 18 -6 -9 -20 -17 -16 -16 -12 -3 -2 3 3 -19 -19 -20
-20 -20 -20 -20 -20 -20 -20 -20 -20 -10 -20 -20 -20 -19 -20 -20 -9 23 39 22 12 21 -4 10 36 16 11 -0 -20 -20 -20 -19 -17 -8 -1 -13 -19 -8 -8 -15 -9 -20 -20
-18 -20 -20 -20 -20 -20 -20 -12 11 -18 -16 -20 -20 -20 -20 -20 -7 -1 23 28 40 36 28 7 32 29 4 11 15 -7 -20 -19 -4 -1 -9 -10 -8 -18 5 9 -20 -20 -20
4 10 13 -12 -20 -20 -20 1 -6 2 15 -20 -17 -18 4 -20 -3 9 25 27 28 34 26 25 34 30 26 28 14 12 8 10 -3 -20 2 8 -9 -20 23 -11 -20 -20 -20
9 -6 -2 -15 -6 -10 -14 0 -4 13 -20 -11 29 19 -9 13 22 27 30 29 30 32 32 38 35 34 30 9 10 30 10 18 23 -5 -1 -11 -20 -20 -4 2 11 -18 -20

GFSSE_prec_radar_099.txt.gz
Reflectivity
-20 0 -20 -20 -20 -13 -20 -20 -20 -6 -20 -4 9 10 8 17 -20 -20 -20 -20 -20 4 7 -1 -7 16 -7 6 -1 -15 -20 -8 11 -20 -20 -20 -20 -20 -20 -20 -9 -0 14
-20 -20 -20 -13 -20 -18 -20 -20 -20 -20 -2 1 9 9 10 14 13 -20 -20 -20 -20 11 -19 14 9 10 9 7 -18 -20 -20 -20 -20 -20 -20 -20 -20 -20 -20 -20 -20 -20 -1
-20 -20 -20 -20 -16 -20 -20 -15 -15 -20 -20 -1 -1 6 15 14 0 -20 -20 -20 -20 5 -20 4 -5 16 -2 -3 -19 -20 -20 -20 -20 -20 -20 -20 -20 -20 -20 -20 -20 -20 -20
-20 -18 9 -20 -20 -17 -20 -20 -16 -11 -17 -20 -20 9 6 11 14 -10 -14 -20 -3 11 -13 -20 -20 -0 -20 -20 -20 -20 -20 -20 -20 -20 -20 -20 -20 -20 -20 -20 -20 -20 -20
2 -16 5 -20 -20 -17 -19 -20 -20 -17 0 -2 -20 -3 5 5 15 13 1 -13 -8 -20 -20 -20 -20 -20 -20 -20 -20 -20 -20 -20 -20 -20 -20 -20 -20 -20 -20 -20 -20 -20 -20
13 13 -20 -20 -20 -20 -20 -20 -20 -20 -20 -20 -20 -16 -20 7 -19 5 -2 -20 23 -20 -20 -20 -20 -20 -20 -20 -20 -20 -20 -20 -20 -20 -20 -20 -20 -20 -20 -20 -20 -20 -20
24 5 8 -18 -17 -9 -8 -16 -20 -20 -20 -20 -20 -20 -20 -20 -8 -20 5 -18 -20 -20 -20 -20 -20 -20 -20 -20 -20 -20 -20 -20 -20 -20 -20 -20 -20 -20 -20 -20 -20 -20 -20
-1 9 33 4 4 -20 -20 -20 -20 -20 -5 -5 -20 -20 -20 -20 -2 -12 -20 -20 -11 -20 -20 -20 -20 -20 -20 -20 -20 -20 -20 -20 -20 -20 -20 -20 -20 -20 -20 -20 -20 -20 -20
-20 -20 27 20 -20 -20 -20 -7 -14 -20 -20 -20 -20 -19 -20 -20 -20 -20 -10 0 16 -20 -20 -20 -20 -20 -20 -20 -20 -20 -20 -20 -20 -20 -20 -20 -20 -20 -20 -20 -20 -20 -20
-20 -7 -20 -15 21 -20 -20 -20 -20 -20 -20 -20 -20 -20 -20 -20 -20 -20 -20 -20 -10 -17 -20 -20 -20 -20 -20 -20 -20 -20 -20 -20 -20 -20 -20 -20 -20 -20 -20 -20 -20 -20 -20
-20 -10 -5 -20 4 6 26 -20 -20 12 8 -20 -20 -20 -20 -20 -20 -20 -20 -20 -20 24 -17 -7 -20 -20 -20 -20 -20 -20 -20 -20 -20 -20 -20 -20 -15 -20 -20 -20 -20 -20 -20
-20 -20 -14 -7 -18 4 23 20 18 9 -20 -19 -20 -20 -20 -20 -20 -20 -20 -20 -20 -20 -20 -11 -2 -20 -20 -20 -20 -20 -20 -20 -20 -20 -20 -20 -20 0 -20 -20 -20 -20 -20
-20 -20 -20 -4 17 -20 -20 -20 23 -7 -8 -20 5 14 -20 3 -19 -20 -20 -13 -20 -20 -20 -20 20 10 -20 -20 -20 -20 -20 -20 -20 -20 -20 -20 -20 1 6 -20 -20 -20 -20
-20 -20 -20 -20 4 -18 -20 -20 -20 7 -19 -20 -20 17 15 10 -20 -20 -20 -20 -20 -20 -20 -20 -20 11 -20 -20 -20 -20 -20 -20 -20 -20 -20 -20 -20 -20 -20 -20 -20 -20 -20
-20 -20 -20 -20 -16 -19 -20 -20 -20 -9 -19 -20 -20 -16 -20 7 8 1 -17 -20 -20 -20 -20 7 -20 -20 -20 -20 -20 -20 -20 -20 -20 -20 -20 -20 -20 -20 1 14 -20 -20 -20
-20 -20 -20 -20 -20 -20 -20 -20 -20 -20 -20 -20 -20 -20 -20 -13 -6 4 -8 -2 -20 -20 -20 -20 -20 -17 -20 -15 -20 -20 -20 -20 -20 -20 -20 -20 -20 -20 -20 2 14 -20 -5
-20 -20 -20 -20 -20 -20 -20 -20 -20 -20 -20 -20 -20 -20 -20 -20 -20 -20 -20 -20 -10 -20 -20 -6 -12 7 23 -20 -20 -20 -20 -20 -20 -20 -20 -20 -20 -20 -20 -20 -20 -20 -19
-20 -20 -20 -20 -20 -20 -20 -20 -20 -20 -20 -20 -20 -20 -20 -20 -20 -15 2 -1 0 -17 3 -3 22 1 37 27 7 8 -20 -20 -20 -20 -20 -20 -20 -20 -20 -20 -20 -20 -20
-20 -20 -20 -20 -20 -20 -20 -20 -20 -20 -20 -20 -20 -20 -20 -20 -20 -20 -2 -2 8 6 -14 10 19 -1 5 23 26 7 -14 -20 -20 -20 -20 -20 -20 -20 -20 -20 -20 -20 -20
-20 -20 -20 -20 -20 -20 -20 -20 -20 -20 -20 -20 -20 -20 -20 -20 -20 -8 -2 6 9 13 1 -6 -17 2 1 -9 20 35 9 33 26 -10 -20 -20 -20 -20 -20 -20 -20 -20 -20
-20 -20 -20 -20 -20 -20 -20 -20 -20 -20 -20 -20 -20 -20 -20 -20 -20 0 5 6 10 14 7 10 6 -18 21 -20 -10 17 26 20 5 9 4 2 -20 -20 -20 -20 -20 -20 -8
-20 -19 -20 -20 -20 -20 -20 -20 -20 -20 -20 -20 -20 -20 -20 -20 -18 -1 8 -3 -2 8 2 -20 10 -4 19 -20 -19 18 19 20 1 8 6 -20 4 -15 -20 -8 -11 -1 -19
12 0 -17 -3 -9 -20 -20 -11 -20 -13 -18 -9 -19 -20 -11 -20 -10 1 4 11 7 8 -2 -20 6 -2 9 -18 4 13 -5 -11 16 19 10 15 10 -3 -7 -10 -12 -20 -20
17 -5 20 -20 -0 -20 -20 -15 -12 -18 -16 -11 -14 -20 -20 -20 0 4 9 -0 17 18 24 29 9 18 13 -9 25 12 17 15 18 5 7 -12 -20 -19 -19 -10 9 7 23
-15 26 23 -16 -20 -20 -20 -19 -4 10 -18 -20 -18 2 -10 -17 9 10 4 9 11 13 19 33 30 35 26 25 21 21 28 18 22 16 -8 -2 -0 2 11 9 32 28 23
12 -20 -20 -20 -20 0 8 -18 11 24 -1 -13 -20 -15 -20 -7 7 -14 10 -4 -6 1 -12 23 27 30 30 28 25 25 28 25 24 26 18 15 28 26 24 7 7 1 -20

GFSSE_prec_radar_102.txt.gz
Reflectivity
6 10 -7 12 -17 -20 -20 -20 -20 -20 -20 1 9 7 -15 12 -16 -20 -20 -20 -20 -20 -20 -20 2 7 13 13 1 -20 -20 14 14 -20 -20 -20 -20 -20 -20 -20 16 11 4
-8 13 -20 -10 -19 -20 -20 -20 -20 -20 -20 -1 6 7 -4 9 -13 -20 -20 -20 -20 12 13 -3 19 14 -3 6 2 -20 -19 -20 -20 -20 -20 -20 -20 -20 -20 -20 -16 -3 -9
15 -18 -20 -10 -20 -18 -20 -20 -20 -20 -20 -13 8 2 9 13 9 -20 -20 -20 2 7 -10 7 15 9 -20 -1 -4 -20 -20 -20 -20 -20 -20 -20 -20 -20 -20 -20 -20 -18 -20
11 15 8 -12 -20 -20 -20 -20 -20 -20 -20 -11 -20 -8 -17 17 6 -20 -20 -20 1 -20 -20 -20 -11 5 -20 9 -20 -20 -20 -20 -20 -20 -20 -20 -20 -20 -20 -20 -20 -20 -20
-0 11 10 -13 -13 -20 -20 6 -20 -20 -20 -20 -20 -20 -2 9 5 6 -19 -20 -17 -19 -20 -20 -4 -20 -20 -20 -20 -20 -20 -20 -20 -20 -20 -20 -20 -20 -20 -20 -20 -20 -20
-13 14 34 -20 -20 -20 -20 -20 -20 -20 1 -1 -20 -20 -15 -19 -20 12 14 -7 -20 -20 -20 -20 -20 -20 -20 -20 -20 -20 -20 -20 -20 -20 -20 -20 -20 -20 -20 -20 -20 -20 -20
-20 -1 6 11 3 -20 20 -20 -20 -20 20 -20 8 -20 -20 -20 -20 -20 13 -2 8 -20 -20 -20 -20 -20 -20 -20 -20 -20 -20 -20 -20 -20 -20 -20 -20 -20 -20 -20 -20 -20 -20
-20 -20 5 -16 17 2 -20 -20 -10 -20 -20 7 -20 6 -15 -20 -20 -20 3 -9 -20 -20 -20 -20 -20 -20 -20 -20 -20 -20 -20 -20 -20 -20 -20 -20 -20 -20 -20 -20 -20 -20 -20
-20 -20 -14 11 -5 -19 -19 -13 -20 -20 -20 -20 -20 -20 -20 -15 -17 -20 15 1 -2 -20 -20 -20 -20 -20 -20 -20 -20 2 -20 -20 -20 -20 -20 -20 -20 -3 -20 -20 -20 -20 -20
-20 -20 -20 -15 22 23 -10 -20 -20 -20 -20 -20 -20 -20 -20 -20 -20 -20 -20 -0 21 24 -19 -20 -20 -20 -20 -8 -20 -5 -20 -20 -20 -20 -20 -20 -20 -20 -20 -20 -20 -20 -20
-20 -20 -20 -20 -3 22 19 -20 -20 -20 -20 -19 -19 -13 -20 -20 -20 -20 -20 -20 4 -18 25 -20 -20 -20 -20 -11 -20 -20 -20 -20 -20 -20 -20 -20 -19 -1 -20 -20 -20 -20 -20
-20 -20 -20 -20 -20 -14 1 -20 -20 -20 -20 -16 -11 -20 -20 -20 -20 -20 -20 -20 -20 -20 -6 21 6 -20 -20 -20 -20 -20 -20 -20 -20 -20 -20 -20 -20 13 -14 -20 -20 -20 -20
-20 -20 -20 -20 -20 -20 2 -7 -20 -20 -5 1 -14 -14 30 -9 -20 -20 -19 -20 -20 -20 -3 4 -18 0 -20 -20 -20 -20 -20 -20 -20 -20 -20 -20 -20 -18 -8 -20 -20 -20 -20
-20 -20 -20 -20 8 -20 -20 -20 -20 -20 -2 28 15 -19 -20 -10 3 -18 -20 -20 -14 -20 -20 -20 -20 -3 2 -20 -20 -20 -20 -20 -20 -20 -20 -20 -20 -20 6 -16 -20 -20 -20
-20 -20 -20 -20 -12 -6 -20 -3 -20 -20 -20 -20 -19 9 -10 -20 6 10 8 -19 -9 12 -20 -20 -20 -20 -20 -11 -20 -20 -20 -20 -20 -20 -20 -20 -20 -20 -20 -14 -17 -20 -20
-20 -20 -20 -20 -20 -4 -20 -2 -13 -20 -20 -20 -20 -20 -13 -17 -20 -20 -20 0 -10 -0 -20 -20 -20 -20 -20 9 -19 -16 -20 -20 -20 -20 -20 -20 -20 -20 -20 -20 7 -2 -20
-20 -20 -20 -20 -20 -20 -1 -19 -20 -20 -20 -20 -20 -20 -20 -20 -20 -20 -20 -20 -20 -20 15 21 13 12 -0 -11 -6 -6 -16 -20 -20 -20 -20 -20 -20 -20 -20 -20 -20 30 14
-20 -20 -20 -20 -20 -20 -11 -5 -2 -1 -20 -20 -20 -20 -20 -20 -20 -20 -20 -20 -20 -0 11 18 23 7 5 -16 11 11 29 -9 -20 -20 -20 -20 -20 -20 -20 -20 -20 -20 -20
-20 -20 -20 -20 -20 -20 -20 -20 -9 -20 -20 -20 -20 -20 -20 -20 -20 -20 -20 -20 -20 3 9 10 21 10 9 2 14 10 21 21 25 -4 -20 -20 -20 -20 -20 -20 -20 -20 -20
-20 -20 -20 -20 -20 -20 -20 -20 -20 -20 -20 -20 -20 -20 -20 -20 -20 -20 -20 -20 -20 -6 8 4 18 17 7 2 20 18 12 21 -4 -4 0 21 -20 -20 -20 -20 -20 -20 -20
-20 -20 -20 -20 -20 -20 -20 -20 -20 -20 -20 -20 -20 -20 -20 -20 -20 -20 -20 -20 -20 -9 -11 1 11 9 7 15 16 18 -20 16 11 -20 -5 28 4 14 20 -20 -20 -20 -20
11 -8 -20 -20 -19 -16 -1 -7 -18 -20 -20 -20 -20 -20 -20 -20 -20 -20 -20 -20 -20 9 5 6 13 12 11 14 17 -7 9 -20 -7 -17 -20 -13 -13 29 23 18 -16 -20 -20
-6 -5 -20 -11 -12 1 -3 1 -9 -14 -7 -20 -20 -8 -20 -15 1 -0 -4 -1 -2 11 17 3 17 4 9 2 24 -8 13 -3 -20 -20 -20 -20 15 30 16 13 1 -12 -20
1 8 14 20 9 -11 25 -20 -19 -10 -7 -9 -20 -20 -3 -9 -10 0 5 6 8 11 17 6 1 -11 9 12 15 9 2 -20 -18 -20 -20 -19 17 -16 -1 18 -16 -20 -20
16 9 11 -10 23 22 23 -20 -13 7 -18 3 7 -19 -6 -20 -19 15 15 14 14 13 21 -8 -5 23 19 31 15 -4 -20 4 23 -11 10 17 -7 12 12 9 -1 -10 3
-20 -20 10 -20 -11 18 19 -20 -20 -16 5 -16 4 3 -7 -6 -19 8 5 7 9 9 18 -16 5 12 -8 -0 19 20 14 27 23 22 27 23 31 30 21 29 26 27 23

GFSSE_prec_radar_105.txt.gz
Reflectivity
-20 9 6 -20 -5 -20 -20 -20 -20 -20 -20 -20 4 7 -20 -2 -6 -20 -20 -20 -20 -20 -20 -20 -20 13 -8 11 -15 -20 -3 -8 -6 -20 -20 -20 -20 -20 -20 -9 17 0 17
8 11 -19 -20 -20 -20 -20 -20 -20 -20 -20 -2 6 -20 -16 9 -1 -20 -20 -20 -20 -20 -20 2 32 -18 -4 -11 -4 4 -8 -20 -20 -20 -20 -20 -20 -20 -20 -20 6 -8 6
-9 11 -20 -20 -20 -20 -20 -20 -20 -20 -20 -2 19 -13 -4 -15 -3 -20 -20 -20 -1 -11 27 5 -18 19 -7 3 16 7 -20 -20 -20 -20 -20 -20 -20 -20 -20 -20 -20 -20 -20
-20 -10 13 -10 -20 -20 4 -20 -20 -20 -20 -1 4 10 10 -20 -6 -20 -20 -20 6 30 12 -20 -2 -20 -16 12 -9 -14 -20 -20 -20 -20 -20 -20 -20 -20 -20 -20 -20 -20 -20
-14 -3 -20 -6 -20 -20 -20 -20 -20 -20 -20 14 -16 -20 -20 6 7 -20 -20 -20 0 -20 -2 -20 -20 -20 -20 5 -20 -20 -20 -20 -20 -20 -20 -20 -20 -20 -20 -20 -20 -20 -20
-20 -19 14 -14 -20 -20 31 -20 -20 -20 -20 -20 -20 22 -20 -9 -20 -20 5 -20 -6 -18 -4 -20 -20 -20 -20 -20 -20 -20 -20 -20 -20 -20 -20 -20 -20 -20 -20 -20 -20 -20 -20
-20 -20 6 4 -20 -20 -20 -20 28 -13 2 -12 -11 -20 -20 -20 -15 1 -20 -20 -20 -8 -20 -20 -20 -20 -20 -20 -20 -20 -20 -20 -20 -20 -20 -20 -20 -20 -20 -20 -20 -20 -20
-20 -20 -20 6 -20 -20 -20 -20 -20 -20 -19 -20 -20 -20 -20 -20 -20 -20 5 -20 -20 -20 -20 -20 -20 -20 -20 -20 -20 -20 -20 -20 -20 -20 -20 -20 -20 -20 -20 -20 -20 -20 -20
-20 -20 -20 -19 -9 -20 -19 4 -20 -20 -20 -20 -20 -19 -20 6 -20 -20 -20 -20 -18 -20 5 -20 -20 -20 -20 -20 -20 -9 -20 -20 -20 -20 -20 -20 -20 -19 -20 -20 -20 -20 -20
-20 -20 -20 -20 -20 22 10 -20 -20 27 -16 -20 -20 -20 -20 -20 -20 -20 -20 -20 -20 -20 -5 -2 -20 -20 -20 -20 -1 1 -20 -20 -20 -20 -20 -20 -20 -20 -20 -20 -20 -20 -20
-20 -20 -20 -6 -20 -3 17 14 -20 -20 -20 -20 -20 -20 -20 -20 -20 -20 -20 -20 -20 -20 -20 -20 -20 -20 -20 -20 -7 -17 -20 -20 -20 -20 -20 -20 -20 -20 -20 -20 -20 -20 -20
-20 -20 -20 -20 -13 -10 -17 6 7 -19 -20 -20 -20 -20 -20 -20 -20 -20 1 -20 -20 -20 -20 -20 -18 -20 -20 -20 -20 -20 -20 -20 -20 -20 -20 -20 -20 -20 -4 -20 -20 -20 -20
-20 -20 -20 -20 -20 -20 2 4 3 2 -20 -20 -20 -20 -20 -2 -11 -20 -18 -20 -20 -20 -8 -20 -20 -20 -20 -20 -20 -20 -20 -20 -20 -20 -20 -20 -20 -20 -14 -20 -20 -20 -20
-20 -20 -20 -20 -20 -20 -2 -15 -9 16 -20 -20 -20 -12 8 -7 -20 -20 -11 3 8 -18 -20 7 -0 -17 -20 -20 -20 -20 -20 -20 -20 -20 -20 -20 -20 -20 -20 5 -20 -20 -20
-20 -20 -20 -20 -20 -20 -2 -20 13 2 -20 -20 -20 -20 -19 5 17 1 -15 4 2 -9 16 16 -0 -18 10 -20 -20 -20 -20 -20 -20 -20 -20 -20 -20 -20 -20 -1 8 -16 -20
-20 -20 -20 -20 -20 -20 -16 -0 -17 -9 -9 -20 -20 -20 -20 -20 -14 -20 -20 -4 -12 -5 11 -20 -11 -14 -20 29 -10 -20 -20 -20 -20 -20 -20 -20 -20 -20 -20 -20 -12 -16 -7
-20 -20 -20 -20 -20 -20 -20 -20 -9 -16 23 -7 -17 -20 -20 -20 -20 -20 -20 -20 -20 -20 -20 -3 18 -19 -5 8 23 -20 -20 4 6 -19 -20 -20 -20 -20 -20 -20 -20 -20 -20
-20 -20 -20 -20 -20 -20 -20 -20 -10 5 9 -7 -20 -1 -20 -20 -20 -20 -20 -20 -20 -20 -20 -18 -15 -20 -6 14 25 24 -4 -20 -12 11 2 4 -20 -20 -20 -20 -20 -20 -20
-20 -20 -20 -20 -20 -20 -20 -20 -1 -5 8 1 3 -19 -20 -20 -20 -20 -20 -20 -20 -20 -20 -9 3 10 -13 -3 -9 -0 11 13 -9 -19 6 13 -3 -20 -20 -20 -20 -20 -20
-20 -20 -20 -20 -20 -20 -20 -20 -20 -11 16 -4 -20 -20 -20 -20 -20 -20 -20 -20 -20 -20 -20 -20 -8 -17 24 3 11 11 3 -20 24 -7 -20 -20 10 19 -20 -20 -15 -13 -19
-20 -20 -20 -20 -20 -20 -20 -20 -20 -20 -20 -20 -20 -20 -20 -20 -20 -20 -20 -20 -20 -20 -20 -20 -7 9 8 1 -5 15 14 8 -20 -20 -20 27 -2 2 -20 -20 -17 26 -1
-3 -6 -11 2 -20 -20 -20 -17 -20 -10 6 23 -20 -20 -20 -20 -20 -20 -20 -12 -20 -20 -14 -16 -11 6 13 15 12 -9 15 5 18 -20 -20 -20 -19 -7 19 -20 -5 -7 -12
-9 3 -10 1 5 9 -19 4 14 -20 3 -20 -20 -20 -20 -20 -20 -17 -7 0 4 24 -14 -20 25 -14 8 3 21 3 16 8 -9 -20 -20 -20 -20 -20 -11 -20 -4 -20 -7
-7 10 -19 11 -1 11 18 10 23 -13 -11 -20 -17 -17 2 -19 -20 -20 -19 -5 6 10 14 4 11 19 22 20 22 15 7 -11 -8 17 14 -20 -20 -20 -20 -20 -20 -20 -15
-20 10 20 17 23 16 11 28 27 26 29 20 -6 -19 -20 -20 -20 -20 -20 -20 0 27 25 20 21 21 21 24 20 12 -6 -11 20 21 -1 8 -10 -20 -20 9 24 -7 -12
-7 -15 9 -14 18 24 27 15 13 9 20 -4 -19 -19 -20 -20 -20 -20 -20 7 -0 6 14 17 18 22 21 0 6 14 18 14 23 6 14 6 1 -3 13 17 -6 20 -3

GFSSE_prec_radar_108.txt.gz
Reflectivity
4 5 9 1 1 -20 -20 -20 -20 -2 -20 -20 -20 13 -20 -6 -20 -20 -20 -20 -20 -20 -20 -20 -20 -8 -20 -20 -20 23 -10 -9 -20 -20 -20 -20 -20 -20 -5 17 13 22 24
5 1 15 -20 -20 -20 -20 -20 -20 -20 -20 -20 2 -3 -20 8 -14 -20 -20 -20 -20 -20 -20 8 31 -2 8 -20 -20 10 -18 -20 -20 -20 -20 -20 -20 -20 -20 -20 -20 6 0
-9 -5 -0 -16 -20 -20 -20 -20 -20 -20 -20 -20 -20 5 -14 -18 -20 -20 -20 -20 -18 -20 -10 4 -20 -9 -13 -20 18 6 -20 -20 -20 -20 -20 -20 -20 -20 -20 -20 -20 -20 -20
1 8 -9 -0 -20 -20 -20 -20 -20 -1 -20 -20 -20 -20 -12 -20 -7 -20 -20 -20 -20 -20 26 -20 -20 -20 -20 -20 12 6 -20 -20 -20 -20 -20 -20 -20 -20 -20 -20 -20 -20 -20
-20 -20 1 10 -14 -20 -20 -20 -20 -20 34 -20 -11 -20 -20 -20 -4 -20 -20 -20 -20 -20 -16 -20 -1 -20 -20 -20 -20 -20 -20 -20 -20 -20 -20 -20 -20 -20 -20 -20 -20 -20 -20
-20 -15 9 -10 -4 -19 -20 -20 -20 -20 -20 -15 -20 -20 -20 -20 -20 -20 -20 -20 -20 -20 -5 -3 -20 -20 -20 -20 -20 -20 -20 -20 -20 -20 -20 -20 -20 -20 -20 -20 -20 -20 -20
-20 -20 -6 11 13 -20 -8 -20 -3 -20 -20 -20 -20 -20 -20 -20 -20 -20 -20 -20 -12 -20 -20 -20 -20 -20 -20 -20 -20 -20 -20 -20 -20 -20 -20 -20 -20 -20 -20 -20 -20 -20 -20
-20 -20 -20 13 8 -5 -20 -20 -5 -20 -20 -20 -20 -20 -20 -20 -20 -20 -20 -20 -20 -20 -20 -20 -20 -20 -20 -20 -20 -20 -20 -20 -20 -20 -20 -20 -20 -20 -20 -20 -20 -20 -20
-20 -20 -20 -16 -0 -10 1 -20 -20 -20 -20 -20 -20 -20 -20 -20 -20 -20 -20 -20 -20 -20 -20 -16 -20 -20 -20 -20 -20 -20 -20 -20 -20 -20 -20 -20 -20 -20 -20 -20 -20 -20 -20
-20 -20 -20 -20 -20 -20 11 15 -18 -20 -20 -20 -20 -9 -20 -20 -20 -20 -20 -20 -20 -20 -20 -20 -20 -20 -20 -20 -20 -20 -20 -20 -20 -20 -20 -20 -20 -20 -20 -20 -20 -20 -20
-20 -20 -20 -20 -20 -20 4 -0 -20 -20 -20 -20 -20 -20 -20 -20 -20 -20 -20 -20 -20 -20 -20 -20 -20 -20 -20 -20 -20 -20 -20 -20 -20 -20 -20 -20 -20 -20 -20 -20 -20 -20 -20
-20 -20 -20 -20 -20 -20 -20 -17 -20 -4 -20 -20 -20 -20 -20 -20 -20 -20 -20 -19 -20 -20 -20 -20 -20 -20 -20 -20 -20 -20 -20 -20 -20 -20 -20 -20 -20 -20 -20 -20 -20 -20 -20
-20 -20 -20 -20 -20 -20 -20 -20 -20 15 3 -14 -20 -20 -20 -20 -20 -20 -20 -18 -20 -20 -20 -20 -19 -20 -20 -20 -20 -20 -20 -20 -20 -20 -20 -20 -20 -20 -20 -20 -20 -20 -20
-20 -20 -20 -20 -20 -20 -20 -20 -20 -20 -5 -13 -20 -20 -20 -20 -20 -20 -17 -20 -20 -20 -20 -20 -20 -20 -20 -20 -20 -20 -20 -20 -20 -20 -20 -20 -20 -20 -20 -19 -20 -20 -20
-20 -20 -20 -20 -20 -20 -20 -20 -20 -20 -19 9 -20 -20 -20 -20 -16 -20 7 -13 -20 -2 -20 -20 -20 -19 -10 -20 -20 -20 -20 -20 -20 -20 -20 -20 -20 -20 -20 -20 7 -10 -20
-20 -20 -20 -20 -20 -20 -20 -19 -17 -19 -20 -20 -20 -20 -20 -20 -20 -20 -20 -17 -20 -20 12 4 -16 22 13 29 18 22 -20 -20 -20 -20 -20 -20 -20 -20 -20 -20 -20 1 9
-20 -20 -20 -20 -20 -20 -20 -20 -7 0 -20 -15 -12 -20 -20 -20 -20 -20 -20 -20 -20 -20 -15 7 -20 -14 31 8 6 5 30 17 -12 -20 -20 -20 -20 -20 -16 -20 -20 -20 -20
-20 -20 -20 -20 -20 -20 -20 -20 -20 -13 3 -10 -13 -20 -5 -18 -20 -20 -20 -20 -20 -20 -20 -20 -20 -20 -8 -18 -20 21 8 23 28 -20 -20 -20 -20 -20 -4 -16 -7 -18 -20
-20 -20 -20 -20 -20 -20 -20 -20 -20 -15 13 6 22 18 -18 -7 -3 -20 -20 -20 -20 -20 -20 -20 -20 -20 -20 -20 -20 -20 -9 26 25 -7 -20 -20 -20 -20 -20 -20 -9 -3 -20
-20 -20 -20 -20 -20 -20 -20 -20 -20 -20 11 12 22 21 25 -14 -20 -20 -20 -20 -20 -20 -20 -20 -20 -20 -20 -20 -20 -20 -20 -20 1 -11 18 13 -9 -20 -20 -20 -20 -0 10
-20 -20 -20 -20 -20 -20 -20 -20 -20 -20 -20 -20 26 26 34 -20 -20 -20 -20 -20 -20 -20 -20 -20 -20 -20 -20 -20 -19 -3 -15 7 -20 -20 -20 -18 10 1 21 -20 -20 1 -2
-20 -20 -20 -20 -20 -20 -20 -20 -20 -20 -7 -20 10 16 -12 -20 -20 -20 -20 -20 -20 -20 -20 -20 -20 -20 -20 -20 -1 9 -2 2 3 -7 -12 -11 -20 -20 -20 -20 -20 -20 -20
-20 -20 -20 -16 -14 -20 -20 -20 -6 -7 -20 27 28 29 29 7 -20 -20 -20 -20 -20 -20 -20 -20 6 -5 1 -20 -5 17 17 -5 -20 -20 -20 -20 -20 -20 -20 -20 -20 -20 -16
-20 -20 -20 -9 -17 -20 -15 -20 -17 15 29 5 -1 27 30 17 -10 -20 -20 -20 -20 -20 -20 12 16 12 23 -16 -4 21 20 -15 12 5 -11 -20 -20 -20 -20 6 -4 -20 -20
-20 -20 -20 -12 -2 14 16 -4 5 -2 28 27 28 27 12 -7 -17 -20 -20 -20 -20 -20 -20 -20 -20 19 11 18 19 20 21 -15 19 20 4 -20 13 -12 -18 -20 -20 -20 -7
-20 -20 -1 -15 11 -16 -9 10 5 17 19 20 -5 21 -9 -20 -20 -20 -20 -20 -20 -20 -20 -3 -11 7 23 2 17 20 14 24 17 17 21 14 12 0 24 -17 -20 -20 -17

GFSSE_prec_radar_111.txt.gz
Reflectivity
10 5 15 6 -9 -20 -20 -20 -20 -20 -6 -20 -20 -20 -20 -20 -20 -20 -20 -20 -20 -20 -20 -20 -20 -20 -20 -20 -20 -18 18 -17 -20 -20 -14 -20 -18 -5 7 -15 9 19 19
11 14 15 15 -19 -20 -20 -20 -20 -20 -20 -20 -20 -18 -20 5 -20 -20 -20 -20 -20 -20 -20 -20 19 11 -20 -20 -8 1 -20 -20 -20 -20 -20 -20 -20 -20 -20 -17 -4 -20 -20
1 7 4 7 -20 -20 -20 -20 -20 -20 -20 -20 -13 -20 -20 -20 -20 -20 -20 -20 -20 -20 -19 -3 -20 5 -20 -20 2 -16 -20 -20 -20 -20 -20 -20 -20 -20 -20 -20 -20 -20 -20
-17 1 -1 -3 -1 5 -20 -20 -20 -20 -20 -20 -20 -20 -20 -20 -20 -20 -20 -20 -20 -20 10 0 -17 18 -20 -20 -9 -12 -20 -20 -20 -20 -20 -20 -20 -20 -20 -20 -20 -20 -20
-13 -18 10 15 6 -20 -20 -20 -20 -20 -20 -20 -20 -20 -20 -20 9 -20 -20 -20 -20 -20 -20 1 17 -20 -20 -20 -20 -20 -20 -20 -20 -20 -20 -20 -20 -20 -20 -20 -20 -20 -20
-20 2 7 10 3 -4 -20 -20 -20 -20 -20 -20 -20 -20 -20 -20 -20 -20 -20 -20 -20 -20 -20 6 -20 -20 -20 -20 -20 -20 -20 -20 -20 -20 -20 -20 -20 -20 -20 -20 -20 -20 -20
-20 -19 5 12 10 9 -12 -20 -20 -20 -20 -20 -20 -20 -20 -20 -20 -20 -20 -20 -20 -20 -20 -20 -20 -20 -20 -20 -20 -20 -20 -20 -20 -20 -20 -20 -20 -20 -20 -20 -20 -20 -20
-20 -20 -7 11 11 -20 15 -20 -20 1 -20 -20 -20 -20 -20 -20 -20 -20 -20 -20 -20 -20 -20 -20 -20 -20 -20 -20 -20 -20 -20 -20 -20 -20 -20 -20 -20 -20 -20 -20 -20 -20 -20
-20 -20 -20 -19 -5 -19 -20 -7 8 -11 -20 -20 20 -20 -20 -20 -20 -20 -20 -20 -20 -20 -20 -20 -20 -20 -20 -20 -20 -20 -20 -20 -20 -20 -20 -20 -20 -20 -20 -20 -20 -20 -20
-20 -20 -20 -20 -20 -8 -20 -3 -20 -20 -20 -20 -20 -20 -20 -20 -20 -20 -20 -20 -20 -20 -20 -20 -20 -20 -20 -20 -20 -20 -20 -20 -20 -20 -20 -20 -20 -20 -20 -20 -20 -20 -20
-20 -20 -20 -20 -20 -20 -20 7 -11 -20 -20 -20 -20 -20 -20 -20 -20 -20 -20 -20 -20 -20 -20 -20 -20 -20 -20 -20 -20 -20 -20 -20 -20 -20 -20 -20 -20 -20 -20 -20 -20 -20 -20
-20 -20 -20 -20 -20 -20 -20 -20 -20 -20 -20 -20 -20 -20 -20 -20 -20 -20 -20 -20 -20 -20 -20 -20 -20 -20 -20 -20 -20 -20 -20 -20 -20 -20 -20 -20 -20 -20 -20 -20 -20 -20 -20
-20 -20 -20 -20 -20 -20 -20 -20 -20 -20 -20 -20 -20 -20 -20 -20 -20 -20 -20 -20 -1 -20 -20 -20 -20 -20 -20 -20 -20 -20 -20 -20 -20 -20 -20 -20 -20 -20 -20 -20 -20 -20 -20
-20 -20 -20 -20 -20 -20 -20 -20 -20 -20 -20 6 -20 -20 -20 -20 -20 -20 -20 -20 -20 -20 -19 -20 -20 -20 -20 -20 -20 -20 -20 -20 -20 -20 -20 -20 -20 -20 -20 -20 -20 -20 -20
-20 -20 -20 -20 -20 -20 -20 -20 -20 -20 -20 -12 12 -20 -20 -20 -20 -20 -20 -20 -20 -20 18 14 11 -17 -20 -20 -20 -20 -20 -20 -20 -20 -20 -20 -20 -20 -20 -20 -20 -20 -20
-20 -20 -20 -20 -20 -20 -20 -20 -20 -20 -20 -20 -5 -20 -20 -20 -20 -20 -20 -20 -20 2 -10 31 -16 0 -19 5 -14 -19 -20 -20 -20 -20 -20 -20 -20 -20 -20 -20 -20 -18 3
-20 -20 -20 -20 -20 -20 -20 -20 -20 -20 -20 -20 -20 -17 -20 -20 -20 -20 -20 -20 -20 -20 -20 -20 -19 -20 -0 24 26 -20 26 -9 -20 -13 -20 -20 -20 -20 -20 -20 -20 -20 -19
-20 -20 -20 -20 -20 -20 -20 -20 -20 -20 -20 -20 -20 -20 12 -20 -20 -20 -20 -20 -20 -20 -20 -20 -20 -20 -20 -20 -20 -12 -20 -17 -20 23 -17 -9 21 -20 -20 -20 -20 -20 -20
-20 -20 -20 -20 -20 -20 -20 -20 -20 -20 -20 -20 -20 -20 -14 10 18 -12 -20 8 -20 -20 -20 -20 -20 -20 -20 -10 6 -20 -20 -20 -20 -7 4 -0 0 -20 -20 -20 -20 -20 -20
-20 -20 -20 -20 -20 -20 -20 -20 -20 -20 -20 -20 -5 7 -8 20 30 26 10 7 4 -20 -20 -20 -20 -20 -20 -20 -20 -20 -20 -20 -20 -11 -9 -3 -20 -20 -10 -20 -20 -20 -20
-20 -20 -20 -20 -20 -20 -20 -20 -20 -20 -20 -20 -20 -20 -20 27 27 25 27 29 -20 -20 -20 -20 -20 -20 -20 -20 -20 -20 -20 -20 -20 -20 -20 -13 -17 -10 -20 -20 -20 -20 -20
-20 -20 -20 -20 -20 -20 -19 -20 -9 -20 -20 -20 -14 -20 -20 24 12 27 28 9 -7 29 -20 -20 -20 -20 -20 -20 1 -14 5 -20 -20 -20 -20 -20 -20 -20 -20 -20 -20 -20 -20
-20 -20 -20 -20 -20 -20 -20 -16 -20 -20 -20 -20 -13 8 20 13 27 29 33 28 15 13 -20 -20 -2 -4 1 -20 6 14 -1 -17 -20 -20 -20 -20 -20 -20 -20 11 -20 -20 -20
-20 -20 -20 -20 -20 -20 -20 -8 -18 -14 -20 3 12 4 16 24 26 22 7 16 -6 -20 -20 -20 -20 -20 -13 -1 9 3 13 6 7 6 -15 1 0 -20 -20 -20 -20 -20 -20
-20 -20 -20 -20 -19 -20 -20 -19 -20 -20 5 6 20 27 21 25 14 14 15 -12 -8 -20 -20 -20 -20 -20 -20 -13 1 14 11 20 9 19 5 -3 -18 -12 -20 -20 -20 -20 -19
-20 -20 -20 -5 -11 3 -18 -20 -20 -20 -19 -1 18 23 23 32 32 32 22 13 -18 -20 -20 -20 -20 -20 -20 -17 20 3 23 16 -4 20 21 -6 2 -15 -4 -20 -20 -20 -20

GFSSE_prec_radar_114.txt.gz
Reflectivity
9 8 17 19 13 -20 -20 -20 -20 -20 -20 -20 -16 -20 -20 -20 -20 -20 -20 -20 -20 -20 -10 -20 -20 -20 -8 -20 -20 -2 -20 -20 -20 -20 -20 -20 -19 -10 9 15 21 2 -2
-7 10 -4 16 -20 -7 -20 -20 10 -20 -20 -20 -1 -20 -20 -20 -20 -20 -20 -20 -20 -20 -12 2 -5 -4 -20 -20 -20 -20 -20 -20 -20 -20 -20 -20 -20 -20 -17 22 22 -18 -2
-16 9 -9 -20 -20 -20 -20 11 -20 -20 -20 -20 -20 -20 -20 -6 -20 -20 -20 -20 -20 -20 -20 18 22 -3 -20 -9 -20 -20 -20 -20 -20 -20 -20 -20 -20 -20 -20 -20 -20 -15 -7
-20 -2 8 4 -20 -20 -20 -20 -20 -20 -20 -20 -20 -20 -20 -6 -20 -20 -20 -20 -20 -20 15 -15 -17 -20 -20 -20 -20 -20 -20 -20 -20 -20 -20 -20 -20 -20 -20 -20 -20 -20 -20
-20 -14 9 -20 4 -17 -20 -20 -20 -20 -20 -20 -20 -20 -1 -3 -9 -20 -20 -20 -20 -20 -20 -20 -20 -20 -20 -20 -20 -20 -20 -20 -20 -20 -20 -20 -20 -20 -20 -20 -20 -20 -20
-20 2 10 -10 8 12 -20 -20 2 -20 -20 -20 -20 -20 -20 -20 -20 -20 -20 -20 -20 -20 -20 -20 -20 -20 -20 -20 -20 -20 -20 -20 -20 -20 -20 -20 -20 -20 -20 -20 -20 -20 -20
-20 -3 -9 8 20 -7 -20 -20 -20 -20 -20 -20 -20 -20 -20 -20 -20 -20 -20 -20 -20 -20 -20 -20 20 -20 -20 -20 -20 -20 -20 -20 -20 -20 -20 -20 -20 -20 -20 -20 -20 -20 -20
-20 -20 -20 11 10 -12 7 -20 -20 -17 -20 -20 -4 31 1 -20 -20 -20 -20 -20 -15 -20 -20 -20 -20 -20 -20 -20 -20 -20 -20 -20 -20 -20 -20 -20 -20 -20 -20 -20 -20 -20 -20
-20 -20 -20 -20 -15 3 -19 -20 -20 -20 -20 1 7 -20 -18 -20 -17 -20 -20 -20 -20 -20 -20 -20 -20 -20 -20 -20 -20 -20 -20 -20 -20 -20 -20 -20 -20 -20 -20 -20 -20 -20 -20
-20 -20 -20 -20 -20 -19 14 5 -20 -20 -20 -20 -20 -20 -20 -20 -20 -20 -20 -20 -20 -20 8 -19 19 -20 -20 -20 -20 -20 -20 -20 -20 -20 -20 -20 -20 -20 -20 -20 -20 -20 -20
-20 -20 -20 -20 -20 -20 -20 -15 7 -3 -10 -20 -20 -20 -20 -20 -20 -20 -20 -20 7 -20 -20 -2 11 -4 -20 -20 -20 -20 -20 -20 -20 -20 -20 -20 -20 -20 -20 -20 -20 -20 -20
-20 -20 -20 -20 -20 -20 -20 -20 -20 -20 -20 -20 -20 -20 -20 -20 -20 -20 -20 -20 -20 -20 -20 -20 -20 6 -7 -20 -20 -20 -20 -20 -20 -20 -20 -20 -20 -20 -20 -20 -20 -20 -20
-20 -20 -20 -20 -20 -20 -20 -20 -20 -20 -20 -18 9 -20 -20 -20 -20 -20 -20 -20 -20 -20 -20 -20 -20 -16 -20 -20 -20 -20 -20 -20 -20 -20 -20 -20 -20 -20 -20 -20 -20 -20 -20
-20 -20 -20 -20 -20 -20 -20 -20 -20 -20 -20 -20 7 7 -4 -20 -20 -20 -20 -20 -20 -18 -19 11 10 9 2 -20 -20 -20 -20 -20 -20 -20 -20 -20 -20 -20 -20 -20 -20 -20 -20
-20 -20 -20 -20 -20 -20 -20 -20 -20 -20 -20 -20 -20 3 1 -5 -20 8 11 -20 -20 -19 0 16 7 32 -20 -19 -20 -20 -20 -20 -20 -20 -20 -20 -20 -20 -20 -11 -20 -20 -20
-20 -20 -20 -20 -20 -20 -20 -20 -20 -20 -20 -20 -20 -20 -14 -3 -20 -20 -20 -20 -20 -20 -17 -20 15 -5 -20 -14 7 11 -7 -13 -20 -20 -20 -20 -20 -20 -20 22 3 -20 -20
-20 -20 -20 -20 -20 -20 -20 -20 -20 -20 -20 -20 -20 -20 -20 -7 -10 15 -20 -20 -20 -20 -20 -20 -20 -20 -20 10 -20 -17 25 20 19 25 20 -20 -20 -20 -19 23 -17 6 -7
-20 -20 -20 -20 -20 -20 -20 -20 -20 -20 -20 -20 -20 -20 -20 -20 -4 -20 12 -20 -20 -20 -20 -20 -20 -20 -20 -20 -20 -20 -20 -20 -20 -20 -19 4 19 0 -20 6 21 -10 15
-20 -20 -20 -20 -20 -20 -20 -20 -20 -20 -20 -20 -20 -20 -20 -20 -20 4 2 -20 24 26 -2 -20 -20 -20 -20 -20 -20 -20 -20 -20 -20 -20 -20 -20 -20 -20 -20 15 13 -13 26
-20 -20 -20 -20 -20 -20 -20 -20 -20 -20 -20 -20 -20 -20 -20 -10 -1 22 21 29 25 32 23 16 -20 -20 -20 -20 -20 -20 -20 -20 -20 -20 -20 -20 -20 -20 -20 -20 -20 -20 1
-20 -20 -20 -20 -20 -20 -20 4 -18 -20 -20 -20 -20 -20 -20 -20 -20 -20 21 23 25 22 23 2 13 17 -20 -20 -20 -20 -20 -20 -20 -20 -20 -20 -20 -20 -20 -20 -20 -20 -20
-20 -20 -20 -20 -20 -20 -20 -14 8 -17 -20 -20 -20 -20 -20 -20 -20 -20 11 5 -9 31 23 21 20 -18 -20 -20 -20 -4 -12 -20 -20 -20 -20 -20 -20 -20 -20 -20 -20 -20 -20
-20 -20 -20 -20 -20 -20 -20 -20 -20 -20 -20 -19 -20 4 -20 -20 -0 -2 27 14 4 34 41 15 9 16 -10 -20 -10 5 -8 -20 -20 -20 -20 -18 -7 -12 -20 -20 -20 -20 -20
-20 -20 -20 -20 -20 -20 -20 -20 -16 -20 6 2 9 10 -1 0 12 24 18 27 37 32 37 41 30 33 16 -3 -10 -19 -1 14 12 -1 -20 -20 8 9 2 -20 -20 -20 -20
-20 -20 -20 -20 -20 -20 -20 -20 -13 8 10 9 6 -2 24 -2 5 -14 -20 -20 18 26 32 32 38 29 14 -5 -18 -19 -20 -20 -18 18 7 -17 -20 -14 7 -20 -20 -20 -20
-17 -20 -20 -20 -20 -20 -20 -20 -20 -20 -13 -3 -8 -9 -19 6 -8 32 -4 -20 -20 -20 -18 1 -12 -20 -20 -20 -20 -17 -5 -4 -11 21 18 4 1 -8 -17 -19 -20 -20 -20

GFSSE_prec_radar_117.txt.gz
Reflectivity
2 16 -20 -2 -11 -20 -20 -20 -20 -20 2 -20 -20 -20 -20 -20 -20 -20 -20 -20 -20 -20 -7 -14 -20 -20 -20 -20 -20 -20 -13 -10 -10 -20 -20 -20 -20 -13 -7 -20 2 -15 -12
-9 8 11 -4 -19 -20 -20 -20 -20 -20 -20 -20 -20 -20 -20 -20 -20 -20 -20 -20 -20 -20 4 -20 -12 -20 2 6 -20 -20 -20 -20 -20 -20 -20 -20 -16 -17 -18 -20 -20 -20 -6
-20 14 20 18 -5 -20 -20 -20 -20 -20 -20 -20 7 -20 -20 -18 -20 -20 -20 -20 -20 -20 -15 29 19 -20 1 -10 16 -20 -20 -20 -20 -20 -20 -20 -20 -20 -20 -20 -20 -20 5
-20 -2 18 19 -15 -20 -20 -20 -20 -20 -20 -2 -20 -20 -20 -20 -20 -20 -20 -20 -20 -20 -17 4 -20 -20 -20 -20 -20 -20 -20 -20 -20 -20 -20 -20 -20 -20 -20 -20 -20 -20 -20
-20 -20 17 17 -6 -19 -20 -20 -20 -20 -20 19 -20 -12 -20 -20 -20 -20 -20 -20 -20 -20 -20 -20 -18 7 -20 -20 -20 -20 -20 -20 -20 -20 -20 -20 -20 -20 -20 -20 -20 -20 -20
-20 6 0 -20 -2 33 10 -20 -20 -20 -20 -20 -20 -20 -20 -20 -20 -20 -20 -20 -20 -20 -20 -20 -19 -20 -20 -20 -20 -20 -20 -20 -20 -20 -20 -20 -20 -20 -20 -20 -20 -20 -20
-20 -14 -3 15 10 11 13 -20 -20 -20 -20 -20 -20 -20 -20 -20 -1 -20 -20 -20 -20 -20 -20 -20 -3 -20 -20 -20 -20 -20 -20 -20 -20 -20 -20 -20 -20 -20 -20 -20 -20 -20 -20
-20 -20 -20 -3 10 5 8 -12 -12 -2 -20 -20 -20 -20 -20 -20 -20 -20 -18 3 -0 -20 -20 -20 -18 -20 -20 -20 -20 -20 -20 -20 -20 -20 -20 -20 -20 -20 -20 -20 -20 -20 -20
-20 -20 -20 -20 -16 -3 6 -17 -20 -20 -20 -20 -20 -20 -20 -20 -20 -20 -20 -20 -20 -10 -20 9 -20 18 -20 -20 -20 -20 -20 -20 -20 -20 -20 -20 -20 -20 -20 -20 -20 -20 -20
-20 -20 -20 -20 -20 -20 -20 13 1 -20 -20 -20 -20 -20 -20 -20 -20 -20 -20 -20 -20 -20 -20 -20 -20 -20 6 -3 -20 -20 -20 -20 -20 -20 -20 -20 -20 -20 5 -20 -20 -20 -20
-20 -20 -20 -20 -20 -20 -20 -20 0 15 9 -15 -20 -20 -20 -20 -20 -20 -20 -20 -20 -20 -20 -20 -20 -9 -20 -20 -20 -20 -20 -20 -20 -20 -20 -20 -20 -20 6 -17 -20 -20 -20
-20 -20 -20 -20 -20 -20 -20 -20 -20 -20 -20 7 9 5 -20 -20 -20 -20 -20 -20 -20 -20 -20 -20 2 -20 5 -20 -20 -20 -20 -20 -20 -20 -20 -20 -20 -20 -14 9 -20 -20 -20
-20 -20 -20 -20 -20 -20 -20 -20 -20 -20 -20 -20 -10 6 13 -8 -20 -20 -20 -20 -20 -20 -20 -20 -20 -16 -19 3 -20 -20 -20 -20 -20 -20 -20 -20 -20 -20 -20 9 2 -20 -20
-20 -20 -20 -20 -20 -20 -20 -20 -20 -20 -20 -20 -20 -20 2 5 7 -20 -20 -20 -20 -20 -20 -20 -20 -20 10 11 -20 -20 -20 -20 -20 -20 -20 -20 -20 -20 -20 -20 15 -20 -20
-20 -20 -20 -20 -20 -20 -20 -20 -20 -20 -20 -20 -20 -20 -20 -15 5 -2 -14 -20 -20 -1 -20 -11 -6 -20 -20 0 -20 -20 -20 -20 -20 -20 -20 -20 -20 -20 -20 -20 2 4 -18
-20 -20 -20 -20 -20 -20 -20 -20 -20 -20 -20 -20 -20 -20 -20 -20 -17 -13 -4 -19 -18 -20 -20 -1 1 14 10 -20 -20 -20 -20 -20 -20 7 12 4 -20 -20 -20 -20 -20 -20 19
-20 -20 -20 -20 -20 -20 -20 -20 -20 -20 -20 -20 -20 -20 -20 -20 -20 -20 -20 -4 -20 -20 -20 -20 19 16 22 25 -20 -19 -18 -15 23 -6 22 24 20 -20 -20 -20 19 -20 -17
-20 -20 -20 -20 -20 -20 -20 -20 -20 -20 -20 -20 -20 -20 -20 -20 -20 -20 -20 -20 -20 7 -20 -20 -20 19 -11 29 31 -20 -20 -20 -20 -14 -1 11 11 15 33 11 -13 -17 3
-20 -20 -20 -20 -20 -20 -20 -20 -20 -20 -20 -20 -20 -20 -20 -20 -20 -14 -11 -20 -18 3 -8 17 -2 -20 -20 -3 -20 -20 -20 -20 -20 -20 -20 -20 -11 8 4 -9 16 6 3
-20 -20 -20 -20 -20 -20 -20 -20 -20 -20 -20 -20 -20 -20 -20 -20 -20 -18 -16 -17 -20 12 23 21 20 20 13 -20 -20 -20 -20 -20 -20 -20 -20 -20 -20 -20 -20 -20 -20 -20 -20
-20 -20 -20 -20 -20 -20 -20 -20 -20 1 -20 -12 -2 -20 -20 -20 -20 -20 -20 7 -12 32 31 23 24 20 22 17 15 -20 -20 -20 -20 -20 -20 -20 -20 -20 -20 -20 -20 -20 -20
-20 -20 -20 -20 -20 -20 -20 -20 -20 -1 14 9 8 -2 -20 -20 -20 -20 -20 -20 11 -6 13 27 10 20 31 20 4 -20 -20 -20 -20 -20 -20 -20 -20 -20 -20 -20 -20 -20 -20
-20 -20 -20 -20 -20 -20 -20 -20 -20 -20 -20 -20 -11 -5 -17 -20 -20 -4 2 1 -2 17 7 6 35 35 26 36 21 22 -3 -20 -20 -20 -20 -20 -20 -20 -20 -20 -20 -20 -20
-20 -20 -20 -20 -20 -20 -20 -20 -20 -20 -20 -17 -18 -20 7 -20 -20 -20 -20 -18 -19 4 23 5 -9 24 28 37 36 37 28 3 -15 -10 -20 -20 -20 -20 -20 -2 2 -20 -20
-20 -20 -20 -20 -20 -20 -20 -20 -20 -20 -20 -20 -18 -20 -11 -20 -6 -20 -20 -19 -13 0 24 29 33 25 22 19 11 29 31 27 6 -14 -20 -20 -20 -20 -20 -20 -14 11 -12
-20 -20 -20 -20 -20 -20 -20 -20 -20 -20 -20 -20 -20 -20 -18 -1 -1 -18 -4 2 14 -19 -6 -20 -13 8 15 0 -2 9 2 7 -16 -7 -2 -19 -20 -20 -20 -20 -20 -20 -20